     2              OBSERVATION DATA    GPS                 RINEX VERSION / TYPE
teqc 2003Nov3 Frederique Rolandone20040805 00:28:24UTC      PGM / RUN BY / DATE
                                                            COMMENT
42-44 dBHz = 7, 45-48 dBHz = 8, >= 49 dBHz = 9              COMMENT
42-44 dBHz = 7, 45-48 dBHz = 8, >= 49 dBHz = 9              COMMENT
42-44 dBHz = 7, 45-48 dBHz = 8, >= 49 dBHz = 9              COMMENT
42-44 dBHz = 7, 45-48 dBHz = 8, >= 49 dBHz = 9              COMMENT
42-44 dBHz = 7, 45-48 dBHz = 8, >= 49 dBHz = 9              COMMENT
42-44 dBHz = 7, 45-48 dBHz = 8, >= 49 dBHz = 9              COMMENT
Original Marker Name: heps                                  COMMENT
Campaign Name: UC Berkeley Central Calif 2003-2004          COMMENT
4-Character Station Name: HEPS                              COMMENT
6-Character Antenna Code: TRZEPH                            COMMENT
Vertical Measurement Point: BPA                             COMMENT
Vertical Offset to Rinex Ref. Point: 0.0000                 COMMENT
Radial Measurement Point: RRP                               COMMENT
Radial Offset to Rinex Ref. Point: 0.0000                   COMMENT
Antenna Height from Field Measurement: 0.1810 m             COMMENT
Original XYZ: 0.0000 0.0000 0.0000                          COMMENT
New XYZ position is based on association with SCEC monument COMMENT
E1F1Q8K8+0011. Position of that monument is believed to be  COMMENT
valid to within 1 m horizontally; vertical accuracy         COMMENT
should be no worse than 3-times this value.                 COMMENT
                                                            COMMENT
Revised Rinex header created by UCSD GPS archive for        COMMENT
GSAC on 04-Feb-2005 (2005:035) 16:34:19 GMT                 COMMENT
For assistance contact dagnew@ucsd.edu                      COMMENT
or anderson@python.ucsd.edu                                 COMMENT
                                                            COMMENT
HEPSEDAM                                                    MARKER NAME
heps                                                        MARKER NUMBER
F. Rolandone UNIV CALIF BERKELEY                            OBSERVER / AGENCY
220280498 TRIMBLE 5700 NP 1.20 / SP 0.00                    REC # / TYPE / VERS
338141 TRM41249.00                                          ANT # / TYPE
 -2637122.0000 -4419486.0000  3757164.0000                  APPROX POSITION XYZ
        0.1810        0.0000        0.0000                  ANTENNA: DELTA H/E/N
     1     1     0                                          WAVELENGTH FACT L1/2
     4    L1    L2    C1    P2                              # / TYPES OF OBSERV
    30                                                      INTERVAL
  2004     7    28     3    11    0.000000                  TIME OF FIRST OBS
  2004     7    29     0     0    0.000000                  TIME OF LAST OBS
                                                            END OF HEADER
 04  7 28  3 11  0.0000000  0  8G 8G11G27G28G31G10G26G29
     77634.65659     42652.56456  20220803.0634   20220799.3054
     -3331.03956     -6349.83752  23787784.4844   23787779.9064
    132625.76659     75385.69555  21230273.0394   21230268.7234
     43603.77358     21686.46756  20706523.2114   20706517.7664
    -57660.92658    -38157.10856  20625042.0864   20625037.4614
    165157.02755     88976.34051  24954535.8524   24954533.6524
    -36898.87158    -22116.49853  22655926.6804   22655923.6684
    -24414.03158    -15729.55154  22259258.1564   22259254.4614
 04  7 28  3 11 30.0000000  0 10G 7G 8G11G13G27G28G31G10G26G29
    -71475.53958    -48508.60154  22176706.9064   22176702.9574
    123408.46149     78320.47246  20229513.6644   20229509.8834
     -5680.44946     -8180.60142  23787336.4694   23787331.8554
    210373.12956    125726.30951  24866450.8754   24866446.7464
    210377.14849    135971.19245  21245068.6334   21245064.5904
     68859.68448     41366.40646  20711329.0394   20711323.8364
    -90692.68749    -63896.12946  20618756.4144   20618751.9454
    272466.03544    172593.68041  24974954.9924   24974953.5594
    -69146.82448    -47244.76343  22649790.4384   22649787.1564
    -45146.84848    -31884.98044  22255312.8054   22255309.1994
 04  7 28  3 12  0.0000000  0 10G 7G 8G11G13G27G28G31G10G26G29
   -122510.20348    -88275.82644  22166995.5164   22166991.6684
    169508.53549    114242.60746  20238286.1804   20238282.5434
     -7707.96546     -9760.43842  23786951.4304   23786946.7154
    362007.13346    243882.64541  24895305.8204   24895302.1414
    288420.39848    196784.10145  21259919.6094   21259915.6024
     94334.01649     61216.51646  20716176.7194   20716171.7234
   -123266.54349    -89278.34546  20612557.6724   20612553.0944
    379851.02344    256270.26841  24995390.7344   24995387.9384
   -100984.56648    -72053.33743  22643731.6644   22643728.0634
    -65459.96548    -47713.36644  22251447.5634   22251444.0744
 04  7 28  3 12 30.0000000  0 10G 7G 8G11G13G27G28G31G10G26G29
   -173255.03948   -127817.26344  22157338.9774   22157335.2424
    215982.63749    150456.19947  20247129.8914   20247126.0634
     -9364.64146    -11051.34742  23786635.7734   23786631.7854
    513641.29346    362039.17441  24924161.4304   24924156.0354
    366803.03149    257861.47745  21274835.5234   21274831.2664
    120072.72749     81272.66546  20721074.6484   20721069.3754
   -155333.35949   -114265.46646  20606455.5704   20606451.4804
    487355.54745    340039.98541  25015847.8594   25015845.1134
   -132362.72748    -96503.86443  22637760.6724   22637757.0084
    -85304.60548    -63176.71444  22247671.3834   22247667.3324
 04  7 28  3 13  0.0000000  0 10G 7G 8G11G13G27G28G31G10G26G29
   -223701.90248   -167126.47544  22147739.4614   22147736.1174
    262837.75049    186966.68346  20256046.2734   20256042.2544
    -10642.19946    -12046.85842  23786392.9774   23786388.0514
    665279.57846    480198.82041  24953016.4924   24953012.8984
    445531.25848    319208.14845  21289816.8204   21289813.0394
    146081.36749    101539.13246  20726023.8984   20726018.7734
   -186884.89849   -138851.06746  20600451.5554   20600447.0394
    594982.79745    423905.34342  25036328.7114   25036325.7734
   -163273.02048   -120589.76143  22631878.4694   22631875.3284
   -104672.39548    -78268.48344  22243985.8674   22243981.5554
 04  7 28  3 13 30.0000000  0 10G 7G 8G11G13G27G28G31G10G26G29
   -273847.05948   -206200.61244  22138197.1484   22138193.6174
    310076.73849    223776.28546  20265035.4774   20265031.8874
    -11536.37946    -12743.60742  23786222.8914   23786218.4534
    816920.82445    598360.80141  24981872.5004   24981869.0904
    524607.30948    380825.83745  21304864.5004   21304860.3014
    172360.89149    122016.68846  20731024.6644   20731019.5824
   -217917.52349   -163032.31646  20594546.0084   20594541.8014
    702731.40245    507865.29741  25056833.2504   25056830.4344
   -193711.37148   -144307.93843  22626086.3674   22626082.6764
   -123559.87948    -92985.99044  22240391.6094   22240387.9614
 04  7 28  3 14  0.0000000  0 11G 7G 8G11G13G19G27G28G31G10G26G29
   -323691.47748   -245040.37344  22128711.9694   22128707.8714
    357697.23449    260883.17547  20274097.4064   20274093.2424
    -12048.32445    -13142.50142  23786124.7734   23786120.9924
    968559.60545    716520.89141  25010729.2034   25010724.8164
    287711.97757    188165.35852  24283538.9304   24283533.2774
    604028.47348    442712.45745  21319978.0554   21319973.9064
    198907.44549    142702.32046  20736076.5084   20736071.3054
   -248432.19149   -186809.97946  20588739.7664   20588734.9884
    810595.29755    591915.08151  25077358.5634   25077356.0984
   -223678.64148   -167659.03343  22620384.1644   22620380.0864
   -141968.18048   -107330.11144  22236888.5634   22236884.8284
 04  7 28  3 14 30.0000000  0 11G 7G 8G11G13G19G27G28G31G10G26G29
   -373238.25448   -283648.23644  22119283.4534   22119279.4804
    405694.89149    298283.95447  20283231.1024   20283227.1884
    -12180.91045    -13245.84342  23786099.9304   23786095.5044
   1120188.44144    834673.25841  25039582.9774   25039578.3794
    416719.12547    288690.38142  24308087.7734   24308082.5864
    683790.05148    504864.32345  21335155.9694   21335151.7704
    225715.20749    163591.47746  20741177.7114   20741172.6804
   -278431.87549   -210186.33346  20583030.8364   20583026.3324
    918566.18045    676048.25241  25097905.2344   25097902.3834
   -253177.60948   -190645.22743  22614770.5704   22614766.9654
   -159900.55948   -121303.37644  22233475.8834   22233472.0944
 04  7 28  3 15  0.0000000  0 11G 7G 8G11G13G19G27G28G31G10G26G29
   -422488.03948   -322024.65944  22109911.5234   22109907.9024
    454068.18049    335977.43646  20292436.2664   20292432.1914
    -11934.40246    -13053.73342  23786146.8204   23786142.3094
   1271802.69945    952814.21941  25068434.7584   25068430.2734
    545971.30147    389406.38842  24332684.0314   24332678.8014
    763889.59848    567279.56045  21350398.6724   21350394.1914
    252780.83249    184681.56946  20746327.8984   20746322.8134
   -307917.25449   -233161.93746  20577419.9844   20577415.4494
   1026638.78945    760260.66041  25118470.8674   25118467.0984
   -282208.64148   -213266.76843  22609245.6174   22609242.5944
   -177357.64148   -134906.29044  22230154.0944   22230149.8554
 04  7 28  3 15 30.0000000  0 11G 7G 8G11G13G19G27G28G31G10G26G29
   -471446.11348   -360173.78444  22100595.5394   22100591.4414
    502810.51649    373958.48647  20301711.1954   20301707.5474
    -11313.98446    -12570.30142  23786265.2274   23786259.9574
   1423392.16045   1070935.87941  25097280.6804   25097276.9734
    675458.67647    490305.58042  24357325.1094   24357319.4734
    844320.22348    629952.77645  21365703.7424   21365699.8634
    280096.30149    205966.34846  20751526.2114   20751521.0984
   -336893.58649   -255740.89446  20571905.8914   20571901.4454
   1134802.59845    844544.06341  25139054.0864   25139049.6884
   -310776.76648   -235527.61243  22603809.1884   22603806.2154
   -194344.85548   -148143.06644  22226921.6254   22226917.3794
 04  7 28  3 16  0.0000000  0 11G 7G 8G11G13G19G27G28G31G10G26G29
   -520108.54348   -398092.54044  22091334.8284   22091330.7894
    551923.96149    412228.70447  20311057.6564   20311053.2274
    -10315.64846    -11792.37242  23786455.0864   23786450.6684
   1574956.54745   1189038.02341  25126122.7814   25126118.3324
    805180.35947    591387.38143  24382009.4844   24382005.2304
    925084.02048    692885.60045  21381072.6334   21381068.8134
    307662.74649    227446.69746  20756771.6724   20756766.8754
   -365357.14549   -277920.27246  20566489.2974   20566484.5124
   1243056.54344    928897.72841  25159653.0704   25159649.4494
   -338877.90248   -257424.55143  22598461.7344   22598458.0474
   -210858.48848   -161010.82244  22223778.9304   22223775.0864
 04  7 28  3 16 30.0000000  0 11G 7G 8G11G13G19G27G28G31G10G26G29
   -568473.13748   -435779.22344  22082131.6334   22082127.1994
    601410.27749    450789.48047  20320474.5084   20320470.3284
     -8937.00445    -10718.09942  23786716.7274   23786712.6884
   1726493.72345   1307118.92641  25154959.4144   25154954.6954
    935134.26247    692650.13942  24406739.3284   24406734.1604
   1006181.71148    756078.61645  21396505.2894   21396501.0864
    335479.73849    249122.27146  20762065.3444   20762060.0274
   -393305.54749   -299698.22346  20561171.0084   20561166.5164
   1351398.05944   1013319.68541  25180270.0944   25180266.3364
   -366509.74248   -278955.85143  22593203.6564   22593199.8674
   -226896.31248   -173507.82444  22220726.8284   22220723.3914
 04  7 28  3 17  0.0000000  0 11G 7G 8G11G13G19G27G28G31G10G26G29
   -616535.84048   -473230.65544  22072985.3364   22072981.7504
    651272.19149    489642.92347  20329962.7344   20329958.7114
     -7174.01246     -9344.33442  23787052.3444   23787047.8874
   1878002.99645   1425178.11341  25183791.1724   25183786.4844
   1065319.73847    794093.39243  24431513.2664   24431508.0124
   1087615.41448    819533.43345  21412001.2894   21411997.7544
    363548.40649    270993.96146  20767406.4774   20767401.0784
   -420734.97349   -321071.79746  20555951.3594   20555946.6094
   1459825.76245   1097808.85541  25200903.6174   25200900.0204
   -393668.01648   -300118.11543  22588035.5944   22588032.0744
   -242454.54748   -185631.09844  22217766.3834   22217762.5434
 04  7 28  3 17 30.0000000  0 11G 7G 8G11G13G19G27G28G31G10G26G29
   -664294.10248   -510444.85444  22063897.1484   22063893.4494
    701511.15649    528790.17247  20339522.9454   20339518.9264
     -5023.89145     -7668.91442  23787461.6094   23787456.9804
   2029482.72345   1543214.28141  25212615.2344   25212612.0744
   1195735.00447    895715.68642  24456330.2664   24456325.1294
   1169386.09848    883250.85745  21427561.8594   21427558.0514
    391868.63349    293061.67546  20772795.9144   20772790.5594
   -447642.79349   -342038.91046  20550830.8914   20550826.6414
   1568337.41045   1182363.34141  25221552.5634   25221549.8364
   -420349.80148   -320909.10743  22582958.3674   22582955.4654
   -257530.62948   -197378.68044  22214897.5634   22214893.5434
 04  7 28  3 18  0.0000000  0 11G 7G 8G11G13G19G27G28G31G10G26G29
   -711743.21949   -547418.16944  22054868.0634   22054864.1094
    752130.38349    568233.73447  20349155.4614   20349151.2384
     -2481.91046     -5688.12042  23787945.4844   23787940.1604
   2180933.14545   1661227.61741  25241436.1954   25241432.2934
   1326380.10547    997517.08942  24481190.8364   24481185.7114
   1251496.77048    947233.19245  21443187.1334   21443182.8244
    420442.44549    315326.99046  20778233.0004   20778227.9344
   -474024.50049   -362596.06546  20545810.4694   20545806.2464
   1676932.62945   1266982.95841  25242216.9774   25242215.2074
   -446550.30947   -341325.02643  22577972.1024   22577969.5634
   -272120.07448   -208747.06944  22212121.5234   22212116.6804
 04  7 28  3 18 30.0000000  0 11G 7G 8G11G13G19G27G28G31G10G26G29
   -758882.37548   -584149.94744  22045898.0474   22045893.8054
    803130.12149    607973.81047  20358860.3914   20358856.3324
       453.28946     -3400.94242  23788504.3914   23788499.5124
   2332350.76245   1779215.38741  25270249.5864   25270245.1484
   1457251.44947   1099494.77243  24506094.8364   24506089.6374
   1333946.60548   1011479.82845  21458876.6254   21458872.8444
    449268.11349    337788.55446  20783718.6484   20783713.2154
   -499879.24649   -382742.61246  20540890.5004   20540886.1024
   1785607.17645   1351664.42841  25262897.0554   25262894.5314
   -472268.50847   -361365.14943  22573078.1804   22573074.6604
   -286222.31648   -219735.83944  22209437.4534   22209433.8714
 04  7 28  3 19  0.0000000  0 11G 7G 8G11G13G19G27G28G31G10G26G29
   -805708.12548   -620637.52644  22036987.2114   22036983.1334
    854512.33249    648011.89946  20368638.0314   20368633.7704
      3784.98045      -804.82342  23789138.2974   23789133.4104
   2483735.11745   1897177.22341  25299057.0004   25299052.8984
   1588347.83247   1201647.79143  24531041.4534   24531036.6484
   1416737.28949   1075992.03545  21474631.2274   21474626.9964
    478346.13749    360446.75546  20789251.9694   20789246.7934
   -525203.63749   -402475.90046  20536071.5634   20536067.2934
   1894359.64846   1436406.65242  25283592.7504   25283589.6414
   -497500.67647   -381026.55743  22568276.2664   22568273.2194
   -299833.93048   -230342.24444  22206847.6174   22206843.9774
 04  7 28  3 19 30.0000000  0 11G 7G 8G11G13G19G27G28G31G10G26G29
   -852218.28548   -656879.18844  22028136.2344   22028132.3984
    906278.12949    688348.89546  20378488.7584   20378485.0744
      7515.43046      2102.01442  23789848.1094   23789842.7894
   2635083.56645   2015111.15241  25327857.9534   25327852.4494
   1719667.11347   1303974.51542  24556030.9064   24556025.9224
   1499869.25049   1140770.18345  21490450.7584   21490447.0784
    507676.11749    383301.29246  20794833.1884   20794827.9844
   -549995.58249   -421794.27646  20531353.5704   20531349.1254
   2003187.29345   1521207.38541  25304301.8204   25304299.1094
   -522244.53547   -400307.42543  22563568.4774   22563564.3674
   -312952.96548   -240564.84244  22204350.9304   22204347.0904
 04  7 28  3 20  0.0000000  0 11G 7G 8G11G13G19G27G28G31G10G26G29
   -898412.82848   -692874.90444  22019345.6804   22019341.4694
    958426.14149    728983.71546  20388412.5234   20388408.4654
     11644.84046      5319.79542  23790633.7894   23790628.4264
   2786391.80545   2133013.69941  25356651.1884   25356646.7584
   1851204.73447   1406471.43242  24581061.6334   24581056.6294
   1583340.73448   1205812.90545  21506334.7114   21506330.6294
    537255.35949    406350.04746  20800461.8984   20800456.5634
   -574255.27049   -440697.91746  20526737.4064   20526732.7894
   2112085.23845   1606062.85841  25325024.4304   25325022.1254
   -546499.85547   -419207.66443  22558952.7274   22558949.3794
   -325579.56648   -250403.74644  22201947.9224   22201944.5234
 04  7 28  3 20 30.0000000  0 11G 7G 8G11G13G19G27G28G31G10G26G29
   -944290.85548   -728623.99944  22010615.4064   22010611.2704
   1010956.64849    769916.58946  20398408.4224   20398404.3484
     16174.57846      8849.44942  23791495.8914   23791490.6134
   2937656.62145   2250882.35941  25385435.1094   25385432.0124
   1982957.25047   1509135.79642  24606133.8284   24606128.1024
   1667151.20348   1271119.76245  21522283.2664   21522279.3634
    567082.22749    429591.77446  20806137.9774   20806132.5744
   -597981.79349   -459186.08746  20522222.0634   20522217.8754
   2221049.60545   1690970.19741  25345759.0944   25345756.6214
   -570265.47747   -437726.31843  22554430.4224   22554427.2544
   -337713.00848   -259858.34744  22199639.4774   22199635.1374
 04  7 28  3 21  0.0000000  0 11G 7G 8G11G13G19G27G28G31G10G26G29
   -989851.01248   -764125.39344  22001945.5634   22001941.9024
   1063869.37149    811147.29246  20408477.6414   20408473.0514
     21105.70746     12691.92442  23792434.5394   23792429.6604
   3088875.12945   2368714.96141  25414210.7034   25414207.5904
   2114921.52347   1611965.15942  24631245.8524   24631239.9454
   1751300.26248   1336690.44945  21538296.3674   21538292.5124
    597155.40249    453025.42246  20811860.7034   20811855.3834
   -621173.89149   -477257.84946  20517808.7274   20517804.6334
   2330076.71944   1775926.38941  25366506.0784   25366503.0274
   -593539.92247   -455862.21644  22550001.2894   22549998.4024
   -349352.03948   -268927.71344  22197424.7194   22197420.5004
 04  7 28  3 21 30.0000000  0 11G 7G 8G11G13G19G27G28G31G10G26G29
  -1035090.53148   -799376.93244  21993337.0554   21993332.9064
   1117166.02049    852677.14946  20418619.5164   20418615.5044
     26441.33245     16849.53542  23793449.2734   23793444.9144
   3240045.70345   2486510.28941  25442978.5474   25442973.7074
   2247095.83247   1714958.23742  24656397.2034   24656391.7734
   1835788.83648   1402525.71045  21554374.1094   21554369.6524
    627474.92249    476651.02446  20817630.0554   20817625.0944
   -643829.07849   -494911.22346  20513497.7734   20513493.2464
   2439164.34845   1860929.72741  25387265.2274   25387261.8794
   -616320.34047   -473613.17344  22545666.1564   22545662.9654
   -360494.28148   -277609.96444  22195304.1174   22195300.0984
 04  7 28  3 22  0.0000000  0 11G 7G 8G11G13G19G27G28G31G10G26G29
  -1080009.17649   -834378.46444  21984788.9924   21984784.9224
   1170845.60249    894505.40046  20428834.3594   20428830.4184
     32181.42645     21322.34542  23794541.7344   23794536.3484
   3391164.23445   2604264.99641  25471735.1724   25471731.0314
   2379475.95347   1818111.65442  24681588.2114   24681582.7734
   1920615.53148   1468624.44345  21570515.8984   21570511.9344
    658038.52049    500466.82646  20823446.0784   20823441.1764
   -665947.18449   -512146.10146  20509288.7664   20509284.3094
   2548308.27345   1945976.88341  25408033.9304   25408031.3954
   -638606.36348   -490978.87944  22541424.9304   22541422.3444
   -371139.57848   -285904.96644  22193278.7424   22193274.5554
 04  7 28  3 22 30.0000000  0 10G 7G 8G11G19G27G28G31G10G26G29
  -1124603.17648   -869127.00944  21976303.3674   21976299.1134
   1224911.17249    936634.43646  20439122.7424   20439118.1684
     38330.18446     26113.66642  23795711.0554   23795706.8444
   2512061.35547   1921425.06342  24706818.0944   24706813.0664
   2005782.41848   1534988.23045  21586723.2194   21586718.7464
    688847.25449    524473.63346  20829308.6884   20829303.6054
   -687524.48049   -528959.55046  20505182.9304   20505178.4574
   2657507.03545   2031066.84041  25428814.8284   25428811.1484
   -660393.81648   -507956.07343  22537279.3594   22537276.3554
   -381284.23448   -293809.88344  22191347.5944   22191343.6604
 04  7 28  3 23  0.0000000  0 10G 7G 8G11G19G27G28G31G10G26G29
  -1168861.57849   -903614.05044  21967880.8284   21967876.7384
   1279371.84849    979071.32746  20449486.1724   20449482.1214
     44898.39546     31231.71242  23796962.7344   23796956.8364
   2644858.37947   2024903.33342  24732088.3984   24732083.3634
   2091298.70748   1601624.30545  21602996.1094   21602991.9614
    719909.28949    548677.83646  20835219.7814   20835214.3754
   -708550.36749   -545343.35046  20501181.8674   20501177.4304
   2766766.69145   2116204.20042  25449606.3284   25449604.1334
   -681671.73448   -524536.26344  22533230.1024   22533226.5234
   -390917.75848   -301316.50044  22189514.6564   22189510.8364
 04  7 28  3 23 30.0000000  0 10G 7G 8G11G19G27G28G31G10G26G29
  -1212771.93048   -937829.89744  21959524.8594   21959520.9574
   1334239.34449   1021825.22746  20459926.8984   20459922.9774
     51898.77046     36686.61742  23798293.7974   23798288.2894
   2777875.25447   2128552.99842  24757400.8444   24757395.1454
   2177175.08648   1668540.97945  21619337.5634   21619333.7664
    751234.69949    573087.25046  20841180.5164   20841175.2774
   -729012.43749   -561287.81246  20497287.7974   20497283.1604
   2876095.03545   2201395.16241  25470410.8444   25470408.1804
   -702427.55948   -540709.59943  22529280.6094   22529276.9654
   -400027.70748   -308415.14744  22187781.0394   22187777.5904
 04  7 28  3 24  0.0000000  0 10G 7G 8G11G19G27G28G31G10G26G29
  -1256333.94949   -971774.28544  21951235.2894   21951231.1334
   1389512.68449   1064895.37346  20470445.1024   20470441.0904
     59331.76646     42478.51742  23799708.7424   23799703.1644
   2911107.78947   2232370.61842  24782753.6954   24782748.3244
   2263410.29348   1735737.25845  21635747.8984   21635743.9924
    782821.17649    597700.09646  20847191.3444   20847186.4064
   -748910.64149   -576792.88946  20493501.4844   20493496.9384
   2985487.33246   2286635.93541  25491227.0314   25491224.7934
   -722660.95748   -556475.86044  22525429.9224   22525427.0004
   -408614.16848   -315105.88644  22186147.2584   22186143.2234
 04  7 28  3 24 30.0000000  0 10G 7G 8G11G19G27G28G31G10G26G29
  -1299550.44549  -1005449.44944  21943011.5554   21943007.1994
   1445187.98049   1108278.72046  20481039.9534   20481035.7624
     67194.29346     48605.22142  23801204.3834   23801199.4384
   3044548.91047   2336350.90542  24808146.3984   24808141.1414
   2349999.60948   1803209.44445  21652225.2814   21652221.2384
    814663.37149    622512.19846  20853251.0314   20853245.5514
   -768248.01649   -591860.95446  20489821.5234   20489817.1294
   3094936.09446   2371920.57641  25512054.8914   25512051.2034
   -742374.44948   -571836.98644  22521678.9534   22521675.0044
   -416680.01648   -321390.95544  22184612.2894   22184608.1684
 04  7 28  3 25  0.0000000  0  9G 7G 8G11G19G27G28G31G26G29
  -1342423.97349  -1038857.38344  21934853.1174   21934849.0354
   1501261.69149   1151972.53246  20491710.5314   20491706.4654
     75484.17646     55064.83942  23802780.9774   23802776.8984
   3178191.75046   2440488.34242  24833577.5864   24833572.7154
   2436938.89148   1870954.33245  21668769.2734   21668765.2894
    846756.06349    647519.49846  20859357.5864   20859352.4104
   -787027.24649   -606494.10646  20486248.0864   20486243.3554
   -761570.54348   -586794.95843  22518025.9064   22518022.2734
   -424228.27349   -327272.70144  22183175.5634   22183171.8984
 04  7 28  3 25 30.0000000  0  9G 7G 8G11G19G27G28G31G26G29
  -1384952.86349  -1071996.74744  21926760.5314   21926756.2814
   1557734.58649   1195977.39846  20502456.8524   20502452.4144
     84203.27346     61858.99142  23804442.2034   23804436.9024
   3312033.56646   2544780.76742  24859047.2114   24859041.7384
   2524228.22348   1938972.01245  21685379.7194   21685375.9654
    879098.46949    672721.38846  20865512.4774   20865507.1054
   -805246.87149   -620691.19446  20482781.1094   20482776.5124
   -780247.27048   -601348.22643  22514471.9064   22514468.0784
   -431257.20749   -332749.79344  22181838.4924   22181834.7624
 04  7 28  3 26  0.0000000  0  9G 7G 8G11G19G27G28G31G26G29
  -1427132.08649  -1104863.64344  21918733.5704   21918730.4454
   1614609.89149   1240295.82646  20513279.6884   20513275.3674
     93356.20346     68991.11242  23806183.0634   23806177.8404
   3446074.96145   2649228.73842  24884553.8674   24884548.2734
   2611870.72349   2007264.85545  21702057.4534   21702053.8914
    911692.94949    698119.68646  20871714.8524   20871709.5824
   -822902.15649   -634448.54746  20479421.2504   20479416.9734
   -798399.73048   -615492.99543  22511017.2974   22511013.7544
   -437762.36348   -337818.71444  22180600.3054   22180596.4654
 04  7 28  3 26 30.0010000  0  9G 7G 8G11G19G27G28G31G26G29
  -1468964.71949  -1137460.48744  21910773.2554   21910769.5674
   1671887.17649   1284927.47546  20524179.3254   20524175.2244
    102942.10246     76460.70642  23808007.1694   23808001.5794
   3580314.38345   2753831.00742  24910098.7864   24910093.6774
   2699866.02748   2075832.63545  21718802.5444   21718798.7284
    944536.51649    723712.09146  20877964.5444   20877959.4584
   -839995.52749   -647768.03146  20476168.1534   20476164.1034
   -816029.79748   -629230.67944  22507662.8174   22507658.4234
   -443745.69548   -342481.03544  22179461.6304   22179457.9034
 04  7 28  3 27  0.0010000  0  9G 7G 8G11G19G27G28G31G26G29
  -1510448.86749  -1169785.77445  21902879.0214   21902875.1884
   1729560.52749   1329867.75746  20535154.0994   20535150.0174
    112959.19546     84266.27442  23809912.5754   23809908.8724
   3714737.82045   2858576.62742  24935678.8024   24935672.7084
   2788205.64148   2144668.69545  21735612.9814   21735609.3604
    977623.42649    749494.10646  20884260.9894   20884255.7744
   -856527.01249   -660649.70646  20473022.5834   20473017.9114
   -833137.37148   -642561.21944  22504407.3964   22504403.3884
   -449208.00049   -346737.37944  22178422.2394   22178417.9814
 04  7 28  3 27 30.0010000  0  9G 7G 8G11G19G27G28G31G26G29
  -1551585.63348  -1201840.36844  21895050.6534   21895046.7044
   1787630.77349   1375117.31646  20546204.5604   20546200.8884
    123408.02046     92408.22842  23811902.3804   23811896.8454
   3849345.73445   2963466.01542  24961293.4114   24961288.3644
   2876891.08648   2213774.24345  21752489.2784   21752485.5404
   1010952.61749    775464.91246  20890603.3254   20890598.2314
   -872497.15249   -673093.95046  20469983.2164   20469978.9504
   -849722.49648   -655484.67844  22501251.3724   22501247.7284
   -454149.53948   -350587.90944  22177481.9114   22177478.4934
 04  7 28  3 28  0.0010000  0  9G 7G 8G11G19G27G28G31G26G29
  -1592375.25849  -1233624.46845  21887288.9424   21887284.4424
   1846096.48049   1420675.01546  20557330.1464   20557326.3684
    134288.57446    100886.57942  23813971.7864   23813967.0604
   3984133.72345   3068495.79342  24986943.4354   24986937.0634
   2965920.35948   2283147.70845  21769431.2474   21769427.0284
   1044521.20749    801622.26646  20896991.2554   20896986.1104
   -887906.52349   -685101.23346  20467051.0674   20467046.5794
   -865785.42648   -668001.21343  22498194.1304   22498191.2314
   -458570.70748   -354032.95544  22176640.7864   22176637.2984
 04  7 28  3 28 30.0010000  0  9G 7G 8G11G19G27G28G31G26G29
  -1632818.11749  -1265138.37345  21879593.0284   21879588.7944
   1904956.56349   1466540.02546  20568530.6614   20568526.6884
    145600.50446    109701.08442  23816124.9664   23816119.6384
   4119096.88745   3173662.06142  25012626.0444   25012619.7674
   3055291.43448   2352787.52245  21786437.6464   21786434.1064
   1078326.46949    827964.02846  20903424.0834   20903419.0834
   -902755.72349   -696672.01846  20464225.4194   20464221.0834
   -881326.42248   -680111.04843  22495236.6304   22495233.6964
   -462472.25848   -357073.10144  22175898.1774   22175894.1574
 04  7 28  3 29  0.0010000  0  9G 7G 8G11G19G27G28G31G26G29
  -1672913.10948  -1296381.19845  21871962.9034   21871959.0094
   1964210.87549   1512712.22046  20579806.4424   20579802.3534
    157345.00846    118852.68742  23818359.4894   23818354.0484
   4254232.37145   3278962.58542  25038340.7474   25038335.4154
   3145003.75448   2422693.20945  21803509.5444   21803505.6424
   1112367.12949    854489.22446  20909901.8964   20909896.8644
   -917043.93049   -707805.67446  20461506.6924   20461501.9234
   -896344.10548   -691813.11444  22492379.2314   22492375.0754
   -465853.33648   -359707.69244  22175254.3414   22175250.4314
 04  7 28  3 29 30.0010000  0  9G 7G 8G11G19G27G28G31G26G29
  -1712654.25448  -1327348.30445  21864400.6064   21864396.5324
   2023864.20349   1559195.35246  20591158.2944   20591154.4384
    169527.77047    128345.79842  23820678.2164   23820673.0634
   4389541.68445   3384398.41642  25064089.8414   25064084.0054
   3235061.54748   2492868.11945  21820647.0754   21820642.5094
   1146646.48049    881200.42646  20916425.2244   20916419.9424
   -930765.46949   -718497.78246  20458895.4424   20458890.9854
   -910832.68048   -703102.88644  22489622.1224   22489618.2824
   -468708.23848   -361932.27444  22174711.5364   22174707.4934
 04  7 28  3 30  0.0010000  0  9G 7G 8G11G19G27G28G31G26G29
  -1752042.28148  -1358040.25145  21856905.1774   21856901.2474
   2083914.46549   1605987.76546  20602585.3804   20602581.1734
    182148.39546    138180.07442  23823078.9354   23823074.7044
   4525020.07045   3489966.08742  25089869.3104   25089864.4504
   3325462.29348   2563310.26944  21837849.8414   21837845.5834
   1181161.54349    908095.28146  20922993.0364   20922988.2004
   -943921.33648   -728749.08746  20456392.1224   20456387.3764
   -924792.71547   -713980.81244  22486965.2474   22486962.3644
   -471038.00848   -363747.66044  22174267.9974   22174264.5094
 04  7 28  3 30 30.0010000  0  9G 7G 8G11G19G27G28G31G26G29
  -1791076.87149  -1388456.80445  21849477.2944   21849473.0324
   2144361.19949   1653089.13246  20614087.9974   20614084.0014
    195206.95346    148355.57742  23825564.9664   23825559.7554
   4660663.48045   3595662.30942  25115681.6614   25115676.0174
   3416204.57049   2634018.53544  21855117.2314   21855112.9194
   1215910.10549    935172.08946  20929605.4034   20929600.2904
   -956511.66849   -738559.72946  20453996.1304   20453991.5174
   -938223.87947   -724446.62244  22484409.3334   22484405.9314
   -472842.94548   -365154.08744  22173924.6774   22173921.0284
 04  7 28  3 31  0.0010000  0  9G 7G 8G11G19G27G28G31G26G29
  -1829753.68048  -1418594.55545  21842117.0134   21842113.0754
   2205207.51249   1700501.83746  20625666.6774   20625662.4424
    208708.47747    158876.23942  23828134.0134   23828129.3884
   4796472.56645   3701487.68442  25141525.3884   25141519.8494
   3507291.24248   2704995.15545  21872450.2474   21872446.3994
   1250894.36749    962432.55646  20936262.6854   20936257.5174
   -968532.24249   -747926.38746  20451708.5444   20451703.8374
   -951121.71148   -734496.85044  22481955.4974   22481952.1654
   -474118.48048   -366147.98844  22173682.1614   22173677.8804
 04  7 28  3 31 30.0010000  0  9G 7G 8G11G19G27G28G31G26G29
  -1868074.89849  -1448455.21545  21834824.8724   21834820.5014
   2266450.25049   1748223.46246  20637320.4274   20637316.6064
    222650.21147    169739.95942  23830786.6614   23830781.4704
   4932440.52046   3807436.85542  25167399.7314   25167392.9114
   3598718.25048   2776236.98145  21889848.7714   21889844.7554
   1286109.45349    989872.89646  20942963.8494   20942958.6384
   -979985.76249   -756851.20246  20449529.0914   20449524.4384
   -963488.34448   -744133.16744  22479601.3494   22479598.2434
   -474867.66448   -366731.75444  22173539.7784   22173535.6144
 04  7 28  3 32  0.0010000  0  9G 7G 8G11G19G27G28G31G26G29
  -1906037.47749  -1478036.42845  21827600.8494   21827596.6734
   2328091.14849   1796255.33946  20649050.7554   20649046.4814
    237034.85547    180948.81242  23833524.0604   23833518.5134
   5068566.11346   3913508.82542  25193303.5754   25193296.7284
   3690486.92248   2847745.04045  21907311.4034   21907307.6264
   1321556.02049   1017493.61346  20949709.0214   20949703.9624
   -990869.49249   -765332.01646  20447457.7554   20447453.4504
   -975320.79748   -753353.23544  22477350.3564   22477346.5524
   -475087.57848   -366903.09144  22173497.3884   22173493.3924
 04  7 28  3 32 30.0010000  0  9G 7G 8G11G19G27G28G31G26G29
  -1943640.89549  -1507337.77345  21820444.6774   21820441.4194
   2390129.56349   1844596.96646  20660855.9034   20660852.2434
    251863.30547    192503.44242  23836346.2554   23836339.5674
   5204846.14546   4019701.33442  25219236.2944   25219229.8804
   3782596.18448   2919518.50545  21924839.3804   21924835.2784
   1357232.15649   1045293.20546  20956498.3804   20956492.9114
  -1001183.26249   -773368.70347  20445495.0834   20445490.7354
   -986618.39148   -762156.52444  22475200.2474   22475196.1854
   -474777.82048   -366661.70644  22173556.4974   22173552.2474
 04  7 28  3 33  0.0010000  0  9G 7G 8G11G19G27G28G31G26G29
  -1980883.56248  -1536357.99845  21813358.0364   21813353.8924
   2452566.42649   1893249.07046  20672737.6854   20672733.5324
    267137.08246    204405.10742  23839251.8334   23839247.0754
   5341277.89846   4126011.85342  25245198.5364   25245191.4974
   3875045.82048   2991557.18345  21942432.1614   21942428.5324
   1393137.21949   1073271.17646  20963330.3724   20963325.5634
  -1010925.86749   -780960.33846  20443641.1304   20443636.3294
   -997379.52048   -770541.80444  22473152.1304   22473149.0214
   -473937.54748   -366006.93144  22173715.9664   22173712.1104
 04  7 28  3 33 30.0010000  0  9G 7G 8G11G19G27G28G31G26G29
  -2017762.37549  -1565094.72645  21806340.0914   21806336.3534
   2515403.35249   1942212.92446  20684694.9354   20684690.8174
    282859.39846    216656.26942  23842242.5604   23842238.4504
   5477860.27746   4232439.81742  25271188.8564   25271182.4704
   3967837.17248   3063862.12644  21960089.4034   21960085.2084
   1429271.90249   1101428.09046  20970206.9114   20970202.0364
  -1020094.66049   -788104.84446  20441896.6144   20441891.8064
  -1007601.15248   -778506.69744  22471207.5214   22471204.1144
   -472563.77748   -364936.43144  22173977.8414   22173973.7244
 04  7 28  3 34  0.0010000  0  9G 7G 8G11G19G27G28G31G26G29
  -2054271.23848  -1593543.16345  21799392.6614   21799388.3494
   2578645.62149   1991492.61946  20696729.2864   20696725.5874
    299036.22747    229261.61642  23845322.1064   23845317.2514
   5614595.55946   4338986.94342  25297208.6694   25297202.4624
   4060974.73448   3136436.85944  21977812.8414   21977808.8294
   1465640.07049   1129766.92546  20977127.3804   20977122.0134
  -1028683.79749   -794797.65846  20440261.9354   20440257.7244
  -1017277.14848   -786046.40944  22469365.9504   22469362.2124
   -470650.80947   -363445.78444  22174341.7864   22174337.8564
 04  7 28  3 34 30.0010000  0  9G 7G 8G11G19G27G28G31G26G29
  -2090408.64149  -1621702.15345  21792516.2164   21792511.9504
   2642293.51249   2041088.38546  20708841.3644   20708837.2244
    315669.12947    242222.31642  23848487.4274   23848482.8684
   5751480.98046   4445651.05242  25323257.3724   25323250.8804
   4154458.29348   3209281.17444  21995602.1064   21995597.8024
   1502240.70349   1158286.90546  20984092.2164   20984087.2044
  -1036692.25849   -801038.00947  20438738.0444   20438733.4934
  -1026406.01248   -793159.78544  22467628.8804   22467625.4464
   -468197.64548   -361534.21944  22174808.5674   22174804.7314
 04  7 28  3 35  0.0010000  0  9G 7G 8G11G19G27G28G31G26G29
  -2126174.55149  -1649571.67145  21785709.9424   21785705.7864
   2706345.51649   2090999.04646  20721030.1924   20721025.6464
    332758.04347    255538.39042  23851738.9974   23851734.1854
   5888512.32446   4552428.75342  25349332.8964   25349327.4424
   4248286.19548   3282393.84245  22013456.9114   22013452.9624
   1539071.81349   1186986.48346  20991100.8564   20991095.5634
  -1044120.47749   -806826.21647  20437324.6534   20437320.0994
  -1034987.57848   -799846.71144  22465995.5754   22465991.9234
   -465204.64148   -359201.98244  22175377.8724   22175373.8134
 04  7 28  3 35 30.0010000  0  9G 7G 8G11G19G27G28G31G26G29
  -2161570.47748  -1677152.88745  21778974.2864   21778970.5364
   2770799.50049   2141222.94146  20733295.0364   20733290.8334
    350301.43847    269208.59242  23855078.0444   23855071.3994
   6025684.47346   4659316.26742  25375436.4354   25375429.9074
   4342455.19948   3355772.27244  22031376.9814   22031372.8064
   1576129.40249   1215862.54046  20998152.5284   20998147.5174
  -1050970.35949   -812163.77546  20436021.1694   20436016.2634
  -1043023.53948   -806108.46244  22464466.8024   22464463.3024
   -461673.53148   -356450.44844  22176049.8174   22176046.1534
 04  7 28  3 36  0.0010000  0  9G 7G 8G11G19G27G28G31G26G29
  -2196590.71948  -1704441.38245  21772310.2474   21772306.3764
   2835660.08649   2191763.66646  20745637.7944   20745633.4814
    368304.69147    283237.09442  23858503.1064   23858497.9744
   6162998.89546   4766314.69342  25401565.8104   25401560.2354
   4436969.25848   3429419.59044  22049362.2864   22049358.3684
   1613416.94149   1244917.76446  21005248.5914   21005243.0634
  -1057236.56648   -817046.52646  20434828.4894   20434824.0214
  -1050508.09847   -811940.56144  22463042.4664   22463038.9974
   -457599.10548   -353275.55544  22176825.1854   22176821.6734
 04  7 28  3 36 30.0010000  0  9G 7G 8G11G19G27G28G31G26G29
  -2231236.57448  -1731438.12845  21765717.5364   21765713.0324
   2900924.51249   2242619.06346  20758057.3024   20758053.1964
    386766.59847    297623.02342  23862016.4034   23862012.1924
   6300450.34446   4873419.84242  25427721.4194   25427715.2514
   4531825.45748   3503333.52044  22067412.9664   22067408.5914
   1650930.73849   1274149.31246  21012386.7944   21012382.0404
  -1062920.91849   -821475.86846  20433746.4274   20433742.5444
  -1057442.67248   -817344.09244  22461723.1534   22461719.0604
   -452982.99648   -349678.56444  22177703.2554   22177700.0094
 04  7 28  3 37  0.0010000  0  9G 7G 8G11G19G27G28G31G26G29
  -2265505.12148  -1758140.86645  21759196.5214   21759192.2474
   2966594.66049   2293790.62146  20770553.8804   20770549.8174
    405689.84847    312368.43542  23865617.5054   23865612.4744
   6438037.81346   4980630.97242  25453903.5524   25453897.2984
   4627024.91048   3577514.91244  22085528.4424   22085525.1424
   1688671.41449   1303557.63146  21019569.0134   21019564.0134
  -1068021.10949   -825450.03647  20432776.2084   20432772.0014
  -1063824.34048   -822316.79544  22460508.4974   22460504.6344
   -447822.91848   -345657.70744  22178685.7784   22178681.8604
 04  7 28  3 37 30.0010000  0  9G 7G 8G11G19G27G28G31G26G29
  -2299390.23049  -1784544.82845  21752748.0754   21752743.9744
   3032675.50849   2345282.20346  20783128.5524   20783124.7864
    425080.74247    327478.20842  23869308.3174   23869302.4934
   6575763.35246   5087949.72841  25480111.7634   25480105.3764
   4722572.08248   3651967.24444  22103710.5674   22103706.4934
   1726642.98448   1333145.87546  21026794.5524   21026789.5364
  -1072531.39549   -828964.53246  20431918.0754   20431913.5174
  -1069647.09048   -826854.00544  22459400.4424   22459396.7314
   -442113.15248   -341208.53544  22179772.3024   22179768.2864
 04  7 28  3 38  0.0010000  0  9G 7G 8G11G19G27G28G31G26G29
  -2332897.73049  -1810654.54945  21746371.8884   21746367.8134
   3099160.92249   2397089.02546  20795780.5284   20795776.1854
    444933.37948    342947.79242  23873085.9274   23873080.3764
   6713617.37146   5195368.56141  25506345.1384   25506338.3374
   4818459.53148   3726684.75244  22121957.6694   22121953.6184
   1764837.52348   1362907.85546  21034062.8804   21034057.6924
  -1076457.96549   -832024.18447  20431170.8564   20431166.3724
  -1074916.59848   -830960.08044  22458397.6924   22458394.4234
   -435859.81648   -336335.79344  22180961.9114   22180958.4504
 04  7 28  3 38 30.0010000  0  9G 7G 8G11G19G27G28G31G26G29
  -2366021.80948  -1836465.49545  21740068.6614   21740064.4074
   3166055.09449   2449214.36246  20808509.9354   20808505.8994
    465253.53547    358781.70242  23876951.9584   23876946.9424
   6851601.60546   5302888.85842  25532602.4814   25532594.9814
   4914691.27748   3801670.50344  22140269.5834   22140265.6384
   1803258.48848   1392846.27346  21041373.9744   21041368.7244
  -1079795.59849   -834624.93146  20430535.8414   20430531.3104
  -1079627.25048   -834630.68344  22457500.8804   22457497.6734
   -429057.57848   -331035.33644  22182256.6534   22182252.7244
 04  7 28  3 39  0.0010000  0  9G 7G 8G11G19G27G28G31G26G29
  -2398761.54348  -1861976.95545  21733838.0134   21733834.3374
   3233357.75049   2501657.99646  20821317.1854   20821313.0364
    486041.85247    374980.44542  23880907.6854   23880903.4584
   6989713.08246   5410508.19642  25558883.6774   25558877.2044
   5011266.57447   3876923.98044  22158647.2784   22158643.2394
   1841904.79748   1422960.29446  21048728.1854   21048722.8214
  -1082543.85949   -836766.41346  20430012.8644   20430008.2204
  -1083778.25848   -837865.21344  22456710.6854   22456707.2394
   -421705.96147   -325306.77444  22183655.3334   22183651.3494
 04  7 28  3 39 30.0010000  0  9G 7G 8G11G19G27G28G31G26G29
  -2431114.32848  -1887186.89945  21727681.6304   21727678.0174
   3301070.59448   2554421.24246  20834202.4194   20834198.4974
    507300.97747    391545.98342  23884953.7634   23884948.6574
   7127950.76146   5518226.05441  25585188.8884   25585182.6964
   5108186.49248   3952445.98944  22177090.9664   22177086.1694
   1880776.94148   1453250.29246  21056125.1924   21056119.9784
  -1084700.59049   -838446.97146  20429602.1464   20429597.6964
  -1087366.80548   -840661.45544  22456028.1224   22456024.2164
   -413802.76648   -319148.42045  22185159.6614   22185155.3564
 04  7 28  3 40  0.0010000  0  9G 7G 8G11G19G27G28G31G26G29
  -2463084.94548  -1912099.04945  21721597.7244   21721594.1104
   3369187.87549   2607499.66846  20847164.8334   20847160.4504
    529025.77048    408474.40642  23889088.1384   23889083.3294
   7266305.75845   5626035.19041  25611516.9894   25611510.6884
   5205444.35247   4028231.33744  22195597.8174   22195594.0404
   1919867.61348   1483710.55446  21063564.0994   21063558.5794
  -1086271.17248   -839670.79447  20429303.4814   20429298.8414
  -1090398.00847   -843023.42044  22455451.3414   22455448.1344
   -405353.36748   -312564.47044  22186767.5284   22186763.4894
 04  7 28  3 40 30.0010000  0  9G 7G 8G11G19G27G28G31G26G29
  -2494661.56648  -1936704.19445  21715589.1464   21715585.0214
   3437720.12948   2660901.42246  20860205.9194   20860201.7044
    551228.31348    425775.11342  23893312.5284   23893308.8604
   7404786.11745   5733942.09141  25637868.6854   25637863.1854
   5303050.22347   4104287.86244  22214171.9974   22214167.7744
   1959186.81348   1514348.90246  21071046.3414   21071040.9744
  -1087244.40648   -840429.14746  20429118.6064   20429113.7394
  -1092860.23047   -844941.99544  22454982.6384   22454979.4934
   -396346.46948   -305546.09744  22188480.9664   22188476.9464
 04  7 28  3 41  0.0010000  0  9G 7G 8G11G19G27G28G31G26G29
  -2525849.03148  -1961006.08545  21709654.3334   21709650.2084
   3506661.61349   2714622.07446  20873324.8334   20873321.0174
    573903.55548    443444.07842  23897627.6694   23897622.6534
   7543383.14145   5841939.80341  25664243.7244   25664237.1614
   5400997.85548   4180610.68344  22232810.6384   22232806.9934
   1998727.37549   1545159.74246  21078570.2784   21078565.0994
  -1087625.53549   -840726.11347  20429045.8174   20429041.3294
  -1094758.05548   -846420.78744  22454621.7244   22454618.3924
   -386787.18448   -298097.28145  22190300.0674   22190296.0324
 04  7 28  3 41 30.0010000  0  9G 7G 8G11G19G27G28G31G26G29
  -2556644.21148  -1985002.31245  21703794.2714   21703790.2124
   3576014.46949   2768663.26746  20886522.3884   20886518.2434
    597054.37548    461483.72542  23902033.2394   23902028.1064
   7682096.19145   5950027.97741  25690640.2944   25690634.0954
   5499288.58248   4257200.85744  22251514.9974   22251511.2394
   2038490.53148   1576144.02746  21086137.3414   21086131.7594
  -1087412.00449   -840559.71347  20429086.1304   20429081.7164
  -1096088.63348   -847457.56944  22454368.2474   22454364.5994
   -376673.06248   -290216.13144  22192224.9504   22192221.1064
 04  7 28  3 42  0.0010000  0  8G 7G 8G11G27G28G31G26G29
  -2587046.71948  -2008692.56445  21698008.8724   21698004.8764
   3645777.32849   2823023.93846  20899798.0834   20899793.3214
    620680.80148    479893.96342  23906529.1224   23906523.0834
   5597920.85548   4334057.18244  22270284.0364   22270280.3764
   2078474.20348   1607300.15046  21093745.8804   21093740.6104
  -1086604.17649   -839930.22947  20429240.4814   20429235.2124
  -1096851.71548   -848052.15144  22454223.0444   22454219.6304
   -366004.33248   -281902.82345  22194255.3174   22194250.9854
 04  7 28  3 42 30.0010000  0  8G 7G 8G11G27G28G31G26G29
  -2617047.70748  -2032069.92845  21692299.6534   21692296.0014
   3715958.43849   2877710.52646  20913152.6224   20913148.6424
    644791.93047    498681.84942  23911117.6464   23911111.7514
   5696902.05948   4411185.39044  22289119.6694   22289115.4544
   2118685.31648   1638633.48846  21101397.9274   21101392.5134
  -1085193.75449   -838831.18847  20429508.4504   20429503.6384
  -1097038.72348   -848197.84044  22454187.7394   22454183.6694
   -354772.30948   -273150.58744  22196392.5754   22196388.2784
 04  7 28  3 43  0.0010000  0  8G 7G 8G11G27G28G31G26G29
  -2646640.71948  -2055129.40245  21686668.2084   21686664.3374
   3786562.98049   2932727.06146  20926588.6144   20926583.9744
    669393.95348    517852.25642  23915799.2314   23915794.9314
   5796236.98048   4488589.21644  22308022.6304   22308018.5324
   2159128.43048   1670147.62246  21109093.8334   21109088.5834
  -1083174.78949   -837257.95147  20429892.6224   20429888.3454
  -1096643.09849   -847889.54844  22454263.2634   22454259.3174
   -342971.49648   -263955.13545  22198638.1384   22198634.2044
 04  7 28  3 43 30.0010000  0  8G 7G 8G11G27G28G31G26G29
  -2675827.83648  -2077872.58745  21681114.1384   21681110.1654
   3857588.23449   2988071.42046  20940104.5994   20940099.9234
    694484.64148    537403.48742  23920573.5444   23920568.2864
   5895921.72748   4566265.64544  22326992.0604   22326987.7864
   2199799.38348   1701839.28346  21116833.2004   21116827.9424
  -1080550.08649   -835212.72146  20430392.0674   20430387.3454
  -1095667.34448   -847129.18044  22454448.8104   22454444.7944
   -330604.21148   -254318.27545  22200991.5604   22200987.5914
 04  7 28  3 44  0.0010000  0  8G 7G 8G11G27G28G31G26G29
  -2704611.10549  -2100301.08745  21675636.7944   21675632.9664
   3929030.94149   3043741.07546  20953699.4894   20953694.7714
    720061.87948    557333.79242  23925440.6614   23925435.2674
   5995952.72747   4644211.87844  22346026.9584   22346023.5524
   2240694.08249   1733705.28246  21124615.1924   21124609.6574
  -1077322.20349   -832697.47546  20431006.3494   20431001.6614
  -1094113.31647   -845918.22144  22454744.2164   22454740.3494
   -317672.98048   -244241.96145  22203452.2004   22203448.0994
 04  7 28  3 44 30.0010000  0  8G 7G 8G11G27G28G31G26G29
  -2732990.37148  -2122414.79146  21670236.4974   21670232.4704
   4000890.42249   3099735.47546  20967373.6464   20967369.6104
    746125.49648    577643.12342  23930400.3414   23930395.1104
   6096328.46148   4722426.71144  22365127.3644   22365124.0054
   2281810.71148   1765744.22946  21132439.1854   21132433.9704
  -1073491.52049   -829712.51747  20431735.3334   20431730.5794
  -1091981.16848   -844256.78944  22455149.6614   22455146.3844
   -304178.29348   -233726.60144  22206020.1534   22206015.8454
 04  7 28  3 45  0.0010000  0  8G 7G 8G11G27G28G31G26G29
  -2760965.62549  -2144213.67345  21664913.0834   21664908.8374
   4073165.08248   3156053.39546  20981127.1064   20981122.6854
    772675.25448    598331.26142  23935452.5364   23935447.5324
   6197047.01648   4800908.70144  22384294.1534   22384289.8254
   2323147.14548   1797954.43046  21140305.4504   21140299.8924
  -1069058.91849   -826258.52947  20432578.9504   20432574.6494
  -1089271.09447   -842145.01144  22455665.4894   22455661.9314
   -290120.92648   -222772.82044  22208695.1924   22208690.9194
 04  7 28  3 45 30.0010000  0  8G 7G 8G11G27G28G31G26G29
  -2788535.66048  -2165696.80245  21659666.3104   21659662.0054
   4145855.20349   3212695.06546  20994959.5754   20994955.3644
    799712.44948    619399.21042  23940597.6144   23940592.5014
   6298108.07448   4879657.59944  22403525.6064   22403521.1924
   2364702.74249   1830335.43646  21148213.2474   21148207.9664
  -1064023.74249   -822335.01346  20433536.8564   20433532.5134
  -1085981.95348   -839582.01844  22456291.9034   22456287.7204
   -275499.91448   -211379.79845  22211477.5604   22211473.3884
 04  7 28  3 46  0.0010000  0  8G 7G 8G11G27G28G31G26G29
  -2815700.07049  -2186863.85145  21654497.2314   21654493.2474
   4218960.54348   3269660.27746  21008871.0604   21008866.6184
    827237.30148    640847.13942  23945835.3334   23945830.6464
   6399510.49248   4958672.45444  22422821.8494   22422817.7204
   2406475.80548   1862885.88146  21156162.2554   21156157.1884
  -1058386.07849   -817942.01647  20434609.5284   20434604.8924
  -1082113.60948   -836567.71644  22457027.6304   22457023.6694
   -260315.62548   -199547.86045  22214366.6774   22214363.0134
 04  7 28  3 46 30.0010000  0  8G 7G 8G11G27G28G31G26G29
  -2842461.01649  -2207716.52546  21649404.7944   21649400.6344
   4292478.02049   3326946.62246  21022861.0444   21022856.5604
    855247.42648    662673.23342  23951165.3414   23951160.7314
   6501250.35548   5037950.26744  22442182.0994   22442178.0324
   2448462.34049   1895602.66746  21164152.2474   21164146.9424
  -1052149.03949   -813081.98247  20435796.8254   20435791.6224
  -1077668.36348   -833103.86744  22457873.2714   22457869.4544
   -244570.77748   -187279.13945  22217362.6774   22217359.0284
 04  7 28  3 47  0.0010000  0  8G 7G 8G11G27G28G31G26G29
  -2868811.04349  -2228248.99446  21644390.2784   21644386.2204
   4366413.61349   3384558.77546  21036930.4354   21036925.8064
    883749.92648    684882.99242  23956589.0754   23956584.2634
   6603333.43448   5117495.52744  22461607.8174   22461603.6774
   2490667.91849   1928490.14846  21172183.8644   21172178.5674
  -1045305.73048   -807749.51247  20437098.7634   20437093.8374
  -1072639.10247   -829184.93244  22458830.5134   22458826.3644
   -228258.40648   -174568.17345  22220467.3104   22220462.7514
 04  7 28  3 47 30.0010000  0  8G 7G 8G11G27G28G31G26G29
  -2894753.15649  -2248463.61045  21639454.0054   21639449.7084
   4440762.90249   3442493.29346  21051078.4034   21051074.2714
    912741.75448    707474.01042  23962106.1064   23962101.9504
   6705754.95748   5197304.51144  22481097.3024   22481093.0634
   2533087.61749   1961544.46846  21180255.6774   21180250.0634
  -1037859.90249   -801947.56946  20438515.7244   20438510.9664
  -1067028.81648   -824813.27044  22459898.0054   22459894.8454
   -211382.22749   -161417.90244  22223678.7394   22223674.6924
 04  7 28  3 48  0.0010000  0  8G 7G 8G11G27G28G31G26G29
  -2920281.96949  -2268356.17246  21634595.4664   21634591.4934
   4515530.80549   3500753.99746  21065306.4974   21065302.3104
    942227.90248    730450.25042  23967717.3174   23967712.2474
   6808518.64848   5277380.11644  22500652.8644   22500648.4274
   2575724.92248   1994768.34446  21188369.3334   21188363.8924
  -1029806.74249   -795672.35947  20440048.3174   20440043.6884
  -1060832.45748   -819984.91444  22461077.0524   22461074.0174
   -193937.37949   -147824.49245  22226998.5754   22226994.3494
 04  7 28  3 48 30.0020000  0  8G 7G 8G11G27G28G31G26G29
  -2945397.62549  -2287926.80245  21629816.4554   21629812.5374
   4590719.37149   3559342.51446  21079614.3774   21079610.0764
    972210.11748    753813.01542  23973423.2134   23973417.0144
   6911627.14548   5357724.39344  22520273.6974   22520269.5414
   2618580.14849   2028162.03846  21196524.3464   21196519.2604
  -1021145.96149   -788923.69047  20441696.1584   20441691.5104
  -1054049.33248   -814699.34944  22462367.7834   22462364.1044
   -175923.29749   -133787.52245  22230426.2684   22230422.0184
 04  7 28  3 49  0.0020000  0  8G 7G 8G11G27G28G31G26G29
  -2970099.32049  -2307174.86146  21625116.0494   21625112.0574
   4666321.51649   3618253.27046  21094001.0184   21093996.7364
   1002685.25848    777559.90242  23979222.0884   23979216.8224
   7015071.01648   5438330.01244  22539958.7364   22539954.6114
   2661647.46149   2061720.98346  21204719.7834   21204714.5924
  -1011879.89849   -781703.37347  20443459.4554   20443455.0104
  -1046680.96548   -808957.74044  22463770.0884   22463766.2914
   -157342.67648   -119309.11544  22233961.7134   22233957.5804
 04  7 28  3 49 30.0020000  0  8G 7G 8G11G27G28G31G26G29
  -2994385.84049  -2326099.40246  21620494.5804   21620490.3074
   4742341.03549   3677489.26546  21108467.2294   21108462.8734
   1033656.21148    801693.10842  23985115.5884   23985110.6744
   7118854.09848   5519199.92844  22559707.9474   22559704.4204
   2704928.85549   2095446.74846  21212956.0494   21212950.8114
  -1002006.82049   -774010.05947  20445338.4244   20445333.9864
  -1038725.32847   -802758.53644  22465283.7914   22465280.3614
   -138193.17248   -104387.41845  22237605.8074   22237602.0454
 04  7 28  3 50  0.0020000  0  8G 7G 8G11G27G28G31G26G29
  -3018257.54749  -2344700.72046  21615951.6664   21615947.3694
   4818776.44949   3737049.34146  21123011.9244   21123007.7174
   1065122.24648    826212.10642  23991103.3074   23991098.4754
   7222974.30548   5600332.54044  22579521.4164   22579517.6784
   2748421.87149   2129337.42846  21221232.2364   21221227.2954
   -991527.94149   -765844.69047  20447332.2604   20447327.8574
  -1030183.09449   -796102.23344  22466909.8384   22466905.7054
   -118476.08649    -89023.43845  22241357.9944   22241354.3144
 04  7 28  3 50 30.0020000  0  8G 7G 8G11G27G28G31G26G29
  -3041710.84449  -2362976.00346  21611489.1974   21611484.6934
   4895629.98449   3796935.21446  21137636.6974   21137632.9554
   1097086.61748    851119.44942  23997186.1664   23997180.8114
   7327433.59447   5681729.40444  22599399.7444   22599395.7014
   2792128.36349   2163394.44046  21229549.5104   21229544.3694
   -980440.47349   -757205.09247  20449442.3074   20449437.4904
  -1021050.95348   -788986.26944  22468647.4474   22468643.7954
    -98188.64849    -73215.02845  22245218.0644   22245214.6044
 04  7 28  3 51  0.0020000  0  8G 7G 8G11G27G28G31G26G29
  -3064745.74649  -2380925.25346  21607105.2684   21607101.2874
   4972900.86349   3857146.29946  21152340.9714   21152336.9004
   1129549.16848    876414.91642  24003363.2054   24003357.7604
   7432230.23848   5763389.12744  22619342.0184   22619337.8114
   2836046.71949   2197616.54446  21237906.9714   21237901.7794
   -968745.09449   -748091.80047  20451667.9084   20451663.1044
  -1011329.13348   -781410.80144  22470497.4394   22470493.8304
    -77331.12548    -56962.38945  22249187.6504   22249183.4754
 04  7 28  3 51 30.0020000  0  8G 7G 8G11G27G28G31G26G29
  -3087361.32849  -2398547.76846  21602801.9244   21602797.7754
   5050588.95749   3917682.48646  21167124.4244   21167120.0374
   1162510.76248    902099.32442  24009635.9244   24009630.2364
   7537363.63747   5845311.26344  22639347.4944   22639343.7954
   2880176.05948   2232003.05946  21246304.4714   21246299.2914
   -956441.60548   -738504.64347  20454008.8934   20454004.4824
  -1001016.88748   -773375.26744  22472460.1354   22472455.7994
    -55903.54749    -40265.57645  22253265.1894   22253260.9634
 04  7 28  3 52  0.0020000  0  8G 7G 8G11G27G28G31G26G29
  -3109553.43049  -2415840.29445  21598578.3614   21598574.4824
   5128697.80149   3978546.51846  21181988.1664   21181983.5924
   1195975.04348    928175.37443  24016004.1354   24015998.7254
   7642836.25447   5927497.70644  22659418.4864   22659414.4474
   2924518.54748   2266555.65246  21254742.6194   21254737.3424
   -943526.80549   -728441.16047  20456466.6894   20456462.1114
   -990110.50448   -764876.76144  22474534.8694   22474531.3654
    -33902.42649    -23121.83244  22257451.6194   22257447.6274
 04  7 28  3 52 30.0020000  0  8G 7G 8G11G27G28G31G26G29
  -3131321.03949  -2432802.05946  21594436.5024   21594432.4324
   5207226.90249   4039738.02746  21196931.6664   21196927.6194
   1229942.95348    954643.88242  24022467.8614   24022462.6354
   7748647.53147   6009948.04844  22679553.6824   22679549.7954
   2969073.82448   2301274.05746  21263220.9554   21263215.8424
   -930000.39849   -717901.08847  20459040.5574   20459036.0294
   -978609.21548   -755914.70244  22476723.8464   22476720.0374
    -11327.26249     -5530.77244  22261747.3074   22261743.5494
 04  7 28  3 53  0.0020000  0  8G 7G 8G11G27G28G31G26G29
  -3152664.85249  -2449433.58746  21590374.9164   21590370.7094
   5286174.53149   4101255.66046  21211955.3464   21211950.7254
   1264413.27348    981503.87142  24029026.8614   24029021.8144
   7854794.89548   6092660.27044  22699752.9244   22699749.4324
   3013839.25049   2336156.20746  21271739.6584   21271734.4364
   -915863.93449   -706885.65847  20461730.5334   20461725.9864
   -966514.14148   -746489.95844  22479025.2754   22479021.5644
     11820.24649     12506.25445  22266152.6894   22266148.6544
 04  7 28  3 53 30.0020000  0  8G 7G 8G11G27G28G31G26G29
  -3173585.57049  -2465735.43346  21586393.7914   21586389.4474
   5365539.27749   4163098.32646  21227057.7914   21227053.7834
   1299385.32848   1008754.86842  24035682.1824   24035676.4434
   7961276.24647   6175632.76944  22720015.4554   22720011.8224
   3058812.48849   2371200.29546  21280297.9864   21280292.5614
   -901118.96549   -695396.06747  20464536.5184   20464531.9554
   -953826.18748   -736603.22944  22481439.7914   22481435.9244
     35538.85549     30988.29745  22270666.2214   22270662.0724
 04  7 28  3 54  0.0020000  0  8G 7G 8G11G27G28G31G26G29
  -3194078.68449  -2481704.07046  21582493.9864   21582489.8814
   5445324.60249   4225268.71946  21242240.1894   21242236.1114
   1334863.29748   1036400.02242  24042432.8464   24042428.0724
   8068094.49647   6258867.74644  22740342.4394   22740338.4984
   3103996.37548   2406408.53046  21288896.1824   21288890.6004
   -885761.61749   -683429.28347  20467458.9324   20467453.7914
   -940541.12148   -726251.20944  22483967.3934   22483964.1044
     59832.58249     49918.49044  22275289.1114   22275284.5884
 04  7 28  3 54 30.0020000  0  8G 7G 8G11G27G28G31G26G29
  -3214140.38749  -2497336.54846  21578676.1824   21578672.3504
   5525533.32049   4287769.01346  21257503.3074   21257499.0574
   1370850.53548   1064442.02242  24049281.3854   24049276.2914
   8175251.62547   6342366.81944  22760733.5884   22760729.3614
   3149392.74648   2441782.32446  21297534.5644   21297529.4244
   -869789.09049   -670983.15247  20470498.3304   20470493.7054
   -926655.43448   -715431.16244  22486609.7294   22486606.2524
     84704.19149     69298.97044  22280021.6824   22280017.4124
 04  7 28  3 55  0.0020000  0  8G 7G 8G11G27G28G31G26G29
  -3233775.96549  -2512636.99346  21574940.0334   21574935.9044
   5606158.87149   4350594.13146  21272845.7604   21272841.9324
   1407341.82848   1092876.83842  24056225.7294   24056219.9634
   8282740.90247   6426124.69244  22781188.3854   22781183.8814
   3194995.52348   2477316.96746  21306212.3774   21306207.2754
   -853207.48449   -658062.40947  20473653.6434   20473649.0644
   -912174.85948   -704147.58544  22489365.7914   22489362.0024
    110147.80949     89125.18444  22284863.4794   22284859.8304
 04  7 28  3 55 30.0020000  0  8G 7G 8G11G27G28G31G26G29
  -3252981.50049  -2527602.32646  21571285.3544   21571280.9674
   5687204.45349   4413746.53946  21288268.5804   21288264.2134
   1444340.63748   1121707.03942  24063265.7994   24063260.9244
   8390564.58247   6510143.12344  22801706.7444   22801702.6394
   3240806.73448   2513014.01646  21314930.0724   21314924.9204
   -836013.77349   -644664.70047  20476925.9554   20476921.1074
   -897095.89549   -692397.72244  22492235.0494   22492231.3384
    136166.44549    109399.45645  22289814.6664   22289810.8304
 04  7 28  3 56  0.0020000  0  8G 7G 8G11G27G28G31G26G29
  -3271760.44949  -2542235.26446  21567711.6354   21567707.7524
   5768665.03149   4477222.32446  21303770.0964   21303765.5374
   1481842.93448   1150929.63342  24070402.7524   24070398.1544
   8498717.58647   6594418.19044  22822287.6584   22822283.0764
   3286821.09848   2548869.37146  21323686.2294   21323680.9164
   -818212.27049   -630793.39047  20480312.9554   20480308.5844
   -881422.29748   -680184.51844  22495217.5964   22495214.0574
    162756.08649    130118.66244  22294874.7134   22294870.3264
 04  7 28  3 56 30.0020000  0  8G 7G 8G11G27G28G31G26G29
  -3290105.91849  -2556530.42046  21564220.6434   21564216.4324
   5850546.88749   4541026.35146  21319351.5804   21319346.8894
   1519855.68848   1180549.98842  24077636.1274   24077631.9904
   8607205.11747   6678953.92743  22842931.6584   22842927.8184
   3333044.00049   2584887.23346  21332482.3694   21332476.7094
   -799796.89849   -616443.74947  20483817.4084   20483812.6624
   -865147.52048   -667502.85944  22498314.4004   22498310.8774
    189922.79349    151287.54445  22300044.2214   22300039.7874
 04  7 28  3 57  0.0020000  0  8G 7G 8G11G27G28G31G26G29
  -3308016.26249  -2570486.51646  21560812.3464   21560808.2714
   5932850.90649   4605159.36646  21335013.6584   21335009.2684
   1558380.03548   1210568.96342  24084967.0494   24084962.4864
   8716027.24647   6763750.40643  22863640.1114   22863635.5294
   3379475.53149   2621067.64346  21341318.0024   21341312.6434
   -780766.97749   -601615.22447  20487438.8544   20487433.8964
   -848270.44148   -654351.87244  22501526.3694   22501522.7754
    217667.40249    172906.71545  22305323.7994   22305319.9004
 04  7 28  3 57 30.0020000  0  8G 7G 8G11G27G28G31G26G29
  -3325492.78549  -2584104.57846  21557486.6114   21557482.5414
   6015574.97349   4669619.68546  21350755.4634   21350751.1464
   1597413.90248   1240984.95642  24092394.8614   24092389.3964
   8825181.27347   6848805.49543  22884411.1584   22884407.6004
   3426112.91449   2657408.47046  21350192.5964   21350187.7604
   -761124.69549   -586309.55447  20491176.5334   20491172.3734
   -830792.63748   -640732.79044  22504852.1434   22504847.9984
    245987.84849    194974.61044  22310713.1354   22310708.7324
 04  7 28  3 58  0.0020000  0  8G 7G 8G11G27G28G31G26G29
  -3342535.16849  -2597384.33646  21554243.7524   21554239.3464
   6098717.90649   4734406.40046  21366576.9634   21366572.6894
   1636957.89148   1271798.49742  24099920.2994   24099914.8344
   8934665.64847   6934117.98244  22905245.4944   22905241.8894
   3472954.95749   2693908.77246  21359106.5104   21359101.2604
   -740870.71149   -570527.21147  20495030.7834   20495026.4434
   -812714.16848   -626645.64344  22508291.9004   22508288.2054
    274883.66449    217490.82944  22316211.4324   22316207.3344
 04  7 28  3 58 30.0020000  0  8G 7G 8G11G27G28G31G26G29
  -3359142.07449  -2610324.76546  21551083.4944   21551079.6044
   6182280.19949   4799519.86146  21382478.2134   21382474.0684
   1677012.83648   1303010.15042  24107541.9474   24107537.7054
   9044480.17247   7019687.74043  22926142.3224   22926138.2754
   3520001.40649   2730568.34846  21368058.9634   21368053.6704
   -720004.53149   -554267.85047  20499001.3074   20498997.0024
   -794034.15248   -612089.78144  22511847.0644   22511843.2754
    304355.44949    240455.85445  22321820.0804   22321815.9044
 04  7 28  3 59  0.0020000  0  8G 7G 8G11G27G28G31G26G29
  -3375312.37149  -2622924.98446  21548006.4244   21548002.3734
   6266262.17649   4864960.37346  21398459.2914   21398455.0144
   1717579.64148   1334620.64142  24115261.8544   24115257.0964
   9154624.68847   7105514.62443  22947102.4004   22947098.0374
   3567252.00849   2767387.00946  21377050.5884   21377045.3734
   -698525.94149   -537531.27047  20503088.8304   20503083.9164
   -774751.89548   -597064.63344  22515516.2214   22515512.6784
    334403.52049    263869.95545  22327537.8144   22327533.9554
 04  7 28  3 59 30.0020000  0  8G 7G 8G11G27G28G31G26G29
  -3391044.71149  -2635183.94446  21545012.4554   21545008.4124
   6350663.47349   4930727.62046  21414520.3854   21414516.2604
   1758659.19948   1366630.66742  24123079.4714   24123073.8074
   9265098.37947   7191598.03243  22968125.1114   22968120.5184
   3614706.46149   2804364.51546  21386080.8694   21386075.6314
   -676434.63349   -520317.26347  20507292.3544   20507287.5844
   -754866.55548   -581569.54644  22519300.6434   22519296.4944
    365028.41049    287733.51344  22333365.5724   22333361.9824
 04  7 28  4  0  0.0020000  0  8G 7G 8G11G27G28G31G26G29
  -3406338.05549  -2647100.82046  21542102.2834   21542098.1044
   6435484.99249   4996822.31146  21430661.4004   21430657.3694
   1800252.28948   1399040.90042  24130993.9164   24130989.2054
   9375900.89548   7277937.67343  22989209.6974   22989205.6864
   3662364.71949   2841500.82046  21395149.8384   21395144.7954
   -653730.51649   -502625.72547  20511612.8854   20511608.0804
   -734377.40248   -565603.95344  22523199.3934   22523195.9904
    396230.08249    312046.51344  22339303.1044   22339299.1744
 04  7 28  4  0 30.0020000  0  8G 7G 8G11G27G28G31G26G29
  -3421190.42249  -2658674.08046  21539276.1664   21539271.6044
   6520727.41849   5063244.98446  21446882.6194   21446878.1784
   1842360.33248   1431852.35842  24139006.6744   24139001.9594
   9487032.98448   7364534.09643  23010357.9794   23010353.3224
   3710227.21549   2878796.28046  21404257.5494   21404252.8574
   -630412.48849   -484455.83547  20516049.9944   20516045.7644
   -713283.02049   -549166.75544  22527213.2054   22527209.7404
    428010.04749    336810.13045  22345350.7604   22345346.5374
 04  7 28  4  1  0.0020000  0  8G 7G 8G11G27G28G31G26G29
  -3435600.38749  -2669902.60946  21536533.7524   21536529.5294
   6606391.24248   5129996.01546  21463183.8854   21463179.6934
   1884984.63748   1465066.11343  24147117.4714   24147112.4674
   9598494.23048   7451387.00443  23031567.9474   23031563.2134
   3758294.06649   2916250.98646  21413404.6974   21413399.6044
   -606479.99649   -465807.13647  20520604.2994   20520599.3964
   -691582.43049   -532257.18644  22531342.7524   22531338.7404
    460368.79349    362024.74644  22351508.3304   22351504.1354
 04  7 28  4  1 30.0020000  0  8G 7G 8G11G27G28G31G26G29
  -3449569.45749  -2680787.58546  21533875.9084   21533871.3964
   6692474.20348   5197073.65646  21479564.8544   21479560.1864
   1928123.17248   1498680.55742  24155326.7294   24155321.2914
   9710281.40248   7538493.90343  23052840.3694   23052835.6544
   3806562.18849   2953862.50646  21422589.9164   21422584.7254
   -581935.76648   -446681.73947  20525274.9714   20525270.2564
   -669277.48048   -514876.70244  22535587.5254   22535583.4674
    493303.89148    387688.47545  22357775.4794   22357771.6664
 04  7 28  4  2  0.0020000  0  8G 7G 8G11G27G28G31G26G29
  -3463096.81249  -2691328.37546  21531301.6504   21531297.3304
   6778976.03148   5264477.68146  21496025.7214   21496021.2324
   1971776.45348   1532696.12142  24163633.8464   24163627.6664
   9822393.93448   7625854.31843  23074175.3544   23074170.6114
   3855031.22749   2991630.59746  21431813.0414   21431807.6194
   -556779.82049   -427079.68947  20530061.9474   20530057.5414
   -646367.85248   -497025.03344  22539946.8934   22539942.9904
    526815.24249    413801.22145  22364153.0024   22364148.6974
 04  7 28  4  2 30.0020000  0  8G 7G 8G11G27G28G31G26G29
  -3476180.42649  -2701523.38546  21528811.7214   21528807.7324
   6865897.57848   5332208.75746  21512566.2054   21512562.2014
   2015946.08648   1567114.00342  24172039.3144   24172033.5924
   9934832.34047   7713468.67143  23095571.2134   23095567.1004
   3903701.79749   3029555.71946  21441074.7294   21441069.7564
   -531011.13349   -407000.19747  20534965.4634   20534960.8614
   -622852.13748   -478701.09244  22544421.9864   22544417.8464
    560904.19149    440364.03644  22370639.4864   22370635.1784
 04  7 28  4  3  0.0020000  0  8G 7G 8G11G27G28G31G26G29
  -3488819.93449  -2711372.33146  21526406.2684   21526402.4204
   6953238.43448   5400266.57746  21529186.4554   21529182.4514
   2060632.06348   1601934.24842  24180542.8694   24180537.4714
  10047595.27347   7801335.87943  23117029.0414   23117025.3304
   3952572.93049   3067637.13446  21450374.6894   21450369.5374
   -504630.44949   -386443.81847  20539985.6274   20539981.0684
   -598730.48848   -459904.99044  22549011.8614   22549008.1274
    595569.94149    467376.31845  22377236.2444   22377231.7994
 04  7 28  4  3 30.0020000  0  8G 7G 8G11G27G28G31G26G29
  -3501014.63349  -2720874.68646  21524086.0024   21524081.4674
   7040998.05549   5468650.68746  21545886.7684   21545882.2444
   2105834.59448   1637157.02242  24189144.7684   24189139.3774
  10160681.79347   7889455.24043  23138549.0804   23138544.9714
   4001644.30949   3105874.57846  21459712.5414   21459707.3774
   -477638.04749   -365410.77147  20545122.2994   20545117.4514
   -574002.64548   -440636.52544  22553717.5104   22553713.8384
    630812.57848    494838.13344  22383942.4244   22383938.4394
 04  7 28  4  4  0.0020000  0  8G 7G 8G11G27G28G31G26G29
  -3512760.66448  -2730027.42546  21521850.9324   21521846.5064
   7129179.81349   5537363.75246  21562667.4004   21562662.7714
   2151557.31348   1672785.11042  24197845.2524   24197839.8224
  10274094.52348   7977828.77843  23160130.3384   23160127.1664
   4050918.37548   3144269.97246  21469089.0724   21469083.6664
   -450030.97749   -343898.76447  20550375.8854   20550371.0374
   -548665.17249   -420893.03144  22558539.2444   22558535.1744
    666634.90649    522751.63945  22390759.4864   22390755.2954
 04  7 28  4  4 30.0020000  0  8G 7G 8G11G27G28G31G26G29
  -3524060.21948  -2738832.26246  21519700.3544   21519696.4514
   7217780.53949   5606403.27846  21579527.3144   21579522.8814
   2197797.51248   1708816.43242  24206644.4474   24206639.0104
  10387829.53948   8066453.48743  23181773.4474   23181769.8144
   4100391.71548   3182820.63246  21478503.5804   21478498.3694
   -421812.58249   -321910.39047  20555745.4864   20555740.9794
   -522720.89848   -400676.70744  22563475.9944   22563472.7294
    703034.01649    551114.58145  22397686.1824   22397681.8544
 04  7 28  4  5  0.0020000  0  8G 7G 8G11G27G28G31G26G29
  -3534914.44149  -2747290.08846  21517635.1824   21517630.6624
   7306797.44549   5675767.09946  21596466.6894   21596462.4394
   2244553.76247   1745249.87842  24215541.7444   24215536.2564
  10501884.17648   8155327.24443  23203477.4714   23203473.1624
   4150061.88749   3221524.67846  21487955.5964   21487950.3894
   -392984.94549   -299447.29247  20561231.0024   20561225.9204
   -496171.59447   -379988.91044  22568528.4084   22568524.0214
    740007.75849    579925.29044  22404722.1194   22404717.8544
 04  7 28  4  5 30.0020000  0  8G 7G 8G11G27G28G31G26G29
  -3545318.37149  -2755397.03746  21515655.2444   21515650.7404
   7396235.39849   5745459.00646  21613486.2754   21613481.7014
   2291830.73048   1782089.05342  24224538.5104   24224533.1194
  10616261.89148   8244452.71543  23225242.9004   23225238.5374
   4199932.69549   3260385.04846  21497445.6044   21497440.5884
   -363544.12549   -276506.38947  20566833.5884   20566828.7994
   -469012.74248   -358826.17945  22573696.5414   22573692.3854
    777560.03949    609186.81345  22411867.7914   22411863.5374
 04  7 28  4  6  0.0020000  0  8G 7G 8G11G27G28G31G26G29
  -3555271.69549  -2763152.85746  21513760.7914   21513756.8424
   7486093.82449   5815478.56346  21630585.7364   21630581.5804
   2339627.90247   1819333.61842  24233633.1824   24233628.6434
  10730961.50448   8333829.03543  23247069.2834   23247065.2254
   4250003.34849   3299401.14846  21506973.9324   21506968.2684
   -333490.92649   -253088.31047  20572552.4944   20572547.7684
   -441244.56248   -337188.62345  22578980.6824   22578976.7444
    815690.28949    638898.71444  22419123.7604   22419119.8464
 04  7 28  4  6 30.0020000  0  8G 7G 8G11G27G28G31G26G29
  -3564775.14149  -2770558.13046  21511952.7834   21511948.3654
   7576370.46549   5885824.00446  21647764.9004   21647760.7834
   2387944.39847   1856982.84242  24242828.0104   24242822.7684
  10845980.58648   8423454.28443  23268957.0804   23268953.0024
   4300271.66449   3338571.27446  21516539.5104   21516534.3424
   -302827.27749   -229194.54847  20578387.4714   20578382.9634
   -412868.50848   -315077.40245  22584380.0884   22584376.6234
    854396.98449    669059.77144  22426489.0884   22426485.0214
 04  7 28  4  7  0.0020000  0  8G 7G 8G11G27G28G31G26G29
  -3573830.64149  -2777614.34946  21510229.2214   21510225.0334
   7667062.59449   5956493.19646  21665022.7994   21665019.0804
   2436777.89847   1895034.88342  24252119.8854   24252115.7094
  10961315.84048   8513325.91443  23290904.2834   23290900.0644
   4350734.87949   3377893.26246  21526142.0334   21526136.8814
   -271556.02749   -204827.33347  20584338.2604   20584333.6664
   -383886.84048   -292494.26644  22589895.2914   22589891.8694
    893677.36348    699667.87545  22433964.2524   22433960.2684
 04  7 28  4  7 30.0020000  0  8G 7G 8G11G27G28G31G26G29
  -3582436.75048  -2784320.39446  21508591.6434   21508586.9634
   7758170.73048   6027486.55446  21682360.0494   21682355.8034
   2486129.15246   1933490.45742  24261511.8614   24261506.7134
  11076967.03148   8603443.71043  23312911.6584   23312908.2254
   4401393.23448   3417367.32446  21535782.5724   21535777.1274
   -239676.93749   -179986.48447  20590404.5334   20590400.0844
   -354298.98048   -269438.77945  22595525.3074   22595521.9394
    933531.57449    730723.10045  22441548.1664   22441544.1824
 04  7 28  4  8  0.0020000  0  8G 7G 8G11G27G28G31G26G29
  -3590592.78948  -2790675.73246  21507039.4794   21507035.1434
   7849694.78948   6098804.00446  21699776.3774   21699772.4674
   2535998.59046   1972349.74642  24271001.7684   24270996.1504
  11192933.55148   8693807.21743  23334979.4634   23334975.9434
   4452246.32448   3456993.11246  21545459.1194   21545453.7644
   -207190.29749   -154672.20347  20596586.6664   20596581.8774
   -324104.66848   -245910.75044  22601271.4864   22601267.3544
    973959.38749    762225.30645  22449241.4474   22449237.1864
 04  7 28  4  8 30.0020000  0  8G 7G 8G11G27G28G31G26G29
  -3598298.72748  -2796680.34946  21505573.3224   21505568.9904
   7941633.89148   6170444.86546  21717271.9864   21717267.6934
   2586385.77347   2011612.48142  24280589.6584   24280584.6114
  11309213.69948   8784415.14643  23357106.6194   23357102.7484
   4503293.13348   3496769.86446  21555173.2834   21555167.8224
   -174097.25449   -128885.40647  20602884.0184   20602879.1664
   -293304.63348   -221910.70944  22607132.3854   22607128.8574
   1014959.99649    794173.84544  22457043.5104   22457039.4904
 04  7 28  4  9  0.0020000  0  8G 7G 8G11G27G28G31G26G29
  -3605552.99648  -2802333.02446  21504193.0414   21504188.2324
   8033988.11348   6242409.19646  21734846.3694   21734842.1354
   2637291.88347   2051279.57342  24290276.4324   24290272.1074
  11425807.71148   8875267.62343  23379293.8074   23379290.4474
   4554534.14548   3536697.94146  21564923.9794   21564918.5144
   -140397.21949   -102625.64847  20609296.8464   20609292.1394
   -261897.66448   -197437.73645  22613108.9244   22613105.3144
   1056534.03949    826569.20844  22464954.9324   22464950.3774
 04  7 28  4  9 30.0020000  0  8G 7G 8G11G27G28G31G26G29
  -3612354.53549  -2807632.90846  21502898.4794   21502894.0334
   8126758.28148   6314697.64146  21752500.2604   21752495.8544
   2688717.30547   2091351.30142  24300063.0184   24300057.8894
  11542715.01648   8966364.22643  23401540.6974   23401537.0144
   4605969.50449   3576777.45446  21574711.5804   21574706.7364
   -106090.44949    -75893.08847  20615825.3934   20615820.5724
   -229883.46948   -172491.59645  22619200.9474   22619197.4204
   1098681.49649    859411.38044  22472975.0964   22472970.4004
 04  7 28  4 10  0.0030000  0  8G 7G 8G11G27G28G31G26G29
  -3618703.70349  -2812580.29946  21501690.2414   21501686.0114
   8219946.19149   6387311.59946  21770233.2414   21770229.0734
   2740663.40647   2131828.77742  24309947.4134   24309942.6944
  11659938.02048   9057706.81743  23423847.4134   23423844.0194
   4657599.64549   3617008.74146  21584536.6324   21584531.2534
    -71176.81649    -48687.65047  20622469.0074   20622464.4094
   -197261.76649   -147072.08345  22625408.8194   22625405.4174
   1141402.74649    892700.67244  22481104.6014   22481099.9914
 04  7 28  4 10 30.0030000  0  8G 7G 8G11G27G28G31G26G29
  -3624603.32449  -2817177.39246  21500567.5624   21500563.3354
   8313541.44949   6460242.96946  21788043.6474   21788039.8194
   2793122.76646   2172706.21542  24319930.7964   24319925.6044
  11777464.03548   9149285.52243  23446211.8514   23446209.1404
   4709416.79349   3657385.74646  21594397.0384   21594391.9014
    -35663.17649    -21014.68047  20629227.1474   20629222.4834
   -164038.64149   -121183.91645  22631730.9294   22631727.1754
   1184690.42649    926431.32345  22489341.8584   22489337.6674
 04  7 28  4 11  0.0030000  0  8G 7G 8G11G27G28G31G26G29
  -3630047.84049  -2821419.86346  21499531.4524   21499526.8584
   8407551.77348   6533497.78346  21805933.2804   21805928.9054
   2846102.78546   2213989.31542  24330012.7494   24330008.2264
  11895301.34848   9241106.79843  23468635.6944   23468632.0074
   4761427.75849   3697913.77646  21604294.5694   21604289.5894
       456.42649      7130.47447  20636100.4374   20636095.9294
   -130207.80548    -94822.22045  22638168.8664   22638164.9404
   1228551.04749    960608.45544  22497688.3434   22497684.5074
 04  7 28  4 11 30.0030000  0  8G 7G 8G11G27G28G31G26G29
  -3635037.87949  -2825308.19546  21498581.9444   21498577.4404
   8501976.37549   6607075.39846  21823901.7884   21823897.4644
   2899601.96147   2255676.98742  24340193.5074   24340187.8274
  12013447.63748   9333168.87143  23491118.6324   23491114.7454
   4813630.57049   3738591.31146  21614228.0934   21614223.3194
     37179.81649     35746.11347  20643088.4294   20643083.8274
    -95770.85949    -67988.23145  22644722.1084   22644717.9134
   1272982.65249    995230.49544  22506143.5464   22506139.3044
 04  7 28  4 12  0.0030000  0  8G 7G 8G11G27G28G31G26G29
  -3639571.94949  -2828841.23146  21497719.2804   21497714.7224
   8596814.87949   6680975.52646  21841948.8974   21841944.2694
   2953621.26647   2297769.98542  24350472.6634   24350467.1634
  12131903.21548   9425471.91743  23513659.1474   23513655.9724
   4866026.40249   3779419.22246  21624198.8974   21624193.7294
     74507.80949     64832.87047  20650191.7964   20650187.1984
    -60726.64148    -40681.03745  22651391.1554   22651387.1834
   1317985.90649   1030297.97245  22514707.2884   22514703.0694
 04  7 28  4 12 30.0030000  0  8G 7G 8G11G27G28G31G26G29
  -3643646.84049  -2832016.45046  21496943.4294   21496939.3784
   8692070.46949   6755200.65946  21860075.4134   21860070.8434
   3008163.83247   2340270.69842  24360850.9444   24360846.1514
  12250669.80147   9518017.29743  23536259.6944   23536255.9794
   4918617.19549   3820399.07246  21634206.6164   21634201.4094
    112442.25049     94392.18147  20657410.6084   20657405.9174
    -25072.64848    -12898.69745  22658175.1944   22658171.9174
   1363563.00849   1065812.60244  22523380.4684   22523376.1714
 04  7 28  4 13  0.0030000  0  8G 7G 8G11G27G28G31G26G29
  -3647266.68049  -2834837.09646  21496254.8274   21496250.5934
   8787737.90649   6829746.71746  21878280.3194   21878275.8904
   3063224.99247   2383175.49142  24371329.9834   24371324.7534
  12369741.70747   9610800.57143  23558918.6084   23558914.6364
   4971397.88349   3861526.88646  21644250.1714   21644245.2694
    150977.81349    124419.90047  20664743.6164   20664739.2494
     11186.10948     15354.90344  22665075.1474   22665071.4564
   1409708.74249   1101770.30644  22532161.6164   22532156.8474
 04  7 28  4 13 30.0030000  0  8G 7G 8G11G27G28G31G26G29
  -3650431.77749  -2837303.39746  21495652.4444   21495648.5344
   8883815.60949   6904612.45546  21896563.3904   21896558.6944
   3118803.54746   2426483.40442  24381905.5544   24381900.1674
  12489117.03148   9703820.32743  23581635.4294   23581630.4134
   5024367.52049   3902801.93846  21654330.2024   21654325.2534
    190113.05549    154914.88947  20672191.0304   20672186.0734
     48048.70748     44079.00744  22672089.7494   22672085.8544
   1456421.56649   1138169.91644  22541050.9604   22541046.4444
 04  7 28  4 14  0.0030000  0  8G 7G 8G11G27G28G31G26G29
  -3653137.73049  -2839411.90746  21495137.6404   21495133.3784
   8980307.30949   6979800.79846  21914924.8194   21914920.7494
   3174903.86346   2470197.95742  24392581.9684   24392575.9764
  12608799.02048   9797078.98543  23604409.9684   23604406.1014
   5077529.59449   3944226.93746  21664446.5854   21664441.7104
    229851.27749    185879.75047  20679752.8514   20679748.1514
     85519.02048     73276.67445  22679219.8904   22679216.1244
   1503705.07049   1175014.21044  22550048.7334   22550043.9994
 04  7 28  4 14 30.0030000  0  8G 7G 8G11G27G28G31G26G29
  -3655387.03549  -2841164.60246  21494709.5624   21494705.4134
   9077209.89549   7055309.31846  21933365.0934   21933360.4134
   3231522.63747   2514316.49842  24403355.6794   24403350.5154
  12728783.51647   9890573.42843  23627242.5774   23627238.2924
   5130880.62949   3985799.18746  21674598.9214   21674593.7724
    270188.62149    217311.46047  20687428.6244   20687424.0624
    123593.47348    102945.08244  22686465.2964   22686461.3904
   1551555.73849   1212300.44444  22559154.3044   22559150.0424
 04  7 28  4 15  0.0030000  0  8G 7G 8G11G27G28G31G26G29
  -3657178.57449  -2842560.59746  21494368.3974   21494364.1324
   9174523.05948   7131137.75545  21951882.9054   21951878.6874
   3288660.43046   2558839.47142  24414228.4294   24414223.7844
  12849070.24647   9984303.33642  23650132.0224   23650127.8904
   5184421.20349   4027519.11946  21684787.5384   21684781.9214
    311125.21949    249210.11147  20695218.6554   20695214.1084
    162272.60948    133084.68345  22693825.9524   22693822.0264
   1599973.39849   1250028.51044  22568367.7654   22568363.5424
 04  7 28  4 15 30.0030000  0  8G 7G 8G11G27G28G31G26G29
  -3658515.55949  -2843602.39546  21494114.0624   21494109.7224
   9272242.91849   7207283.10345  21970478.3194   21970473.9874
   3346313.62547   2603764.01742  24425199.6324   24425194.3394
  12969654.64547  10078265.22142  23673078.4764   23673074.5584
   5238147.23049   4069383.57246  21695010.9524   21695005.7654
    352656.58649    281572.22347  20703121.6084   20703117.0654
    201552.59048    163692.48545  22701300.5154   22701297.0694
   1648953.89849   1288195.14144  22577688.4054   22577684.3474
 04  7 28  4 16  0.0030000  0  8G 7G 8G11G27G28G31G26G29
  -3659393.85249  -2844286.76346  21493946.9214   21493942.6124
   9370372.62549   7283747.81046  21989152.1404   21989147.4374
   3404485.67247   2649092.89842  24436269.5694   24436263.8704
  13090539.16847  10172460.94242  23696081.7334   23696078.1444
   5292062.10949   4111395.17346  21705270.3744   21705265.2294
    394785.54749    314399.98547  20711138.6474   20711134.0384
    241436.55947    194770.90445  22708889.9764   22708886.7694
   1698500.21149   1326802.65344  22587116.7104   22587112.6834
 04  7 28  4 16 30.0030000  0  8G 7G 8G11G27G28G31G26G29
  -3659814.35949  -2844614.42146  21493867.2184   21493862.8744
   9468910.83249   7360530.82345  22007903.4524   22007898.7924
   3463175.10546   2694824.96042  24447437.2494   24447431.9214
  13211721.66047  10266888.87342  23719142.1404   23719138.4254
   5346164.05949   4153552.54146  21715566.0304   21715560.9254
    437510.03149    347691.79547  20719269.1874   20719264.4484
    281923.03548    226318.82844  22716594.3124   22716590.7104
   1748610.23848   1365849.44444  22596652.3044   22596648.0424
 04  7 28  4 17  0.0030000  0  8G 7G 8G11G27G28G31G26G29
  -3659775.14549  -2844583.84146  21493874.6474   21493869.9524
   9567858.52049   7437632.92645  22026732.4834   22026727.9134
   3522383.59046   2740961.41542  24458704.5854   24458698.9334
  13333202.79347  10361549.49042  23742259.4054   23742255.3004
   5400454.47749   4195856.77446  21725897.1944   21725892.1874
    480830.76649    381448.23147  20727512.4834   20727507.7724
    323013.07448    258337.04745  22724413.9764   22724409.5464
   1799284.98449   1405336.26344  22606295.3044   22606291.1404
 04  7 28  4 17 30.0030000  0  8G 7G 8G11G27G28G31G26G29
  -3659276.86749  -2844195.56246  21493969.4054   21493965.1674
   9667213.57049   7515052.44346  22045638.6634   22045634.9214
   3582109.99246   2787501.49842  24470070.1634   24470064.5854
  13454980.37547  10456441.12842  23765432.5384   23765428.8194
   5454932.08649   4238306.86946  21736263.5774   21736258.5224
    524746.01249    415667.90247  20735869.3744   20735864.5504
    364705.36348    290824.55044  22732347.5304   22732343.5074
   1850522.64549   1445261.71544  22616045.9524   22616041.3664
 04  7 28  4 18  0.0030000  0  8G 7G 8G11G27G28G31G26G29
  -3658318.08649  -2843448.44846  21494151.6634   21494147.8474
   9766977.29349   7592790.41745  22064623.4444   22064618.9794
   3642354.90646   2834445.57042  24481533.4764   24481528.8704
  13577054.32447  10551563.65943  23788662.8744   23788658.8784
   5509597.49249   4280903.30446  21746666.0854   21746660.9484
    569255.84049    450350.89847  20744339.3124   20744334.5734
    407000.40648    323781.73145  22740395.9374   22740392.1904
   1902323.39549   1485625.94644  22625902.9684   22625899.0584
 04  7 28  4 18 30.0030000  0  8G 7G 8G11G27G28G31G26G29
  -3656902.89849  -2842345.68946  21494420.8974   21494416.7964
   9867144.48449   7670842.76245  22083684.6244   22083680.1594
   3703113.84446   2881790.23742  24493096.0624   24493090.9954
  13699419.28147  10646912.94742  23811947.7334   23811943.6404
   5564446.01649   4323642.42046  21757103.6084   21757098.7964
    614354.94549    485493.05847  20752921.4374   20752916.9524
    449893.39549    357204.83944  22748558.3434   22748553.9994
   1954682.18048   1526425.01044  22635866.2334   22635862.4334
 04  7 28  4 19  0.0030000  0  8G 7G 8G11G27G28G31G26G29
  -3655029.56649  -2840885.95246  21494777.4524   21494773.5344
   9967715.94149   7749210.14746  22102822.7264   22102818.2064
   3764388.02046   2929536.31242  24504756.7334   24504751.6084
  13822075.58647  10742489.31242  23835288.9764   23835284.8154
   5619478.73449   4366525.06446  21767576.3274   21767571.0654
    660043.78149    521094.75947  20761615.5544   20761611.0654
    493385.24648    391094.60944  22756834.3744   22756830.3584
   2007599.47349   1567659.27544  22645936.4764   22645931.8434
 04  7 28  4 19 30.0030000  0  8G 7G 8G11G27G28G31G26G29
  -3652696.01249  -2839067.58046  21495221.6084   21495217.2924
  10068692.93449   7827893.51645  22122038.2024   22122033.6714
   3826178.97346   2977685.09542  24516514.4294   24516509.5424
  13945023.76246  10838293.07442  23858684.9764   23858681.2224
   5674697.24649   4409552.48646  21778083.9524   21778078.8584
    706323.28149    557156.70847  20770422.4444   20770417.8194
    537477.18449    425451.97744  22765225.0224   22765221.0304
   2061076.39549   1609329.60444  22656112.9374   22656108.3514
 04  7 28  4 20  0.0030000  0  9G 7G 8G11G 4G27G28G31G26G29
  -3649905.27349  -2836892.96346  21495752.4374   21495748.4404
  10170071.41849   7906889.73546  22141329.6084   22141325.1904
   3888482.93846   3026233.66442  24528371.0464   24528365.9954
   -122095.73855    -83967.19551  25988040.5074   25988036.2414
  14068259.57047  10934320.99842  23882135.1874   23882131.8314
   5730097.92648   4452721.85346  21788626.3434   21788621.1364
    753189.01649    593675.47647  20779340.6874   20779336.0114
    582165.26648    460273.86844  22773728.6554   22773724.7964
   2115108.64847   1651432.66144  22666394.3974   22666390.4214
 04  7 28  4 20 30.0030000  0  9G 7G 8G11G 4G27G28G31G26G29
  -3646670.55549  -2834372.39546  21496367.8664   21496363.9484
  10271837.70349   7986188.14145  22160695.0774   22160690.8354
   3951286.10547   3075171.20142  24540322.3514   24540316.5504
   -184906.61745   -132910.65641  25976088.0544   25976083.2724
  14191768.31647  11030561.56742  23905638.8824   23905634.8944
   5785666.97348   4496022.42246  21799200.8124   21799195.4794
    800626.66049    630639.87947  20788367.4834   20788363.1754
    627435.66447    495549.51344  22782343.4684   22782339.4994
   2169681.75847   1693957.16144  22676779.4054   22676775.5344
 04  7 28  4 21  0.0030000  0  9G 7G 8G11G 4G27G28G31G26G29
  -3642984.49649  -2831500.12946  21497069.6164   21497065.3784
  10373998.12949   8065793.67745  22180135.5464   22180131.5114
   4014595.24646   3124503.00542  24552369.5304   24552364.0974
   -247858.09445   -181963.72341  25964108.7414   25964103.8354
  14315556.06646  11127019.57343  23929194.6714   23929190.8544
   5841411.30149   4539459.56846  21809808.5464   21809803.3394
    848642.24649    668054.62147  20797504.7334   20797499.7294
    673294.69147    531283.82545  22791069.8584   22791066.0034
   2224801.97348   1736908.00144  22687268.3124   22687264.3004
 04  7 28  4 21 30.0030000  0  9G 7G 8G11G 4G27G28G31G26G29
  -3638840.86749  -2828271.32146  21497858.1554   21497853.8274
  10476558.21949   8145710.63045  22199652.0774   22199647.7224
   4078416.11746   3174233.54442  24564514.2964   24564508.6474
   -310941.32445   -231119.43441  25952104.1944   25952099.8544
  14439627.70746  11223698.73243  23952805.2104   23952801.6754
   5897336.72749   4583037.84046  21820450.6714   21820445.1794
    897240.79349    705923.63047  20806752.8194   20806747.9524
    719747.83248    567481.07945  22799909.9214   22799905.9564
   2280474.60248   1780289.28344  22697862.8274   22697858.4374
 04  7 28  4 22  0.0030000  0  9G 7G 8G11G 4G27G28G31G26G29
  -3634235.94549  -2824683.05446  21498733.9914   21498730.0974
  10579520.58649   8225941.04445  22219245.2654   22219241.3824
   4142752.05547   3224365.43742  24576756.5694   24576751.2024
   -374149.98044   -280372.86741  25940075.2104   25940071.8514
  14563985.47747  11320600.88742  23976469.7184   23976465.7024
   5953446.18449   4626759.49846  21831127.7654   21831122.6634
    946424.68849    744248.75747  20816112.1714   20816107.4604
    766797.93849    604143.51545  22808863.0774   22808859.2224
   2336701.80548   1824102.69144  22708562.1164   22708558.0074
 04  7 28  4 22 30.0030000  0  9G 7G 8G11G 4G27G28G31G26G29
  -3629170.65649  -2820736.06446  21499698.2184   21499693.9724
  10682883.39849   8306483.49145  22238914.5224   22238910.2374
   4207601.18847   3274897.23742  24589097.2414   24589091.4684
   -437482.82044   -329723.08241  25928023.7184   25928020.1674
  14688627.28146  11417724.39542  24000188.2654   24000183.7294
   6009738.46549   4670623.62246  21841839.8904   21841834.6204
    996191.68849    783028.23247  20825582.5154   20825577.3824
    814443.05948    641269.58344  22817929.7334   22817925.6514
   2393481.72748   1868346.79544  22719367.3664   22719362.8044
 04  7 28  4 23  0.0030000  0  9G 7G 8G11G 4G27G28G31G26G29
  -3623643.62149  -2816429.26146  21500749.6874   21500745.7844
  10786647.42649   8387338.58445  22258660.4374   22258656.1714
   4272964.48846   3325829.67742  24601535.3974   24601530.3974
   -500935.60544   -379166.67941  25915949.0464   25915945.0814
  14813552.99246  11515069.09542  24023960.7724   24023956.6554
   6066214.34448   4714630.80246  21852586.9054   21852581.5774
   1046541.87149    822262.15547  20835163.7024   20835159.1474
    862683.66449    678859.67444  22827109.1324   22827105.5154
   2450814.29747   1913021.53344  22730276.8354   22730272.9214
 04  7 28  4 23 30.0030000  0  9G 7G 8G11G 4G27G28G31G26G29
  -3617653.73849  -2811761.81246  21501889.8194   21501885.6984
  10890812.92649   8468506.51145  22278482.0934   22278477.9834
   4338842.56347   3377163.28842  24614071.2414   24614066.1594
   -564505.09444   -428701.31241  25903852.1634   25903847.7494
  14938762.44546  11612634.89042  24047787.2104   24047782.8124
   6122874.74249   4758781.78246  21863368.9834   21863363.8904
   1097475.15249    861950.43047  20844856.1324   20844851.1904
    911520.19949    716914.13344  22836402.8664   22836399.0624
   2508699.69948   1958127.05044  22741292.4444   22741288.3624
 04  7 28  4 24  0.0030000  0  9G 7G 8G11G 4G27G28G31G26G29
  -3611202.00049  -2806734.48046  21503117.7964   21503113.1444
  10995378.02349   8549985.79845  22298380.2724   22298375.7924
   4405233.59847   3428896.54242  24626704.9374   24626699.7924
   -628189.41045   -478325.43041  25891733.9604   25891729.2294
  15064253.32446  11710419.96542  24071667.2804   24071663.0694
   6179718.19549   4803075.38646  21874186.0464   21874180.6164
   1148989.32849    902091.35547  20854658.8514   20854653.9994
    960950.72748    755431.43644  22845808.9914   22845805.1904
   2567135.69549   2003661.59344  22752412.2654   22752408.0114
 04  7 28  4 24 30.0030000  0  9G 7G 8G11G 4G27G28G31G26G29
  -3604288.13749  -2801347.04646  21504433.2264   21504428.7264
  11100342.05149   8631775.95345  22318354.0464   22318350.4054
   4472137.20346   3481029.23742  24639437.5074   24639432.0194
   -691985.87145   -528036.92641  25879594.0304   25879589.5344
  15190024.55546  11808423.55542  24095600.7414   24095596.9794
   6236744.59049   4847511.54146  21885037.7414   21885032.3664
   1201083.17249    942683.96847  20864572.0304   20864567.2844
   1010974.48848    794410.99244  22855328.2414   22855324.2064
   2626121.16049   2049624.29744  22763637.0464   22763632.5154
 04  7 28  4 25  0.0030000  0  9G 7G 8G11G 4G27G28G31G26G29
  -3596915.23849  -2795601.91546  21505836.1404   21505831.8154
  11205701.57849   8713874.28945  22338403.5384   22338399.5384
   4539549.77047   3533558.51442  24652264.9294   24652259.6874
   -755894.92645   -577836.14841  25867432.3434   25867427.8824
  15316071.68046  11906642.09542  24119586.8664   24119583.1874
   6293950.58649   4892087.65446  21895923.7804   21895918.3704
   1253752.45749    983724.97147  20874594.4374   20874589.7374
   1061587.57447    833849.76744  22864959.7884   22864955.4914
   2685651.89848   2096011.90444  22774965.1244   22774960.9954
 04  7 28  4 25 30.0030000  0  9G 7G 8G11G 4G27G28G31G26G29
  -3589082.84449  -2789498.73646  21507326.8514   21507322.6014
  11311456.13749   8796280.43845  22358527.9214   22358523.6444
   4607471.41046   3586484.43742  24665189.8824   24665185.3664
   -819913.20345   -627720.43441  25855249.6714   25855245.6444
  15442393.90646  12005074.98942  24143625.1944   24143620.4954
   6351336.30549   4936803.80646  21906843.6324   21906838.2844
   1306996.32049   1025213.70447  20884726.5624   20884721.6834
   1112789.57049    873747.43244  22874702.8354   22874699.3904
   2745727.13749   2142823.78744  22786397.3514   22786392.8704
 04  7 28  4 26  0.0030000  0  9G 7G 8G11G 4G27G28G31G26G29
  -3580785.68449  -2783033.40146  21508905.6404   21508901.5854
  11417609.76649   8878997.54445  22378728.2104   22378724.5154
   4675906.45347   3639810.47342  24678212.2964   24678207.5424
   -884033.32844   -677684.17241  25843048.4524   25843043.9134
  15568995.18847  12103725.31642  24167716.9374   24167711.8434
   6408906.43449   4981663.65146  21917798.8904   21917793.5734
   1360818.63349   1067153.17747  20894968.5774   20894963.8314
   1164584.56349    914107.17544  22884559.1404   22884555.1834
   2806350.96948   2190063.13544  22797933.1324   22797929.1984
 04  7 28  4 26 30.0030000  0  9G 7G 8G11G 4G27G28G31G26G29
  -3572029.89149  -2776210.70146  21510571.7654   21510567.0624
  11524155.75849   8962020.40245  22399003.0774   22398999.2224
   4744848.24646   3693531.32642  24691331.8514   24691326.8784
   -948258.38744   -727729.52741  25830826.3744   25830821.6284
  15695868.12547  12202587.32742  24191859.6014   24191854.8784
   6466654.75849   5026662.35146  21928788.0544   21928783.0504
   1415212.03948   1109537.65547  20905319.1084   20905314.5544
   1216965.62548    954923.60544  22894527.1244   22894523.0974
   2867515.84048   2237724.07244  22809572.8664   22809568.7694
 04  7 28  4 27  0.0030000  0  9G 7G 8G11G 4G27G28G31G26G29
  -3562812.32049  -2769028.17046  21512325.5854   21512321.3044
  11631096.98849   9045351.22945  22419353.4374   22419349.4524
   4814299.23047   3747648.99242  24704547.8904   24704542.4334
  -1012582.49245   -777852.20541  25818585.8584   25818581.5074
  15823014.48046  12301662.42942  24216054.6324   24216050.1444
   6524584.19949   5071802.18446  21939811.5544   21939806.5424
   1470178.35949   1152368.56047  20915779.1714   20915773.8514
   1269934.98849    996198.42945  22904607.3274   22904602.8314
   2929223.96148   2285808.33644  22821315.3904   22821311.5264
 04  7 28  4 27 30.0030000  0  9G 7G 8G11G 4G27G28G31G26G29
  -3553134.32049  -2761486.85646  21514167.2104   21514162.8624
  11738430.35249   9128987.61645  22439778.2024   22439774.1794
   4884257.45347   3802161.93542  24717860.3434   24717855.2334
  -1077004.52345   -828051.14541  25806326.1944   25806321.7804
  15950431.66847  12400948.55442  24240301.6404   24240297.1204
   6582693.02749   5117081.79146  21950869.5464   21950864.0194
   1525714.79749   1195643.71247  20926347.2104   20926342.4794
   1323490.06349   1037929.66344  22914798.0384   22914794.2964
   2991472.28549   2334313.53544  22833160.7964   22833156.4994
 04  7 28  4 28  0.0030000  0  9G 7G 8G11G 4G27G28G31G26G29
  -3542996.97749  -2753587.61547  21516096.3274   21516092.0074
  11846154.71149   9212928.66145  22460278.0544   22460273.3434
   4954721.41446   3857068.89142  24731269.1244   24731264.0464
  -1141522.56644   -878324.86441  25794049.2024   25794044.8084
  16078117.40647  12500443.92342  24264599.8274   24264595.3944
   6640980.25049   5162500.42046  21961960.9914   21961955.9954
   1581819.14849   1239361.38847  20937023.5304   20937018.9444
   1377629.18449   1080115.99744  22925100.6084   22925096.8624
   3054258.87149   2383238.15344  22845108.8904   22845104.3274
 04  7 28  4 28 30.0030000  0 10G 7G 8G11G 4G 9G27G28G31G26G29
  -3532405.59449  -2745334.58246  21518111.8124   21518107.6474
  11954263.53549   9297169.31445  22480850.1164   22480846.0464
   5025684.89547   3912365.12742  24744773.1014   24744767.9294
  -1206139.23844   -928675.47141  25781753.1084   25781748.7374
   -137519.77855    -94733.96551  25790936.8974   25790933.0774
  16206064.85947  12600143.25342  24288947.2724   24288942.6674
   6699440.07049   5208053.52246  21973085.7964   21973080.6084
   1638484.56349   1283516.26447  20947806.6634   20947801.7694
   1432345.75848   1122752.31044  22935512.6084   22935509.0654
   3117576.77749   2432576.78644  22857158.1794   22857153.6244
 04  7 28  4 29  0.0030000  0 10G 7G 8G11G 4G 9G27G28G31G26G29
  -3521362.18449  -2736729.32346  21520213.3354   21520209.2334
  12062754.16849   9381707.47445  22501495.4054   22501490.8824
   5097145.35546   3968048.61142  24758371.6404   24758366.5934
  -1270853.70345   -979102.33741  25769438.4054   25769434.2374
   -207886.48045   -149565.15741  25777546.7494   25777543.3044
  16334270.93447  12700044.09842  24313343.6164   24313340.3194
   6758070.44549   5253739.54646  21984242.7494   21984237.3864
   1695707.93449   1328105.90947  20958695.7264   20958690.8474
   1487636.99649   1165836.41045  22946034.2654   22946030.2884
   3181423.10949   2482327.16444  22869307.4374   22869303.1474
 04  7 28  4 29 30.0030000  0 10G 7G 8G11G 4G 9G27G28G31G26G29
  -3509865.11749  -2727770.55646  21522401.0624   21522397.0344
  12171627.02349   9466543.45945  22522213.0384   22522208.7064
   5169103.71546   4024120.06342  24772064.5464   24772059.8354
  -1335661.53945  -1029601.96341  25757105.9134   25757101.5304
   -278227.94145   -204376.64141  25764160.1244   25764157.8354
  16462735.99647  12800146.77842  24337789.9444   24337786.7144
   6816872.69549   5299559.47346  21995432.3974   21995426.9134
   1753489.41449   1373130.44647  20969691.2414   20969686.5504
   1543503.50049   1209368.74344  22956665.1244   22956661.0544
   3245798.01248   2532489.42644  22881557.3664   22881553.6594
 04  7 28  4 30  0.0030000  0 10G 7G 8G11G 4G 9G27G28G31G26G29
  -3497910.90649  -2718455.57846  21524676.1634   21524671.6044
  12280885.65249   9551680.04345  22543004.1164   22542999.6904
   5241563.04746   4080581.86642  24785853.5694   24785848.0544
  -1400556.52346  -1080169.39241  25744756.6244   25744752.3544
   -348538.71544   -259164.19541  25750780.9054   25750777.6874
  16591462.26646  12900452.90542  24362285.3744   24362282.3704
   6875850.18849   5345515.97146  22006655.0224   22006650.0344
   1811831.25049   1418591.62047  20980793.4294   20980788.6364
   1599947.66049   1253351.22044  22967406.0464   22967402.0384
   3310703.72749   2583065.33044  22893908.5694   22893904.3624
 04  7 28  4 30 30.0030000  0 10G 7G 8G11G 4G 9G27G28G31G26G29
  -3485496.90249  -2708782.32046  21527038.2654   21527034.0074
  12390531.76649   9637118.56045  22563869.2334   22563864.8864
   5314524.88346   4137435.27242  24799737.6554   24799732.4604
  -1465532.77346  -1130800.16842  25732392.2724   25732388.4954
   -418814.17245   -313924.20741  25737408.5464   25737404.4174
  16720451.07046  13000963.61342  24386831.0224   24386827.6554
   6935005.57449   5391611.08246  22017912.0854   22017906.8004
   1870734.62549   1464490.34347  20992002.6164   20991997.6284
   1656971.02048   1297785.01345  22978257.1874   22978253.2534
   3376141.52048   2634055.82344  22906361.1634   22906356.7294
 04  7 28  4 31  0.0030000  0 10G 7G 8G11G 4G 9G27G28G31G26G29
  -3472619.48849  -2698747.96247  21529488.8434   21529484.5464
  12500568.04749   9722861.12345  22584808.6014   22584803.9374
   5387992.53546   4194682.80942  24813717.8354   24813712.8824
  -1530583.84846  -1181489.32641  25720013.5224   25720010.2494
   -489048.33245   -368652.06641  25724042.7964   25724039.8354
  16849704.94547  13101680.94842  24411427.6554   24411423.4564
   6994342.33649   5437847.52346  22029203.4994   22029198.2964
   1930201.96549   1510828.54647  21003318.5544   21003313.6984
   1714576.42248   1342672.35144  22989219.1714   22989215.3584
   3442113.87948   2685462.85844  22918915.1714   22918910.5654
 04  7 28  4 31 30.0040000  0 10G 7G 8G11G 4G 9G27G28G31G26G29
  -3459280.64849  -2688354.04947  21532026.8794   21532022.8524
  12610994.60549   9808907.79345  22605821.9104   22605817.5044
   5461965.23447   4252323.89442  24827795.0194   24827789.2424
  -1595711.61747  -1232238.19942  25707619.8324   25707616.7664
   -559244.06645   -423349.98941  25710685.5744   25710682.2504
  16979224.37547  13202605.23542  24436075.0354   24436070.2154
   7053859.85249   5484224.81046  22040529.8944   22040524.1054
   1990231.45349   1557604.77647  21014741.7464   21014736.8364
   1772762.25449   1388011.96644  23000291.4494   23000287.6644
   3508619.25448   2737285.22444  22931570.7304   22931566.1524
 04  7 28  4 32  0.0040000  0 10G 7G 8G11G 4G 9G27G28G31G26G29
  -3445481.62149  -2677601.54947  21534653.1054   21534648.5784
  12721803.14849   9895252.11645  22626908.3404   22626903.9344
   5536437.05146   4310353.88642  24841965.9414   24841960.7774
  -1660909.02046  -1283041.39141  25695213.1914   25695209.0744
   -629395.25445   -478013.18741  25697335.3014   25697332.7814
  17108999.27347  13303728.49242  24460770.1764   24460766.1444
   7113553.85949   5530739.62846  22051888.8874   22051883.6914
   2050817.37949   1604814.59147  21026270.8244   21026265.9964
   1831523.24648   1433799.75944  23011473.6134   23011469.7734
   3575651.48848   2789518.14644  22944326.5194   22944322.2694
 04  7 28  4 32 30.0040000  0 10G 7G 8G11G 4G 9G27G28G31G26G29
  -3431224.94949  -2666492.44347  21537366.2304   21537361.5434
  12832993.52349   9981893.96045  22648067.0434   22648062.9304
   5611406.76246   4368771.88242  24856232.1524   24856226.8554
  -1726178.11746  -1333900.38341  25682793.0274   25682787.8554
   -699504.89545   -532643.98841  25683994.4344   25683991.1724
  17239029.65647  13405050.88342  24485514.4344   24485509.4844
   7173423.33248   5577391.17446  22063281.7384   22063276.1804
   2111957.42249   1652456.19147  21037905.4884   21037900.4654
   1890857.11348   1480033.95444  23022764.0274   23022760.4534
   3643208.39148   2842159.89144  22957182.2624   22957178.1564
 04  7 28  4 33  0.0040000  0 10G 7G 8G11G 4G 9G27G28G31G26G29
  -3416511.37549  -2655027.31346  21540165.8014   21540161.6684
  12944564.32449  10068832.24945  22669298.1294   22669293.4574
   5686872.87146   4427576.64142  24870592.7544   24870588.2114
  -1791516.89146  -1384813.65441  25670358.9264   25670354.6374
   -769571.38746   -587241.24842  25670661.4414   25670658.1994
  17369313.56646  13506570.81042  24510305.4264   24510301.4574
   7233467.65249   5624178.96246  22074707.4654   22074702.3244
   2173649.43449   1700527.89347  21049645.2464   21049640.4064
   1950762.29748   1526713.33944  23034163.6604   23034160.0164
   3711288.03948   2895208.97444  22970137.2854   22970133.3794
 04  7 28  4 33 30.0040000  0 10G 7G 8G11G 4G 9G27G28G31G26G29
  -3401335.74249  -2643202.13546  21543053.2384   21543049.2544
  13056520.15249  10156070.56945  22690602.7934   22690598.4374
   5762839.94546   4486771.81642  24885048.4024   24885044.0394
  -1856916.98446  -1435774.70141  25657914.1914   25657909.6724
   -839587.52046   -641799.23742  25657337.5274   25657334.7234
  17499855.06646  13608291.48442  24535146.4184   24535143.0864
   7293691.90248   5671106.96746  22086168.3554   22086162.8014
   2235897.30549   1749032.73346  21061490.5124   21061485.6024
   2011242.86348   1573841.05344  23045673.0274   23045668.7544
   3779894.34448   2948668.43444  22983192.5824   22983188.4884
 04  7 28  4 34  0.0040000  0 10G 7G 8G11G 4G 9G27G28G31G26G29
  -3385704.36349  -2631021.84046  21546028.1604   21546023.7974
  13168854.25049  10243603.61845  22711978.8554   22711974.7854
   5839301.15346   4546351.97242  24899599.2774   24899593.8634
  -1922381.53546  -1486786.01942  25645456.7694   25645451.9924
   -909557.32446   -696321.09442  25644022.5594   25644019.9414
  17630646.56646  13710206.92842  24560035.5354   24560031.5864
   7354089.79349   5718170.25046  22097661.3714   22097655.9574
   2298693.32849   1797964.70747  21073440.0204   21073435.3554
   2072291.44148   1621411.37744  23057290.0354   23057285.9494
   3849019.61748   3002532.30644  22996346.6054   22996342.0904
 04  7 28  4 34 30.0040000  0 10G 7G 8G11G 4G 9G27G28G31G26G29
  -3369611.11749  -2618481.62846  21549090.2624   21549086.1094
  13281571.46149  10331435.21945  22733428.3944   22733424.0084
   5916261.91846   4606321.38042  24914243.8874   24914238.6954
  -1987901.60246  -1537840.63942  25632987.9104   25632984.3984
   -979472.46946   -750800.41742  25630718.3794   25630715.9654
  17761692.89846  13812320.98742  24584972.6054   24584968.7424
   7414667.29749   5765373.50546  22109189.0044   22109183.5434
   2362042.20349   1847327.46547  21085495.2304   21085490.2194
   2133912.78948   1669428.02445  23069016.2154   23069012.6024
   3918668.41048   3056804.08444  23009600.5664   23009596.3054
 04  7 28  4 35  0.0040000  0 10G 7G 8G11G 4G 9G27G28G31G26G29
  -3353062.77349  -2605586.81247  21552239.7774   21552235.3054
  13394664.36749  10419559.56645  22754949.1374   22754944.9964
   5993714.52746   4666674.09842  24928982.7384   24928977.9064
  -2053480.61346  -1588941.14242  25620509.0354   25620505.1644
  -1049337.40646   -805240.54642  25617423.1684   25617420.1214
  17892986.36745  13914627.55542  24609956.9184   24609953.5194
   7475418.02349   5812711.75246  22120749.4344   22120744.0234
   2425935.93449   1897114.80047  21097653.5434   21097648.4964
   2196099.45348   1717885.17245  23080849.8094   23080845.9694
   3988832.72348   3111477.58744  23022952.3404   23022948.4144
 04  7 28  4 35 30.0040000  0 10G 7G 8G11G 4G 9G27G28G31G26G29
  -3336055.02049  -2592333.99947  21555476.1294   21555471.6644
  13508136.46549  10507979.38045  22776542.3794   22776538.1134
   6071662.73046   4727412.98042  24943816.1444   24943810.6954
  -2119111.35947  -1640081.97842  25608020.9264   25608015.2774
  -1119145.55146   -859636.42942  25604139.6524   25604135.8164
  18024529.86346  14017128.96242  24634988.5354   24634985.5394
   7536346.24649   5860188.29845  22132343.7234   22132338.2694
   2490377.49249   1947328.99547  21109916.5204   21109911.8094
   2258854.41449   1766785.15444  23092791.6294   23092787.5904
   4059515.80148   3166555.31844  23036402.6764   23036398.5274
 04  7 28  4 36  0.0040000  0 10G 7G 8G11G 4G 9G27G28G31G26G29
  -3318586.75449  -2578722.37346  21558800.2624   21558795.8484
  13621988.30949  10596695.09445  22798207.4654   22798203.3324
   6150107.07046   4788538.49842  24958743.6524   24958738.3634
  -2184789.20746  -1691259.46542  25595521.4734   25595517.9924
  -1188893.45746   -913985.46342  25590866.5434   25590863.5704
  18156323.35546  14119825.18142  24660068.2384   24660064.3054
   7597453.41449   5907804.27545  22143971.6214   22143966.5314
   2555366.48449   1997969.77947  21122283.3714   21122278.4414
   2322177.64849   1816127.95245  23104841.8244   23104837.8834
   4130717.19149   3222036.92944  23049951.5434   23049947.6174
 04  7 28  4 36 30.0040000  0 10G 7G 8G11G 4G 9G27G28G31G26G29
  -3300662.17649  -2564755.15446  21562211.0984   21562206.8094
  13736214.78549  10685702.74945  22819944.2774   22819939.9414
   6229042.43846   4850046.58642  24973764.0984   24973759.2504
  -2250515.57446  -1742474.76842  25583013.9494   25583010.4454
  -1258582.94146   -968288.90442  25577605.1524   25577602.0084
  18288361.49646  14222712.08242  24685194.7074   24685190.7974
   7658735.23849   5955556.36045  22155633.1134   22155627.8054
   2620897.38749   2049032.82547  21134753.1454   21134748.5164
   2386063.93049   1865909.46345  23116998.9734   23116995.0784
   4202431.32048   3277918.06844  23063598.9884   23063594.7814
 04  7 28  4 37  0.0040000  0 10G 7G 8G11G 4G 9G27G28G31G26G29
  -3282279.64149  -2550431.09146  21565709.1604   21565704.7074
  13850817.21549  10775003.32845  22841752.3094   22841748.4024
   6308469.64546   4911937.94342  24988878.2854   24988873.7034
  -2316285.27346  -1793723.88742  25570498.4184   25570495.1414
  -1328209.94545  -1022543.69842  25564355.5984   25564352.4694
  18420644.91846  14325790.07842  24710367.2934   24710363.3714
   7720193.51649   6003445.93146  22167328.4104   22167322.8634
   2686970.68449   2100518.51447  21147326.3794   21147322.1804
   2450513.81647   1916130.17545  23129263.2074   23129259.4574
   4274658.47748   3334198.97844  23077343.3794   23077338.8594
 04  7 28  4 37 30.0040000  0 10G 7G 8G11G 4G 9G27G28G31G26G29
  -3263443.24649  -2535753.36646  21569293.4964   21569289.1994
  13965789.95349  10864592.48145  22863630.9654   22863625.9884
   6388384.11346   4974208.97342  25004085.5124   25004081.2114
  -2382099.23846  -1845007.48542  25557974.8164   25557971.2814
  -1397776.18445  -1076751.12742  25551117.2854   25551114.3014
  18553168.16447  14429054.94342  24735585.8874   24735581.5514
   7781824.34449   6051469.96746  22179056.4494   22179051.2274
   2753580.66049   2152422.39447  21160002.1214   21159997.6954
   2515522.02049   1966785.92545  23141633.9494   23141630.1444
   4347393.07848   3390875.29744  23091184.0824   23091179.6724
 04  7 28  4 38  0.0040000  0 10G 7G 8G11G 4G 9G27G28G31G26G29
  -3244151.60249  -2520720.91447  21572964.6764   21572960.6724
  14081134.16049  10954471.08144  22885579.9184   22885575.3524
   6468786.56346   5036860.19342  25019385.3714   25019381.0744
  -2447953.07046  -1896322.17442  25545443.1054   25545438.9924
  -1467277.96146  -1130908.32842  25537892.0904   25537888.6764
  18685931.47746  14532506.90142  24760850.0514   24760846.0194
   7843629.16849   6099629.58446  22190817.5124   22190811.9924
   2820727.44949   2204744.56247  21172779.8014   21172775.4804
   2581088.59849   2017876.76444  23154110.6994   23154106.5824
   4420635.07848   3447946.97144  23105121.5274   23105117.2584
 04  7 28  4 38 30.0040000  0 10G 7G 8G11G 4G 9G27G28G31G26G29
  -3224407.39149  -2505335.80146  21576721.8014   21576717.5554
  14196846.69149  11044636.70245  22907599.3164   22907594.9844
   6549673.64545   5099889.11542  25034778.2154   25034773.0984
  -2513846.07446  -1947667.33342  25532904.3014   25532900.3834
  -1536715.54345  -1185015.42142  25524678.1134   25524675.4574
  18818931.16846  14636143.04442  24786158.2544   24786154.7154
   7905605.85549   6147923.11446  22202611.2624   22202605.9104
   2888407.02748   2257481.90647  21185658.8484   21185654.3444
   2647210.16447   2069400.08744  23166693.0904   23166689.3634
   4494380.78548   3505411.18044  23119154.9804   23119150.1684
 04  7 28  4 39  0.0040000  0 10G 7G 8G11G 4G 9G27G28G31G26G29
  -3204207.72349  -2489595.78646  21580565.7624   21580561.1684
  14312929.43449  11135090.77344  22929689.5824   22929684.9414
   6631047.33646   5163297.21842  25050262.7694   25050258.0824
  -2579771.96546  -1999038.06742  25520359.1604   25520355.5514
  -1606083.53945  -1239068.44042  25511477.9184   25511474.7034
  18952168.89146  14739964.60542  24811512.6294   24811509.3054
   7967757.41849   6196352.90146  22214438.5044   22214433.0474
   2956620.85949   2310635.54747  21198639.6764   21198635.1914
   2713888.02748   2121356.87044  23179381.7694   23179377.9224
   4568631.42649   3563268.82444  23133284.2694   23133279.9614
 04  7 28  4 39 30.0040000  0 10G 7G 8G11G 4G 9G27G28G31G26G29
  -3183555.25049  -2473502.94847  21584495.7934   21584491.1484
  14429378.92649  11225830.63944  22951848.7464   22951844.6174
   6712904.30946   5227081.88742  25065839.6444   25065834.4964
  -2645730.16847  -2050434.10842  25507807.6684   25507803.4304
  -1675381.96945  -1293067.11442  25498290.5904   25498287.6724
  19085640.86346  14843968.73042  24836912.0434   24836908.2304
   8030081.58649   6244917.19646  22226298.1994   22226292.7344
   3025364.97749   2364202.38847  21211721.0824   21211716.2344
   2781118.75049   2173744.45044  23192175.6604   23192171.6954
   4643383.01648   3621516.82044  23147509.1134   23147504.8054
 04  7 28  4 40  0.0040000  0 10G 7G 8G11G 4G 9G27G28G31G26G29
  -3162453.55549  -2457060.05847  21588511.2854   21588506.6414
  14546191.25049  11316853.23545  22974077.5434   22974073.5744
   6795240.25046   5291239.79242  25081507.6764   25081503.3094
  -2711720.81647  -2101855.37342  25495250.1134   25495245.5314
  -1744612.03546  -1347012.57742  25485116.5434   25485113.6024
  19219342.33246  14948151.70542  24862354.2934   24862350.9654
   8092574.96149   6293613.34446  22238190.4184   22238185.2464
   3094634.47748   2418178.62247  21224902.4024   21224897.9374
   2848897.53948   2226559.10444  23205073.7544   23205069.2814
   4718630.80948   3680151.47044  23161828.2774   23161823.9264
 04  7 28  4 40 30.0040000  0 10G 7G 8G11G 4G 9G27G28G31G26G29
  -3140898.43049  -2440263.85347  21592613.1994   21592608.6994
  14663369.62949  11408161.05944  22996376.0664   22996371.7234
   6878058.86346   5355773.81742  25097267.4414   25097261.8204
  -2777736.34847  -2153295.99242  25482687.7074   25482683.7154
  -1813766.70345  -1400899.27942  25471957.0594   25471953.5274
  19353276.66446  15052516.10142  24887842.3404   24887838.1294
   8155241.99649   6342444.80746  22250115.4414   22250110.0744
   3164432.23849   2472566.49647  21238184.6914   21238180.1524
   2917227.16448   2279802.96944  23218076.1764   23218072.0274
   4794377.44948   3739174.83644  23176242.3794   23176238.1254
 04  7 28  4 41  0.0040000  0 10G 7G 8G11G 4G 9G27G28G31G26G29
  -3118891.42649  -2423115.53047  21596800.7774   21596796.6844
  14780911.94549  11499752.46845  23018743.7074   23018739.3124
   6961357.55946   5420681.90742  25113119.3554   25113113.2464
  -2843775.14846  -2204754.77342  25470121.0594   25470117.1954
  -1882845.19946  -1454726.67242  25458811.4574   25458808.1604
  19487440.91847  15157059.65042  24913372.0194   24913368.7664
   8218081.53149   6391410.69446  22262073.4734   22262068.2694
   3234755.17649   2527363.59647  21251566.6134   21251562.3754
   2986104.97348   2333474.01044  23231182.6134   23231178.6764
   4870619.71948   3798584.40444  23190750.9884   23190746.7074
 04  7 28  4 41 30.0040000  0 10G 7G 8G11G 4G 9G27G28G31G26G29
  -3096435.58249  -2405617.45446  21601074.1764   21601069.7344
  14898814.20749  11591624.35244  23041179.4184   23041175.0864
   7045132.60946   5485961.14942  25129061.1994   25129055.8914
  -2909836.55146  -2256231.11242  25457550.1214   25457545.8714
  -1951848.06246  -1508495.06642  25445680.1524   25445677.5274
  19621830.96546  15261779.19142  24938945.6374   24938941.9264
   8281090.86749   6440508.88746  22274063.7694   22274058.4574
   3305598.92249   2582566.51147  21265047.8014   21265043.2154
   3055526.82448   2387568.96544  23244393.5594   23244389.2344
   4947353.61348   3858377.04544  23205352.8794   23205348.8984
 04  7 28  4 42  0.0040000  0 10G 7G 8G11G 4G 9G27G28G31G26G29
  -3073529.33249  -2387768.43346  21605432.8714   21605428.6524
  15017077.59449  11683777.64245  23063684.3944   23063680.2584
   7129385.12946   5551612.47642  25145093.9654   25145088.9224
  -2975915.61746  -2307721.35542  25444975.8244   25444971.6684
  -2020770.75446  -1562201.03442  25432565.8554   25432562.1724
  19756447.46547  15366675.18642  24964562.3324   24964558.4654
   8344271.99249   6489740.94146  22286086.7304   22286081.5124
   3376963.76649   2638175.49647  21278627.8954   21278623.0704
   3125493.06348   2442088.11044  23257707.5594   23257703.3444
   5024579.07048   3918552.74044  23220048.0904   23220043.9844
 04  7 28  4 42 30.0040000  0 10G 7G 8G11G 4G 9G27G28G31G26G29
  -3050174.09049  -2369569.52647  21609877.2774   21609872.9804
  15135699.71949  11776210.46945  23086257.2544   23086253.3484
   7214112.74646   5617634.03442  25161216.4654   25161211.6844
  -3042010.31646  -2359223.63842  25432397.8554   25432394.1604
  -2089612.18446  -1615843.66942  25419465.2624   25419461.2974
  19891287.74647  15471745.57742  24990221.9264   24990217.6724
   8407623.85249   6539106.02846  22298142.3244   22298136.8834
   3448846.94949   2694188.36747  21292306.8164   21292302.1094
   3196001.16849   2497029.51144  23271124.8944   23271120.8634
   5102293.30548   3979109.29144  23234836.8944   23234832.4614
 04  7 28  4 43  0.0040000  0 10G 7G 8G11G 4G 9G27G28G31G26G29
  -3026369.05549  -2351020.13247  21614407.3014   21614402.9374
  15254681.08249  11868923.21245  23108898.6604   23108894.2114
   7299315.52346   5684025.82642  25177430.5594   25177425.3914
  -3108116.35246  -2410734.84142  25419818.6444   25419814.1294
  -2158368.98046  -1669420.35642  25406382.0354   25406377.6994
  20026351.87947  15576990.37042  25015923.7854   25015919.0554
   8471147.54349   6588605.01446  22310230.4264   22310224.9694
   3521247.85549   2750604.67147  21306084.3094   21306079.9654
   3267050.62949   2552392.73744  23284645.0354   23284641.5704
   5180495.70348   4040046.23044  23249718.1214   23249713.8364
 04  7 28  4 43 30.0040000  0 10G 7G 8G11G 4G 9G27G28G31G26G29
  -3002118.05949  -2332123.24747  21619021.9414   21619017.6684
  15374016.86349  11961912.13844  23131607.6844   23131603.0744
   7384988.90246   5750784.29642  25193733.6604   25193728.1174
  -3174234.20746  -2462255.19442  25407236.5274   25407231.9184
  -2227042.30546  -1722932.01842  25393312.5044   25393308.9804
  20161634.52746  15682405.35442  25041666.7934   25041662.7974
   8534839.69549   6638235.26446  22322350.4264   22322345.0164
   3594161.33249   2807420.36747  21319959.5514   21319954.8874
   3338636.49649   2608173.94344  23298267.4654   23298263.7304
   5259180.85948   4101359.34344  23264691.6054   23264686.8714
 04  7 28  4 44  0.0040000  0 10G 7G 8G11G 4G 9G27G28G31G26G29
  -2977419.27049  -2312877.43347  21623721.9104   21623717.7854
  15493708.02049  12055177.97344  23154383.7304   23154378.9104
   7471133.73846   5817910.14042  25210125.9734   25210121.0594
  -3240358.19546  -2513780.35342  25394653.6134   25394649.7664
  -2295627.60546  -1776375.04141  25380261.6294   25380257.5044
  20297136.41846  15787991.27242  25067451.8014   25067447.0194
   8598702.61349   6687998.58546  22334503.3554   22334497.9224
   3667587.69949   2864635.71647  21333931.9964   21333927.1454
   3410759.15649   2664373.42244  23311991.7304   23311987.6954
   5338349.25848   4163049.01244  23279756.6764   23279752.2034
 04  7 28  4 44 30.0040000  0 10G 7G 8G11G 4G 9G27G28G31G26G29
  -2952274.60549  -2293284.17646  21628506.8944   21628502.6844
  15613752.19149  12148718.88544  23177227.8324   23177223.3754
   7557747.80546   5885401.64042  25226607.9964   25226603.2154
  -3306487.15646  -2565309.41742  25382069.5044   25382065.2304
  -2364124.08246  -1829748.87642  25367227.4414   25367223.2624
  20432854.73846  15893745.77042  25093278.3014   25093273.4104
   8662734.94949   6737893.91446  22346688.6054   22346682.8944
   3741523.83648   2922248.29047  21348001.6454   21347996.7234
   3483415.53947   2720988.78945  23325817.9574   23325813.6994
   5417997.59448   4225112.66244  23294913.1764   23294909.0624
 04  7 28  4 45  0.0040000  0 10G 7G 8G11G 4G 9G27G28G31G26G29
  -2926683.93049  -2273343.38347  21633376.6844   21633372.2934
  15734148.84449  12242534.45044  23200138.5124   23200133.6764
   7644830.36346   5953258.17042  25243179.2384   25243174.2234
  -3372617.07846  -2616839.18742  25369484.7934   25369481.5864
  -2432528.72746  -1883051.17942  25354210.0434   25354206.6874
  20568788.74246  15999668.35942  25119145.4264   25119140.2934
   8726937.34449   6787921.77046  22358905.5274   22358900.1254
   3815968.48448   2980257.11147  21362167.7544   21362163.1214
   3556604.68047   2778019.29944  23339745.5904   23339740.8754
   5498124.66048   4287549.34344  23310160.8714   23310156.8674
 04  7 28  4 45 30.0040000  0 10G 7G 8G11G 4G 9G27G28G31G26G29
  -2900647.05949  -2253054.91447  21638331.3874   21638326.7424
  15854897.54749  12336624.34844  23223116.1054   23223111.9884
   7732380.72746   6021479.27542  25259839.1444   25259834.3914
  -3438744.14546  -2668366.71942  25356901.5744   25356898.0594
  -2500838.66446  -1936279.65742  25341209.8324   25341207.0314
  20704937.47746  16105758.38142  25145053.6134   25145048.6764
   8791310.24649   6838082.47546  22371155.1914   22371150.1604
   3890920.45349   3038661.24047  21376430.7234   21376425.9224
   3630325.57448   2835464.16744  23353774.1914   23353769.5434
   5578729.18048   4350358.06044  23325499.5194   23325495.2274
 04  7 28  4 46  0.0040000  0 10G 7G 8G11G 4G 9G27G28G31G26G29
  -2874167.62549  -2232421.57547  21643370.4264   21643365.6374
  15975993.75448  12430985.03144  23246160.0664   23246156.1684
   7820394.60247   6090061.52042  25276588.2234   25276583.5984
  -3504868.50046  -2719892.22142  25344318.5434   25344315.0904
  -2569054.62546  -1989434.84242  25328230.2304   25328226.0664
  20841296.14545  16212011.87241  25171002.0434   25170997.0354
   8855850.81349   6888373.83346  22383437.0124   22383431.3914
   3966374.84049   3097456.88647  21390789.3244   21390784.5204
   3704573.16448   2893319.42644  23367902.8324   23367898.5554
   5659805.91848   4413534.74544  23340928.0354   23340923.5984
 04  7 28  4 46 30.0040000  0 10G 7G 8G11G 4G 9G27G28G31G26G29
  -2847244.21149  -2211442.28147  21648493.5044   21648489.4264
  16097438.55949  12525617.35544  23269270.1054   23269266.5274
   7908872.55947   6159005.38442  25293425.2774   25293419.9844
  -3570985.07446  -2771411.58542  25331736.4494   25331732.5864
  -2637172.35946  -2042513.63442  25315267.5904   25315263.6644
  20977865.23046  16318429.25942  25196989.7774   25196985.8124
   8920560.84849   6938797.24646  22395750.8094   22395745.1724
   4042331.57449   3156643.94947  21405243.2624   21405238.9264
   3779347.66048   2951585.29344  23382132.1054   23382128.5194
   5741354.98448   4477079.47944  23356446.1134   23356441.4614
 04  7 28  4 47  0.0040000  0 10G 7G 8G11G 4G 9G27G28G31G26G29
  -2819879.00849  -2190118.73646  21653700.7934   21653696.7734
  16219229.15248  12620519.10744  23292446.5194   23292442.4224
   7997811.64546   6228308.59042  25310349.8634   25310344.3984
  -3637092.25447  -2822923.65342  25319157.1374   25319153.1844
  -2705190.98046  -2095515.03942  25302323.6684   25302320.3164
  21114641.53946  16425008.24542  25223017.1214   25223014.2424
   8985438.89549   6989351.57346  22408096.5904   22408091.2854
   4118787.32048   3216219.86047  21419792.1524   21419787.8984
   3854645.84047   3010259.20945  23396460.9104   23396457.4144
   5823372.73848   4540989.41944  23372053.3164   23372049.4804
 04  7 28  4 47 30.0040000  0 10G 7G 8G11G 4G 9G27G28G31G26G29
  -2792074.97749  -2168453.26046  21658992.0984   21658987.6094
  16341361.30948  12715687.02344  23315687.2934   23315682.6374
   8087208.12147   6297968.22642  25327360.9734   25327356.1844
  -3703189.47746  -2874427.92842  25306579.1994   25306575.7114
  -2773110.98046  -2148439.66342  25289398.8944   25289395.6564
  21251620.98046  16531745.50942  25249084.1524   25249079.8094
   9050482.54349   7040034.93846  22420474.1214   22420468.4884
   4195737.43849   3276180.97947  21434435.5434   21434430.6094
   3930463.18848   3069337.66845  23410888.0744   23410884.4924
   5905854.68448   4605261.06344  23387749.0984   23387745.2114
 04  7 28  4 48  0.0040000  0 10G 7G 8G11G 4G 9G27G28G31G26G29
  -2763828.18449  -2146442.75447  21664367.2624   21664362.7194
  16463838.78948  12811124.00944  23338994.0664   23338989.6134
   8177065.10547   6367986.64342  25344460.2074   25344455.0624
  -3769269.22746  -2925918.67642  25294004.8794   25294000.7624
  -2840925.18446  -2201281.92342  25276494.5514   25276491.0164
  21388806.52346  16638643.29542  25275190.3944   25275186.2734
   9115696.25049   7090850.82546  22432883.8554   22432878.4494
   4273184.81649   3336529.59647  21449173.1134   21449168.2114
   4006802.62549   3128822.95744  23425415.1764   23425411.0864
   5988803.43848   4669896.46844  23403534.1294   23403529.6604
 04  7 28  4 48 30.0040000  0 10G 7G 8G11G 4G 9G27G28G31G26G29
  -2735141.12949  -2124089.20046  21669826.0904   21669821.5744
  16586658.08648  12906827.36544  23362365.5514   23362361.1844
   8267379.43847   6438361.47142  25361646.6294   25361641.8124
  -3835329.92646  -2977394.51342  25281433.9264   25281430.3204
  -2908633.46147  -2254041.50742  25263610.6444   25263607.2114
  21526194.71546  16745699.01842  25301333.9104   25301329.8484
   9181078.03149   7141797.66446  22445325.4734   22445320.4144
   4351125.45749   3397262.57047  21464004.8404   21463999.8914
   4083660.08249   3188711.89444  23440040.2934   23440036.3874
   6072214.85948   4734892.38444  23419406.6604   23419402.2814
 04  7 28  4 49  0.0040000  0 10G 7G 8G11G 4G 9G27G28G31G26G29
  -2706013.79749  -2101392.56747  21675369.1214   21675364.5314
  16709818.85548  13002796.78844  23385801.9734   23385796.9654
   8358150.40246   6509092.09342  25378919.6844   25378914.9454
  -3901368.12946  -3028852.78142  25268867.2234   25268863.3014
  -2976232.71946  -2306716.22242  25250746.5434   25250742.6524
  21663784.62146  16852911.93142  25327516.3714   25327512.9574
   9246628.62949   7192876.05746  22457799.4184   22457794.0664
   4429558.00449   3458378.83246  21478930.1054   21478925.4534
   4161034.55149   3249003.69544  23454764.6054   23454759.8124
   6156087.54348   4800247.72744  23435366.7694   23435362.8094
 04  7 28  4 49 30.0040000  0 10G 7G 8G11G 4G 9G27G28G31G26G29
  -2676448.69149  -2078354.81246  21680994.9414   21680990.4614
  16833317.99648  13099029.87944  23409303.3244   23409298.3324
   8449374.68846   6580175.96442  25396279.2074   25396274.3554
  -3967382.38746  -3080292.43842  25256305.2464   25256300.7664
  -3043722.42646  -2359305.56842  25237903.3404   25237899.8524
  21801572.53946  16960279.10742  25353736.5824   25353733.3674
   9312346.41849   7244084.73746  22470304.9884   22470299.8324
   4508478.64849   3519875.44347  21493948.3404   21493943.3944
   4238921.97749   3309695.19444  23469586.0354   23469581.7504
   6240417.69548   4865959.53144  23451414.3874   23451410.3324
 04  7 28  4 50  0.0040000  0 10G 7G 8G11G 4G 9G27G28G31G26G29
  -2646445.48049  -2054975.68647  21686704.3014   21686699.7304
  16957155.13348  13195526.36144  23432868.7934   23432864.1334
   8541052.08647   6651612.88542  25413724.8944   25413719.2624
  -4033368.88746  -3131710.49942  25243748.4884   25243743.8244
  -3111099.26646  -2411806.98142  25225082.2074   25225078.7934
  21939557.96546  17067800.24442  25379994.6604   25379989.6444
   9378232.19549   7295424.29946  22482842.4104   22482837.5904
   4587886.35949   3581751.58747  21509058.7934   21509054.0234
   4317321.53149   3370785.76844  23484505.0594   23484500.9224
   6325203.90648   4932026.73444  23467548.7694   23467544.7074
 04  7 28  4 50 30.0040000  0 10G 7G 8G11G 4G 9G27G28G31G26G29
  -2616004.93449  -2031255.76647  21692497.0984   21692492.6374
  17081328.73848  13292285.00744  23456498.2934   23456494.2234
   8633180.80546   6723401.55142  25431256.8324   25431251.0824
  -4099324.18746  -3183104.19242  25231197.5274   25231192.9734
  -3178360.92647  -2464218.62742  25212283.0594   25212279.0704
  22077739.07046  17175473.82542  25406288.8634   25406285.0904
   9444285.99249   7346894.79746  22495412.0514   22495407.0514
   4667779.18449   3644005.74246  21524261.9184   21524257.1954
   4396231.30549   3432273.90944  23499520.7154   23499516.9884
   6410444.22348   4998447.72644  23483769.3404   23483765.4144
 04  7 28  4 51  0.0040000  0 10G 7G 8G11G 4G 9G27G28G31G26G29
  -2585129.75049  -2007197.17147  21698372.2384   21698367.4804
  17205835.76248  13389303.47944  23480190.9264   23480186.3054
   8725757.26247   6795539.08942  25448873.1294   25448867.3984
  -4165247.53147  -3234473.00642  25218652.5434   25218648.2424
  -3245507.22346  -2516540.37842  25199505.2624   25199501.9414
  22216112.38346  17283297.13042  25432620.6914   25432616.2664
   9510505.77049   7398494.63046  22508013.3244   22508008.5354
   4748152.93449   3706634.63846  21539556.7464   21539551.8204
   4475647.20348   3494156.44144  23514633.3714   23514629.1214
   6496134.30148   5065219.23144  23500075.8714   23500071.2774
 04  7 28  4 51 30.0040000  0 10G 7G 8G11G 4G 9G27G28G31G26G29
  -2553818.66849  -1982798.92847  21704330.4344   21704326.2234
  17330676.39848  13486581.88144  23503947.8634   23503942.8054
   8818782.10246   6868026.00242  25466574.8244   25466569.7234
  -4231133.62147  -3285812.80242  25206115.0124   25206110.0354
  -3312533.74646  -2568768.78942  25186750.0824   25186746.8874
  22354678.06646  17391270.41442  25458989.6214   25458984.9694
   9576893.45349   7450225.30046  22520646.5274   22520641.3674
   4829007.59849   3769638.27747  21554942.8794   21554938.3674
   4555569.00049   3556433.16144  23529841.9804   23529837.5554
   6582273.78148   5132340.90544  23516467.6294   23516463.5354
 04  7 28  4 52  0.0040000  0 10G 7G 8G11G 4G 9G27G28G31G26G29
  -2522071.24649  -1958060.66646  21710371.9184   21710367.5984
  17455850.73048  13584120.32044  23527767.4884   23527762.7034
   8912254.78947   6940861.85642  25484362.1684   25484357.5354
  -4296978.11346  -3337120.12042  25193585.2934   25193580.5744
  -3379436.95346  -2620901.10742  25174019.2154   25174015.9654
  22493435.57046  17499393.10242  25485393.9184   25485390.5474
   9643450.35249   7502087.82146  22533311.6764   22533306.5864
   4910342.22349   3833015.90547  21570420.2304   21570415.5084
   4635995.94548   3619103.53344  23545146.6054   23545142.0234
   6668861.84048   5199812.13344  23532945.0044   23532940.6334
 04  7 28  4 52 30.0040000  0 10G 7G 8G11G 4G 9G27G28G31G26G29
  -2489888.75449  -1932983.40647  21716495.7544   21716491.8594
  17581356.82048  13681917.28944  23551649.9654   23551645.4024
   9006173.41846   7014045.18942  25502234.4964   25502228.8484
  -4362778.54746  -3388393.20242  25181063.0194   25181059.3914
  -3446215.09446  -2672935.96742  25161311.0124   25161308.3444
  22632382.71547  17607663.57742  25511834.9264   25511831.5084
   9710175.89149   7554081.75946  22546009.4494   22546004.2734
   4992154.15648   3896765.46047  21585988.6134   21585984.1094
   4716925.52747   3682165.54244  23560546.8714   23560542.8124
   6755895.66448   5267630.69344  23549506.8944   23549502.4304
 04  7 28  4 53  0.0050000  0 10G 7G 8G11G 4G 9G27G28G31G26G29
  -2457272.62549  -1907568.22847  21722702.6964   21722698.3024
  17707195.56347  13779973.42644  23575596.6424   23575592.2784
   9100537.92646   7087576.00242  25520190.8604   25520185.2044
  -4428535.62546  -3439632.43942  25168549.9854   25168545.2434
  -3512869.82046  -2724874.65242  25148627.1884   25148624.3534
  22771520.60547  17716082.74842  25538312.1344   25538307.8534
   9777070.55149   7606207.47246  22558739.0634   22558733.7984
   5074442.42249   3960886.18347  21601647.5174   21601642.9034
   4798356.39148   3745618.17044  23576042.5324   23576038.2864
   6843374.19148   5335795.77444  23566153.1574   23566149.3254
 04  7 28  4 53 30.0050000  0 10G 7G 8G11G 4G 9G27G28G31G26G29
  -2424224.25849  -1881816.24347  21728991.6264   21728987.2864
  17833358.90248  13878282.53744  23599604.8134   23599600.5444
   9195342.00447   7161449.32742  25538232.1184   25538226.2514
  -4494240.56646  -3490831.09342  25156047.1034   25156043.1734
  -3579392.78146  -2776710.68642  25135968.4624   25135965.6104
  22910839.91846  17824643.23042  25564823.1574   25564820.0794
   9844131.56649   7658462.80646  22571500.0714   22571495.3844
   5157200.98849   4025373.39047  21617395.9854   21617391.3374
   4880282.80148   3809456.94344  23591632.6034   23591628.8844
   6931290.84448   5404302.28044  23582883.1344   23582879.1654
 04  7 28  4 54  0.0050000  0 10G 7G 8G11G 4G 9G27G28G31G26G29
  -2390745.71949  -1855729.05347  21735362.2124   21735357.8884
  17959847.03548  13976844.71344  23623674.7044   23623670.2204
   9290584.64146   7235664.46342  25556356.2514   25556350.3804
  -4559894.38346  -3541989.86042  25143553.0564   25143550.1734
  -3645785.96946  -2828445.56642  25123333.7904   25123331.1224
  23050341.11346  17933345.42142  25591369.7124   25591365.7984
   9911358.79349   7710847.66446  22584293.1814   22584288.1064
   5240428.04749   4090225.64747  21633233.1424   21633228.8644
   4962702.81648   3873680.33844  23607316.8924   23607312.8174
   7019644.05148   5473148.91544  23599696.5714   23599692.3494
 04  7 28  4 54 30.0050000  0 10G 7G 8G11G 4G 9G27G28G31G26G29
  -2356838.00849  -1829307.46547  21741814.6494   21741810.3884
  18086658.74248  14075659.03644  23647806.2984   23647801.8334
   9386264.14546   7310219.89742  25574562.5954   25574558.1814
  -4625494.41446  -3593106.74442  25131070.4624   25131066.5324
  -3712047.18446  -2880077.63042  25110725.4234   25110722.0674
  23190022.17246  18042187.83342  25617950.0714   25617946.3064
   9978752.02749   7763361.87246  22597117.6884   22597112.5604
   5324121.27049   4155441.14647  21649159.6574   21649155.0914
   5045614.16048   3938286.58244  23623094.3374   23623090.0714
   7108431.09048   5542333.62444  23616592.0094   23616587.6654
 04  7 28  4 55  0.0050000  0 10G 7G 8G11G 4G 9G27G28G31G26G29
  -2322501.25849  -1802551.54746  21748348.5244   21748344.1654
  18213792.97348  14174724.65844  23671999.0404   23671995.1184
   9482379.79746   7385115.29142  25592853.2744   25592847.7864
  -4691036.77046  -3644178.68742  25118597.8134   25118594.1734
  -3778173.31646  -2931604.45542  25098141.9704   25098138.7904
  23329882.33646  18151169.78342  25644564.7284   25644560.3604
  10046312.23049   7816006.19546  22609974.2354   22609968.8644
   5408279.34049   4221018.86546  21665174.6104   21665169.9354
   5129015.52347   4003274.66344  23638964.7744   23638960.6104
   7197650.35248   5611855.12444  23633570.0794   23633565.7864
 04  7 28  4 55 30.0050000  0 10G 7G 8G11G 4G 9G27G28G31G26G29
  -2287738.84449  -1775463.94446  21754963.7354   21754959.3604
  18341245.70748  14274038.48644  23696252.4314   23696248.2744
   9578927.37546   7460347.14242  25611225.8214   25611220.3214
  -4756520.66846  -3695205.10042  25106136.8374   25106132.7474
  -3844164.71146  -2983026.28142  25085583.9074   25085580.8804
  23469917.01647  18260287.70142  25671211.5874   25671207.3644
  10114036.51649   7868778.37346  22622861.4154   22622856.3134
   5492897.36748   4286954.98547  21681276.8534   21681272.0564
   5212901.93047   4068640.70344  23654928.0954   23654923.6574
   7287297.11348   5681709.75544  23650629.1184   23650624.3844
 04  7 28  4 56  0.0050000  0 10G 7G 8G11G 4G 9G27G28G31G26G29
  -2252548.82849  -1748043.14647  21761660.0794   21761655.7704
  18469018.28148  14373601.51944  23720566.6424   23720562.3024
   9675907.70746   7535916.29542  25629680.0794   25629674.1574
  -4821940.26246  -3746181.36142  25093687.4544   25093683.7474
  -3910016.24647  -3034339.09942  25073053.1424   25073049.4274
  23610127.32446  18369542.46142  25697892.9544   25697889.4814
  10181927.74649   7921680.62046  22635781.0954   22635775.5324
   5577976.03149   4353250.05147  21697466.8994   21697462.1734
   5297273.86348   4134385.07244  23670983.9934   23670979.6884
   7377371.67648   5751897.71344  23667769.9234   23667765.7124
 04  7 28  4 56 30.0050000  0 10G 7G 8G11G 4G 9G27G28G31G26G29
  -2216933.93449  -1720291.27347  21768437.3454   21768433.1694
  18597107.23048  14473411.09044  23744941.6034   23744936.8494
   9773317.50045   7611820.03242  25648216.6424   25648210.7984
  -4887294.39546  -3797106.66542  25081251.6884   25081247.4664
  -3975727.39546  -3085542.49142  25060548.7674   25060544.5714
  23750509.88746  18478931.50542  25724606.9464   25724602.5714
  10249984.37949   7974711.77146  22648731.4624   22648726.1884
   5663511.39549   4419900.98547  21713743.4854   21713738.9464
   5382127.46948   4200504.75944  23687130.8134   23687126.7244
   7467869.87548   5822415.79244  23684990.8534   23684986.6574
 04  7 28  4 57  0.0050000  0 10G 7G 8G11G 4G 9G27G28G31G26G29
  -2180891.54749  -1692206.28947  21775296.0324   21775291.7314
  18725515.12948  14573469.18344  23769376.4544   23769372.8804
   9871158.55546   7688059.88942  25666835.0404   25666830.1384
  -4952576.14146  -3847975.52342  25068828.5954   25068823.6774
  -4041292.11746  -3136631.83642  25048072.3684   25048067.9784
  23891066.25046  18588455.95842  25751353.6574   25751350.4584
  10318210.06348   8027874.62945  22661714.5094   22661709.3604
   5749504.75049   4486908.79847  21730107.5324   21730102.8214
   5467464.09448   4267000.84444  23703369.8064   23703365.7634
   7558792.73848   5893264.78644  23702292.8214   23702289.0094
 04  7 28  4 57 30.0050000  0 10G 7G 8G11G 4G 9G27G28G31G26G29
  -2144426.69549  -1663792.11346  21782235.2284   21782230.9744
  18854235.72748  14673770.94644  23793871.2744   23793866.5604
   9969424.60445   7764630.86042  25685534.7594   25685529.0914
  -5017786.53547  -3898788.80942  25056419.6034   25056414.7944
  -4106712.18046  -3187608.44742  25035622.8374   25035619.0204
  24031790.34046  18698111.10542  25778132.7044   25778129.2704
  10386600.21548   8081165.68345  22674728.8134   22674723.0994
   5835949.71549   4554268.51247  21746557.5564   21746552.6654
   5553277.08248   4333868.11144  23719699.3844   23719695.3534
   7650133.63348   5964439.50944  23719674.3844   23719670.1774
 04  7 28  4 58  0.0050000  0 10G 7G 8G11G 4G 9G27G28G31G26G29
  -2107539.36749  -1635048.73647  21789254.7284   21789250.2474
  18983268.90648  14774316.28444  23818425.4624   23818420.8954
  10068115.48045   7841532.80842  25704314.7044   25704309.5444
  -5082921.65247  -3949543.40642  25044024.5634   25044019.7674
  -4171984.04347  -3238469.59242  25023201.7744   25023198.5484
  24172681.59446  18807896.46042  25804943.4074   25804938.9974
  10455156.22348   8134585.93946  22687774.4384   22687768.9974
   5922845.13349   4621979.22846  21763093.2434   21763088.7004
   5639565.28148   4401105.66744  23736119.5634   23736115.5054
   7741891.45348   6035939.10644  23737135.6494   23737130.7204
 04  7 28  4 58 30.0050000  0 10G 7G 8G11G 4G 9G27G28G31G26G29
  -2070229.99649  -1605976.48947  21796354.3924   21796349.9274
  19112613.33248  14875104.14244  23843039.1264   23843035.1814
  10167229.88345   7918764.93142  25723175.3134   25723170.5674
  -5147977.70747  -4000236.43142  25031645.1034   25031640.2904
  -4237105.09846  -3289213.23742  25010809.7204   25010805.9974
  24313738.44946  18917810.86142  25831786.3534   25831782.1304
  10523878.60948   8188135.85446  22700851.7904   22700846.3104
   6010189.22749   4690039.56946  21779714.4234   21779709.5674
   5726326.73848   4468712.00244  23752629.5954   23752625.2044
   7834064.08648   6107761.93043  23754675.7204   23754670.8064
 04  7 28  4 59  0.0050000  0 10G 7G 8G11G 4G 9G27G28G31G26G29
  -2032502.80149  -1576578.67047  21803533.8294   21803529.0754
  19242264.37147  14976130.92644  23867710.7824   23867706.5524
  10266762.75845   7996323.05041  25742115.6654   25742110.5754
  -5212954.77747  -4050867.87542  25019280.2044   25019275.5134
  -4302076.02747  -3339839.84442  24998445.9384   24998443.0674
  24454955.90646  19027850.47542  25858658.6734   25858654.6224
  10592764.09048   8241812.85845  22713960.2904   22713955.2674
   6097976.39549   4758445.15147  21796419.6814   21796414.7784
   5813555.84448   4536682.74044  23769228.8294   23769224.6224
   7926645.63348   6179903.41143  23772293.5794   23772288.6534
 04  7 28  4 59 30.0050000  0 10G 7G 8G11G 4G 9G27G28G31G26G29
  -1994353.39849  -1546851.85947  21810793.2744   21810788.7474
  19372225.85247  15077399.61344  23892441.6104   23892437.4464
  10366717.44945   8074209.73041  25761136.9854   25761131.4234
  -5277844.64147  -4101431.38742  25006932.6494   25006927.6854
  -4366889.20347  -3390343.54942  24986112.7824   24986108.8844
  24596337.40646  19138017.89941  25885562.6424   25885558.4784
  10661818.03948   8295621.12246  22727100.7904   22727095.5634
   6186209.75049   4827198.42047  21813209.9704   21813205.2904
   5901255.67248   4605020.26944  23785917.1494   23785913.2674
   8019639.07048   6252365.81244  23789989.2354   23789985.2744
 04  7 28  5  0  0.0050000  0 10G 7G 8G11G 4G 9G27G28G31G26G29
  -1955784.77349  -1516798.38446  21818132.6494   21818127.6574
  19502493.94148  15178907.20244  23917230.9854   23917226.9314
  10467090.38745   8152422.50942  25780236.6184   25780231.5404
  -5342645.69547  -4151925.68342  24994600.1964   24994596.3924
  -4431544.07047  -3440723.94042  24973808.9544   24973805.1304
  24737879.41446  19248310.35041  25912497.2514   25912492.3884
  10731038.37148   8349559.04545  22740272.9384   22740267.6534
   6274885.12149   4896296.10946  21830084.0244   21830079.5524
   5989421.70348   4673721.07344  23802695.0564   23802691.0994
   8113039.78148   6325145.60643  23807762.5484   23807758.3374
 04  7 28  5  0 30.0050000  0 10G 7G 8G11G 4G 9G27G28G31G26G29
  -1916798.85249  -1486419.73247  21825551.0324   21825546.9584
  19633066.07847  15280651.72343  23942077.7434   23942073.8924
  10567878.65645   8230958.90642  25799416.6264   25799411.2394
  -5407356.03547  -4202349.28742  24982286.9154   24982282.5834
  -4496039.30947  -3490979.91142  24961536.5484   24961532.8174
  24879578.92646  19358725.56241  25939462.1494   25939457.1534
  10800424.42249   8403626.09445  22753476.9384   22753471.6924
   6363999.23849   4965735.67746  21847041.9854   21847037.3534
   6078050.68848   4742782.63544  23819560.1884   23819556.7944
   8206844.44148   6398240.15044  23825612.8374   23825608.8564
 04  7 28  5  1  0.0050000  0 10G 7G 8G11G 4G 9G27G28G31G26G29
  -1877395.70349  -1455715.97747  21833049.4074   21833045.2864
  19763941.50847  15382632.57543  23966982.8534   23966978.2474
  10669081.34045   8309818.18941  25818674.6344   25818668.9704
  -5471971.47347  -4252698.97242  24969991.1034   24969987.0284
  -4560371.53147  -3541108.83842  24949293.4314   24949290.5244
  25021434.94146  19469262.70441  25966456.0954   25966451.4544
  10869976.98049   8457822.88646  22766712.5174   22766706.7674
   6453550.70749   5035516.03946  21864083.0954   21864078.4664
   6167141.27348   4812203.87144  23836513.6494   23836509.5794
   8301051.43048   6471648.19044  23843540.2124   23843535.7004
 04  7 28  5  1 30.0050000  0 10G 7G 8G11G 4G 9G27G28G31G26G29
  -1837575.96949  -1424687.61246  21840626.8924   21840622.4784
  19895119.40648  15484849.12843  23991945.0874   23991940.6694
  10770697.10545   8388999.32441  25838011.5634   25838006.3764
  -5536488.26248  -4302971.77942  24957713.5714   24957710.1884
  -4624537.62547  -3591108.33342  24937083.1344   24937079.8334
  25163446.12945  19579920.74641  25993479.6034   25993475.3764
  10939696.66849   8512149.93245  22779979.4624   22779974.2554
   6543537.85249   5105635.89647  21881207.0954   21881202.6654
   6256691.29348   4881983.11044  23853554.6424   23853550.3064
   8395658.67248   6545368.11844  23861543.5714   23861539.1614
 04  7 28  5  2  0.0050000  0 10G 7G 8G11G 4G 9G27G28G31G26G29
  -1797340.70349  -1393335.44746  21848283.4784   21848278.6304
  20026597.39548  15587299.49943  24016964.3844   24016959.2474
  10872724.07445   8468500.82241  25857426.3134   25857420.8684
  -5600903.59048  -4353165.50542  24945455.9384   24945452.4504
  -4688535.43047  -3640976.69942  24924905.0094   24924901.4114
  25305610.60545  19690698.22441  26020532.3604   26020529.3684
  11009583.50848   8566607.20646  22793278.5014   22793273.2394
   6633958.12549   5176093.24746  21898413.4854   21898408.6224
   6346698.30948   4952118.45744  23870682.5564   23870678.2744
   8490663.47348   6619397.82643  23879622.1654   23879617.9234
 04  7 28  5  2 30.0050000  0 10G 7G 8G11G 4G 9G27G28G31G26G29
  -1756692.86349  -1361661.80546  21856018.4624   21856013.8414
  20158372.82447  15689981.63043  24042040.5794   24042035.6924
  10975158.50445   8548319.95741  25876918.6964   25876913.5954
  -5665215.78948  -4403278.86542  24933217.5954   24933214.3534
  -4752364.48847  -3690713.54642  24912758.4154   24912754.3134
  25447924.56346  19801592.14542  26047614.6184   26047611.1814
  11079635.48448   8621193.15545  22806608.8684   22806603.5604
   6724807.38749   5246884.87747  21915701.2984   21915696.8684
   6437157.96548   5022606.49444  23887896.1264   23887891.8644
   8586061.44948   6693733.91644  23897776.2354   23897771.5404
 04  7 28  5  3  0.0050000  0 10G 7G 8G11G 4G 9G27G28G31G26G29
  -1715632.10549  -1329666.40346  21863831.8684   21863827.6224
  20290445.24647  15792895.23343  24067173.5484   24067168.6034
  11078000.28145   8628456.42241  25896489.9384   25896482.8954
  -5729420.52348  -4453308.54642  24921000.1034   24920996.1574
  -4816020.76247  -3740315.82942  24900645.2674   24900640.8564
  25590387.57446  19912602.35142  26074723.6964   26074720.4934
  11149854.36348   8675909.16545  22819970.8764   22819965.5914
   6816084.81349   5318010.14646  21933070.8684   21933066.4974
   6528069.05948   5093446.30844  23905195.9154   23905191.6104
   8681851.31348   6768375.36043  23916004.1344   23915999.6694
 04  7 28  5  3 30.0050000  0 10G 7G 8G11G 4G 9G27G28G31G26G29
  -1674158.03948  -1297348.94647  21871724.1494   21871719.9034
  20422814.44547  15896040.05443  24092361.9154   24092357.4744
  11181248.22745   8708909.44941  25916137.7124   25916130.4544
  -5793513.06648  -4503250.77342  24908803.5014   24908799.6574
  -4879500.46947  -3789780.45442  24888565.2124   24888561.3534
  25732999.10546  20023728.21142  26101862.7354   26101858.1344
  11220241.43848   8730756.23345  22833365.2594   22833360.3254
   6907789.51649   5389468.35546  21950521.8604   21950517.0994
   6619430.77748   5164637.25744  23922581.5404   23922577.4424
   8778032.09448   6843321.42344  23934306.6264   23934302.0914
 04  7 28  5  4  0.0050000  0 10G 7G 8G11G 4G 9G27G28G31G26G29
  -1632274.96949  -1264712.78247  21879694.3534   21879689.6184
  20555475.62547  15999412.40043  24117606.6034   24117602.4274
  11284897.62945   8789675.26641  25935860.4384   25935854.4814
  -5857493.77348  -4553105.85742  24896628.3994   24896624.2354
  -4942804.32447  -3839108.06142  24876518.6034   24876515.3214
  25875754.25846  20134966.02742  26129027.7434   26129023.4354
  11290793.56348   8785731.91745  22846791.0244   22846785.6924
   6999915.84449   5461255.10746  21968052.8064   21968048.0564
   6711237.33648   5236174.84844  23940052.0094   23940047.5244
   8874597.78148   6918567.42843  23952682.4314   23952678.3254
 04  7 28  5  4 30.0050000  0 10G 7G 8G11G 4G 9G27G28G31G26G29
  -1589983.15248  -1231758.11647  21887742.1574   21887737.6144
  20688427.87547  16103011.56443  24142906.4544   24142901.4384
  11388947.43045   8870753.03941  25955660.1814   25955654.7784
  -5921358.09448  -4602870.22742  24884475.3294   24884471.3804
  -5005928.98447  -3888296.03842  24864506.2284   24864502.8954
  26018651.84846  20246314.76142  26156220.1884   26156215.9384
  11361511.67248   8840836.94846  22860248.1424   22860242.8604
   7092462.40649   5533369.31046  21985663.6734   21985659.3374
   6803487.03149   5308057.72844  23957606.6964   23957602.4624
   8971546.63348   6994111.98943  23971131.3374   23971127.0444
 04  7 28  5  5  0.0050000  0 10G 7G 8G11G 4G 9G27G28G31G26G29
  -1547281.60549  -1198484.16447  21895868.0324   21895863.6494
  20821671.81347  16206837.98943  24168261.8064   24168258.0444
  11493398.00044   8952143.17241  25975535.2284   25975531.2674
  -5985101.08648  -4652540.06142  24872345.6884   24872341.6774
  -5068869.85547  -3937340.78642  24852529.0874   24852525.3884
  26161692.11345  20357774.74441  26183439.7354   26183435.4664
  11432398.03948   8896073.06845  22873737.3214   22873732.0994
   7185428.91049   5605810.73246  22003354.7284   22003350.2354
   6896179.35549   5380285.50944  23975245.3844   23975241.3494
   9068878.05948   7069954.65343  23989652.7044   23989648.3214
 04  7 28  5  5 30.0050000  0 10G 7G 8G11G 4G 9G27G28G31G26G29
  -1504174.83649  -1164894.48347  21904070.5874   21904066.3844
  20955201.63747  16310887.21243  24193671.7354   24193667.9704
  11598243.65645   9033841.12941  25995487.6574   25995483.0994
  -6048722.98448  -4702115.56543  24860238.8924   24860234.8374
  -5131627.64847  -3986242.91342  24840586.9854   24840583.3064
  26304869.83645  20469341.76241  26210685.6494   26210681.4784
  11503449.23048   8951437.61946  22887257.9784   22887252.7434
   7278809.70349   5678574.98546  22021124.7824   22021120.0674
   6989308.46149   5452853.65244  23992967.0244   23992962.9814
   9166586.07848   7146090.78343  24008246.2904   24008241.8954
 04  7 28  5  6  0.0050000  0 10G 7G 8G11G 4G 9G27G28G31G26G29
  -1460661.53549  -1130988.01247  21912351.3684   21912347.2284
  21089018.55547  16415160.14643  24219136.3684   24219132.3804
  11703484.93845   9115847.44141  26015515.0954   26015509.5284
  -6112217.93448  -4751592.09142  24848155.6654   24848152.2244
  -5194197.62547  -4034998.68342  24828680.5014   24828676.4154
  26448185.38745  20581016.21141  26237956.5244   26237953.9194
  11574667.84849   9006932.65345  22900810.3764   22900805.0674
   7372604.70749   5751662.00546  22038973.0954   22038968.4114
   7082874.16448   5525761.98344  24010772.0014   24010767.6304
   9264670.29748   7222520.02644  24026911.1104   24026905.6854
 04  7 28  5  6 30.0050000  0  9G 7G 8G11G 4G 9G28G31G26G29
  -1416743.43049  -1096766.09747  21920708.5324   21920704.2244
  21223120.30948  16519655.01743  24244655.2984   24244650.7824
  11809119.30945   9198159.94041  26035616.1184   26035611.0524
  -6175583.57448  -4800967.91043  24836098.1184   24836094.0284
  -5256577.88747  -4083606.62842  24816809.7284   24816805.4274
  11646053.28149   9062557.67745  22914394.5634   22914389.5244
   7466811.03949   5825069.53046  22056900.0954   22056895.4074
   7176873.23848   5599008.03144  24028659.0794   24028655.1064
   9363127.81648   7299240.16544  24045646.8454   24045642.2704
 04  7 28  5  7  0.0050000  0  9G 7G 8G11G 4G 9G28G31G26G29
  -1372418.82849  -1062227.44447  21929143.2904   21929138.6884
  21357507.81348  16624372.54243  24270228.3294   24270224.1734
  11915147.84045   9280779.64542  26055793.1814   26055786.7434
  -6238813.84448  -4850238.23243  24824065.0954   24824061.8064
  -5318763.10947  -4132062.58342  24804975.6574   24804971.6574
  11717608.32449   9118314.84945  22928010.9784   22928005.8494
   7561429.16849   5898797.94446  22074905.2674   22074900.2394
   7271305.84448   5672591.86344  24046629.6104   24046625.3294
   9461958.40648   7376250.99744  24064453.6814   24064448.9074
 04  7 28  5  7 30.0050000  0  9G 7G 8G11G 4G 9G28G31G26G29
  -1327677.79749  -1027364.30147  21937657.0014   21937652.4504
  21492191.00047  16729320.48243  24295857.5634   24295853.2354
  12021579.28145   9363713.30341  26076045.8294   26076040.0994
  -6301894.15648  -4899391.69342  24812061.4934   24812057.5524
  -5380739.59447  -4180355.85842  24793182.2674   24793178.5754
  11789344.54349   9174213.20845  22941661.8064   22941656.9234
   7656467.94549   5972854.13946  22092990.6884   22092985.8994
   7366180.69548   5746520.34144  24064683.3684   24064679.4584
   9561170.82848   7453559.38743  24083332.7284   24083328.8064
 04  7 28  5  8  0.0050000  0  9G 7G 8G11G 4G 9G28G31G26G29
  -1282528.55949   -992183.07147  21946248.8764   21946244.5794
  21627160.39848  16834491.42543  24321541.3764   24321536.6694
  12128404.86345   9446954.08842  26096374.0174   26096368.7554
  -6364828.73448  -4948431.59442  24800085.8604   24800081.4424
  -5442512.08248  -4228490.24642  24781427.0634   24781423.3104
  11861254.76249   9230247.13845  22955345.9464   22955340.9744
   7751917.94549   6047230.75146  22111154.2674   22111149.6814
   7461488.07448   5820785.82744  24082819.7744   24082815.7864
   9660755.13747   7531157.53943  24102283.0484   24102278.9974
 04  7 28  5  8 30.0050000  0  9G 7G 8G11G 4G 9G28G31G26G29
  -1236977.99249   -956689.12047  21954916.8064   21954912.6614
  21762408.77048  16939879.79643  24347278.3924   24347273.8104
  12235616.78545   9530495.90942  26116776.3064   26116770.1614
  -6427619.73048  -4997359.62143  24788136.6494   24788131.9704
  -5504083.84448  -4276468.15442  24769711.0094   24769707.0914
  11933333.51649   9286412.41245  22969062.0564   22969056.9584
   7847770.85949   6121921.32546  22129394.3994   22129389.7594
   7557219.51248   5895381.76744  24101036.9624   24101032.8804
   9760702.85548   7609038.88343  24121302.7124   24121298.2044
 04  7 28  5  9  0.0050000  0  9G 7G 8G11G 4G 9G28G31G26G29
  -1191028.26649   -920884.13247  21963660.9384   21963656.2164
  21897933.80547  17045483.70943  24373067.5564   24373063.6574
  12343212.13745   9614336.51442  26137250.7904   26137245.0754
  -6490264.88747  -5046174.03243  24776215.7984   24776211.9114
  -5565453.26646  -4324288.39842  24758031.4624   24758028.2124
  12005579.99249   9342708.35445  22982810.3924   22982804.9194
   7944023.62149   6196923.47446  22147710.7824   22147705.9974
   7653371.55148   5970305.42844  24119334.0174   24119330.0204
   9861010.33248   7687200.54843  24140390.6344   24140385.8214
 04  7 28  5  9 30.0050000  0  9G 7G 8G11G 4G 9G28G31G26G29
  -1144680.58649   -884769.05646  21972480.4784   21972475.9854
  22033733.41048  17151301.58343  24398910.1104   24398905.9464
  12451188.77045   9698474.21542  26157797.6424   26157792.7394
  -6552761.38748  -5094872.58343  24764322.6654   24764318.8604
  -5626617.74247  -4371948.96642  24746392.6574   24746389.3884
  12077994.02349   9399134.88445  22996590.3684   22996584.7784
   8040673.60249   6272235.15747  22166102.6104   22166097.9424
   7749941.30548   6045554.59444  24137710.6494   24137706.4624
   9961674.78148   7765640.38943  24159545.9384   24159541.9154
 04  7 28  5 10  0.0050000  0  9G 7G 8G11G 4G 9G28G31G26G29
  -1097937.32049   -848345.73347  21981375.4234   21981370.8334
  22169804.33248  17257330.86843  24424803.4074   24424798.6494
  12559543.52746   9782906.55242  26178417.1344   26178412.0244
  -6615107.00448  -5143453.56743  24752458.8294   24752455.2284
  -5687575.75847  -4419448.64943  24734792.5564   24734789.2944
  12150574.65649   9455691.21845  23010401.8214   23010396.5484
   8137717.32449   6347853.63346  22184569.3994   22184564.8174
   7846925.07048   6121126.35744  24156166.0874   24156161.6574
  10062692.47347   7844355.46043  24178769.4624   24178764.6734
 04  7 28  5 10 30.0050000  0  9G 7G 8G11G 4G 9G28G31G26G29
  -1050801.99649   -811616.90146  21990345.0794   21990340.6144
  22306143.43447  17363569.11643  24450747.6034   24450743.2354
  12668272.41446   9867630.45342  26199107.0954   26199101.7594
  -6677300.60548  -5191916.08143  24740623.9314   24740620.0564
  -5748327.02347  -4466787.23243  24723232.5714   24723228.9854
  12223319.93449   9512375.84745  23024244.9384   23024239.3064
   8235150.26649   6423775.39947  22203110.1734   22203105.6454
   7944317.94148   6197016.90244  24174698.8294   24174695.0794
  10164058.20747   7923341.73743  24198058.7674   24198054.0674
 04  7 28  5 11  0.0050000  0  9G 7G 8G11G 4G 9G28G31G26G29
  -1003275.80949   -774583.50447  21999388.9704   21999384.4464
  22442747.96548  17470014.20843  24476742.5714   24476738.4744
  12777372.89546   9952643.89642  26219868.9074   26219863.2984
  -6739339.07848  -5240257.74443  24728818.3374   24728814.9234
  -5808869.16447  -4513962.90042  24711711.3924   24711708.5094
  12296229.66049   9569188.62545  23038119.0404   23038113.5834
   8332969.78949   6499998.40746  22221724.6734   22221719.9974
   8042117.20348   6273224.10444  24193309.9464   24193306.6064
  10265769.12947   8002596.99043  24217413.6034   24217408.9584
 04  7 28  5 11 30.0050000  0  9G 7G 8G11G 4G 9G28G31G26G29
   -955360.45749   -737246.85147  22008506.6734   22008502.3604
  22579616.02747  17576664.62443  24502788.3764   24502783.7864
  12886842.62546  10037945.03342  26240699.6344   26240694.8494
  -6801219.87948  -5288476.52443  24717042.8764   24717039.3844
  -5869200.27347  -4560974.07643  24700230.5404   24700227.3534
  12369303.68449   9626129.42345  23052024.8534   23052019.0524
   8431173.22349   6576520.55646  22240412.2744   22240407.5404
   8140319.58248   6349745.44144  24211997.0794   24211993.3134
  10367822.19947   8082118.87343  24236833.5484   24236829.0674
 04  7 28  5 12  0.0050000  0  9G 7G 8G11G 4G 9G28G31G26G29
   -907058.72349   -699609.13647  22017698.3214   22017693.7394
  22716744.79748  17683518.20643  24528882.7044   24528878.4034
  12996678.07446  10123531.09842  26261600.4234   26261595.5834
  -6862940.94148  -5336570.85743  24705298.1344   24705293.7904
  -5929319.05147  -4607819.80642  24688790.9624   24688786.9194
  12442540.78149   9683197.29445  23065960.9384   23065955.7004
   8529756.65649   6653338.81746  22259171.7354   22259167.3134
   8238920.89848   6426577.66444  24230760.1034   24230756.3064
  10470213.05147   8161903.94443  24256317.8294   24256313.2084
 04  7 28  5 12 30.0050000  0  9G 7G 8G11G 4G 9G28G31G26G29
   -858367.28149   -661667.75647  22026964.0404   22026959.5014
  22854136.33647  17790576.55643  24555026.9154   24555023.2474
  13106881.56345  10209404.03042  26282571.9384   26282566.2204
  -6924494.65648  -5384534.76043  24693584.7594   24693580.4384
  -5989218.55147  -4654494.68943  24677392.1574   24677388.2394
  12515945.22749   9740395.55745  23079929.6264   23079923.9974
   8628721.97749   6730454.64246  22278004.2434   22277999.8334
   8337922.91048   6503722.06744  24249600.0794   24249595.6104
  10572943.32448   8241953.50943  24275866.9704   24275862.2514
 04  7 28  5 13  0.0050000  0  9G 7G 8G11G 4G 9G28G31G26G29
   -809289.53549   -623425.35647  22036303.1574   22036298.8064
  22991787.08647  17897836.89443  24581220.7124   24581217.1264
  13217449.09446  10295560.67042  26303611.7124   26303606.1184
  -6985880.04348  -5432367.51243  24681903.3454   24681898.8684
  -6048898.18048  -4700998.23243  24666035.7904   24666031.5714
  12589515.39149   9797722.96445  23093929.6344   23093924.2044
   8728065.00849   6807864.80846  22296908.7514   22296904.1224
   8437320.92648   6581175.05944  24268514.6184   24268510.5054
  10676008.13747   8322263.74143  24295479.7674   24295475.3884
 04  7 28  5 13 30.0050000  0  9G 7G 8G11G 4G 9G28G31G26G29
   -759829.51649   -584885.08047  22045714.9854   22045710.7314
  23129691.95347  18005295.21543  24607463.3924   24607459.9154
  13328375.39846  10381996.79542  26324720.6104   26324714.7674
  -7047096.41848  -5480068.55543  24670254.7204   24670250.0484
  -6108358.19148  -4747330.63143  24654720.3924   24654716.8294
  12663248.58249   9855177.41045  23107960.5174   23107954.9784
   8827780.34049   6885565.05746  22315883.7674   22315879.7244
   8537109.29348   6658932.22444  24287503.6034   24287499.6064
  10779401.90648   8402830.31043  24315155.1574   24315150.7944
 04  7 28  5 14  0.0060000  0  9G 7G 8G11G 4G 9G28G31G26G29
   -709981.96949   -546042.82847  22055200.7644   22055196.2604
  23267859.24247  18112958.02043  24633755.5454   24633751.7214
  13439667.39846  10468717.92142  26345898.6624   26345893.2444
  -7108137.89848  -5527633.33443  24658638.5374   24658633.7954
  -6167593.12548  -4793487.66343  24643448.6154   24643444.7754
  12737152.32449   9912764.73545  23122023.8264   23122018.4474
   8927873.90249   6963560.04646  22334930.9594   22334926.6824
   8637293.50448   6736997.84844  24306568.4044   24306563.9204
  10883130.32848   8483657.64843  24334893.5684   24334889.6314
 04  7 28  5 14 30.0060000  0  9G 7G 8G11G 4G 9G28G31G26G29
   -659752.44549   -506902.93747  22064759.3654   22064754.7444
  23406277.11748  18220816.09343  24660096.6784   24660090.6504
  13551314.37546  10555715.60242  26367144.2564   26367138.5574
  -7168997.93048  -5575056.73443  24647057.3814   24647052.8384
  -6226597.62148  -4839465.11643  24632220.1784   24632216.2284
  12811220.85249   9970480.47145  23136118.5764   23136112.9674
   9028335.55549   7041841.83946  22354048.3344   22354043.2794
   8737863.06348   6815363.74744  24325705.6864   24325701.8894
  10987182.50047   8564737.26743  24354694.6074   24354690.0574
 04  7 28  5 15  0.0060000  0  9G 7G 8G11G 4G 9G28G31G26G29
   -609137.54349   -467462.75747  22074390.7714   22074386.2604
  23544950.61348  18328873.36543  24686484.8034   24686480.1034
  13663321.17245  10642993.72842  26388458.5614   26388452.4044
  -7229672.36748  -5622335.51043  24635510.9824   24635506.9554
  -6285367.82448  -4885260.01343  24621036.7174   24621032.7684
  12885459.70349  10028328.93145  23150246.0064   23150240.3264
   9129169.21949   7120413.53546  22373236.4754   22373231.6624
   8838821.58648   6894032.72544  24344917.4824   24344913.4674
  11091562.05148   8646071.98443  24374556.7094   24374552.1234
 04  7 28  5 15 30.0060000  0  9G 7G 8G11G 4G 9G28G31G26G29
   -558140.40649   -427724.71747  22084095.1704   22084090.6194
  23683876.35548  18437127.18143  24712921.4984   24712916.8614
  13775683.87546  10730549.15942  26409840.3184   26409834.4864
  -7290160.00448  -5669468.69543  24624000.6704   24623996.9474
  -6343903.03148  -4930871.82643  24609897.9674   24609893.5924
  12959867.21549  10086308.82245  23164405.2954   23164399.6314
   9230370.76249   7199271.88046  22392494.4754   22392489.7014
   8940164.47748   6973001.21644  24364202.8504   24364198.5614
  11196264.46948   8727658.27343  24394481.3814   24394476.6934
 04  7 28  5 16  0.0060000  0  9G 7G 8G11G 4G 9G28G31G26G29
   -506761.37549   -387689.10847  22093872.1154   22093867.4864
  23823053.50448  18545576.89143  24739406.1464   24739400.9824
  13888400.83246  10818380.64142  26431289.4824   26431283.2954
  -7350456.17248  -5716452.71343  24612526.6704   24612523.0184
  -6402199.37548  -4976297.48543  24598804.1074   24598799.7754
  13034444.50849  10144421.00245  23178596.8574   23178591.6504
   9331938.74249   7278415.75946  22411822.2094   22411817.5214
   9041890.02748   7052267.87443  24383560.4674   24383555.9164
  11301287.79348   8809494.61843  24414466.4044   24414462.2524
 04  7 28  5 16 30.0060000  0  9G 7G 8G11G 4G 9G28G31G26G29
   -455003.38349   -347358.19747  22103721.6234   22103717.1704
  23962478.63748  18654219.86743  24765937.6154   24765932.8224
  14001468.51246  10906485.39242  26452805.3504   26452799.9434
  -7410559.37548  -5763286.34843  24601089.5064   24601084.8184
  -6460256.10948  -5021536.43843  24587756.5144   24587752.1034
  13109190.16449  10202664.37945  23192820.4674   23192814.9124
   9433869.20349   7357842.08946  22431219.1004   22431214.3854
   9143993.67648   7131829.15644  24402989.6784   24402985.3574
  11406627.50447   8891577.51743  24434511.8504   24434507.5374
 04  7 28  5 17  0.0060000  0  9G 7G 8G11G 4G 9G28G31G26G29
   -402870.39849   -306735.09947  22113642.1314   22113637.7444
  24102147.44947  18763052.72642  24792515.1934   24792510.7134
  14114882.08246  10994859.67442  26474387.3504   26474381.8384
  -7470469.29348  -5809969.39543  24589688.5764   24589684.0454
  -6518073.47348  -5066588.88943  24576754.1704   24576749.5924
  13184101.61349  10261036.93345  23207075.2644   23207070.0064
   9536156.95349   7437546.82346  22450683.4824   22450679.3734
   9246469.98048   7211680.81244  24422490.3344   24422485.8574
  11512278.21947   8973902.74843  24454616.1784   24454612.1004
 04  7 28  5 17 30.0060000  0  9G 7G 8G11G 4G 9G28G31G26G29
   -350361.87949   -265819.36547  22123634.0144   22123629.8424
  24242059.63748  18872075.19743  24819139.9904   24819135.9514
  14228641.19146  11083503.13142  26496035.1464   26496029.0964
  -7530180.73848  -5856497.77643  24578325.9674   24578322.1194
  -6575646.75048  -5111451.13243  24565798.1784   24565794.2054
  13259181.14848  10319540.47645  23221362.4594   23221356.9984
   9638801.26249   7517529.40046  22470216.0924   22470211.5924
   9349317.84448   7291821.99044  24442062.0374   24442057.6464
  11618238.80147   9056469.42943  24474779.8734   24474775.8424
 04  7 28  5 18  0.0060000  0  9G 7G 8G11G 4G 9G28G31G26G29
   -297475.27049   -224609.00247  22133698.1074   22133693.6624
  24382217.32448  18981288.95043  24845811.5454   24845807.4514
  14342747.99246  11172417.62442  26517748.6624   26517743.4284
  -7589686.60248  -5902865.98543  24567002.5534   24566998.3344
  -6632969.49248  -5156118.16943  24554889.4364   24554885.7834
  13334432.77748  10378178.10745  23235682.6314   23235677.1864
   9741803.89149   7597791.18346  22489816.7794   22489812.3854
   9452538.42648   7372253.62844  24461704.4674   24461700.3614
  11724510.25047   9139278.34843  24495002.9284   24494998.4124
 04  7 28  5 18 30.0060000  0  9G 7G 8G11G 4G 9G28G31G26G29
   -244214.33249   -183106.97347  22143833.4904   22143829.0064
  24522616.72348  19090691.06143  24872528.9204   24872524.1864
  14457197.58246  11261599.21742  26539527.4434   26539521.5064
  -7648985.72348  -5949073.05843  24555718.2794   24555713.9324
  -6690041.48448  -5200589.78243  24544028.4204   24544025.4824
  13409854.27048  10436948.10745  23250034.5924   23250029.4984
   9845159.97349   7678328.39346  22509484.8964   22509480.2404
   9556126.54748   7452971.64244  24481416.3574   24481412.4394
  11831087.29347   9222325.38943  24515283.7714   24515279.5804
 04  7 28  5 19  0.0060000  0  9G 7G 8G11G 4G 9G28G31G26G29
   -190583.21549   -141316.49447  22154038.9594   22154034.6314
  24663252.27748  19200277.20142  24899290.1934   24899285.5924
  14571984.82046  11351043.86442  26561370.9754   26561365.3224
  -7708077.92248  -5995118.90043  24544473.3344   24544469.4514
  -6746862.99648  -5244866.22343  24533216.1934   24533212.5574
  13485442.97748  10495848.40545  23264418.4434   23264413.4004
   9948864.29749   7759136.95346  22529219.1394   22529214.4044
   9660076.57047   7533971.67544  24501197.2954   24501193.0644
  11937964.37147   9305606.21943  24535621.9124   24535617.5104
 04  7 28  5 19 30.0060000  0  9G 7G 8G11G 4G 9G28G31G26G29
   -136583.60249    -99238.87647  22164314.9364   22164310.3114
  24804122.08248  19310045.91142  24926097.2874   24926091.7254
  14687107.31646  11440749.76142  26583278.4514   26583272.3144
  -7766960.37948  -6041001.32443  24533268.7014   24533264.7324
  -6803431.74248  -5288945.71143  24522451.6624   24522447.9004
  13561198.62548  10554878.79145  23278834.4984   23278829.3144
  10052913.99649   7840214.65246  22549019.0144   22549014.7054
   9764385.10948   7615251.05144  24521045.9754   24521042.0534
  12045138.05548   9389118.17943  24556015.7714   24556011.5804
 04  7 28  5 20  0.0060000  0  9G 7G 8G11G 4G 9G28G31G26G29
    -82213.91849    -56872.87747  22174660.9044   22174656.3464
  24945227.59048  19419998.24343  24952948.3264   24952944.0614
  14802565.78945  11530717.44942  26605249.3734   26605243.7484
  -7825626.84848  -6086715.43643  24522104.6934   24522100.4784
  -6859742.24248  -5332823.96243  24511736.3894   24511731.9944
  13637124.33248  10614041.69045  23293282.5764   23293277.3614
  10157309.62948   7921561.89546  22568884.6464   22568880.1894
   9869052.20748   7696809.83444  24540964.0214   24540959.6624
  12152608.39847   9472861.29443  24576467.1394   24576462.8144
 04  7 28  5 20 30.0060000  0  9G 7G 8G11G 4G 9G28G31G26G29
    -27475.71149    -14219.73647  22185077.3344   22185072.8464
  25086565.94548  19530132.02343  24979844.3654   24979840.1624
  14918358.00846  11620945.16941  26627283.8894   26627277.9554
  -7884073.92248  -6132258.61743  24510982.9754   24510977.9044
  -6915791.82048  -5376498.91743  24501070.8344   24501066.8074
  13713220.35248  10673337.28945  23307763.0764   23307757.9204
  10262048.67249   8003176.72946  22588816.1394   22588811.7444
   9974075.09448   7778645.85144  24560949.2254   24560945.1234
  12260372.51247   9556833.34143  24596973.5454   24596970.3074
 04  7 28  5 21  0.0060000  0  9G 7G 8G11G 4G 9G28G31G26G29
     27630.96149     28720.54446  22195563.7874   22195559.4244
  25228137.24648  19640447.31543  25006784.4674   25006780.1864
  15034483.13346  11711432.34741  26649381.3264   26649374.9434
  -7942297.17248  -6177627.34743  24499903.1624   24499898.2284
  -6971576.53548  -5419967.46143  24490454.8424   24490450.8224
  13789488.17248  10732766.77445  23322276.4754   23322271.3034
  10367130.03949   8085058.31246  22608812.4204   22608807.9864
  10079452.05548   7860757.76643  24581001.5614   24580997.8964
  12368428.77347   9641033.01343  24617536.7404   24617532.0184
 04  7 28  5 21 30.0060000  0  9G 7G 8G11G 4G 9G28G31G26G29
     83104.64149     71946.79346  22206120.0374   22206115.5294
  25369939.29747  19750942.41943  25033768.3264   25033764.9864
  15150938.42645  11802176.78841  26671541.3264   26671536.6824
  -8000293.77748  -6222819.49143  24488866.7014   24488861.8614
  -7027094.05548  -5463227.81943  24479890.1394   24479886.0804
  13865927.71948  10792330.05245  23336822.7714   23336817.0924
  10472551.08249   8167204.58246  22628873.2794   22628868.6624
  10185179.91048   7943143.10644  24601121.3964   24601117.1274
  12476773.89148   9725457.79343  24638153.7714   24638149.4044
 04  7 28  5 22  0.0060000  0 10G 7G 8G11G 4G 9G24G28G31G26G29
    138939.16049    115454.21547  22216744.8264   22216740.7914
  25511965.67648  19861612.34443  25060795.9284   25060791.7684
  15267717.41845  11893173.43141  26693764.3654   26693758.4784
  -8058064.87548  -6267835.90643  24477872.8184   24477868.8504
  -7082346.11348  -5506281.33143  24469376.2174   24469371.8654
   -133602.33255    -97658.92751  26702003.6784   26702000.8384
  13942534.70748  10852023.82045  23351400.4204   23351394.6114
  10578304.82449   8249610.09646  22648997.4824   22648993.2324
  10291251.43448   8025796.25243  24621305.9594   24621301.7014
  12585400.45747   9810101.85543  24658824.6784   24658819.8574
 04  7 28  5 22 30.0060000  0 10G 7G 8G11G 4G 9G24G28G31G26G29
    195124.49649    159234.99947  22227436.7714   22227432.3224
  25654204.89848  19972448.06443  25087862.5144   25087858.2174
  15384809.08245  11984413.68542  26716046.8424   26716040.0374
  -8115616.35548  -6312681.19743  24466921.3574   24466917.2094
  -7137339.03948  -5549132.90143  24458911.1004   24458907.5064
   -202087.08645   -151023.65441  26688971.7404   26688968.4554
  14019300.27048  10911841.14845  23366008.2714   23366002.7604
  10684380.02748   8332266.09846  22669182.9514   22669178.4594
  10397654.66848   8108707.84544  24641553.6784   24641549.3964
  12694296.62947   9894955.98543  24679547.0764   24679542.0644
 04  7 28  5 23  0.0060000  0 10G 7G 8G11G 4G 9G24G28G31G26G29
    251662.68449    203290.73547  22238195.7254   22238191.3224
  25796659.43848  20083451.61243  25114970.9824   25114966.0374
  15502214.56345  12075898.52041  26738387.5924   26738381.6314
  -8172940.80148  -6357349.58544  24456012.6004   24456009.0144
  -7192066.45748  -5591777.59643  24448496.8814   24448492.8184
   -270672.95745   -204467.13741  26675920.9284   26675917.0144
  14096228.43049  10971785.16845  23380647.3964   23380641.7524
  10790777.85249   8415173.48246  22689430.0454   22689425.0534
  10504390.31648   8191878.49944  24661864.6704   24661861.0924
  12803463.16848   9980020.84043  24700320.7714   24700316.3504
 04  7 28  5 23 30.0060000  0 10G 7G 8G11G 4G 9G24G28G31G26G29
    308558.55949    247625.18747  22249022.3184   22249018.0024
  25939333.52348  20194626.22942  25142121.0454   25142115.6434
  15619937.71946  12167630.87541  26760789.9984   26760783.2834
  -8230029.12548  -6401833.99043  24445149.4824   24445144.9514
  -7246519.79748  -5634208.70943  24438134.4364   24438131.4164
   -339351.48845   -257982.91941  26662851.9204   26662848.2834
  14173325.59049  11031860.88045  23395318.5374   23395313.0804
  10897502.07449   8498335.22246  22709738.9204   22709734.2794
  10611461.63348   8275310.66844  24682240.1464   24682235.8814
  12912903.21147  10065298.79343  24721146.2174   24721141.9324
 04  7 28  5 24  0.0060000  0 10G 7G 8G11G 4G 9G24G28G31G26G29
    365809.87949    292236.60147  22259917.1314   22259912.6974
  26082224.23848  20305969.62442  25169311.8574   25169307.3934
  15737975.62146  12259608.43041  26783251.6624   26783245.1114
  -8286878.96948  -6446132.54943  24434330.8654   24434327.0684
  -7300697.00848  -5676424.67343  24427825.0534   24427821.0684
   -408120.94145   -311569.40641  26649764.5764   26649761.3534
  14250591.27049  11092067.90145  23410021.5374   23410016.5334
  11004549.40649   8581748.73546  22730109.4204   22730104.7444
  10718864.86347   8359001.52344  24702677.9204   24702673.9754
  13022613.00047  10150786.93243  24742023.5064   24742019.3464
 04  7 28  5 24 30.0060000  0 10G 7G 8G11G 4G 9G24G28G31G26G29
    423418.87149    337126.73746  22270879.8034   22270875.3344
  26225333.03147  20417482.96442  25196544.8894   25196539.9714
  15856329.89845  12351832.58441  26805774.3734   26805767.7914
  -8343483.22348  -6490239.74544  24423560.2644   24423555.2364
  -7354591.84848  -5718420.60443  24417569.1394   24417565.1584
   -476975.19145   -365222.01641  26636662.4904   26636659.1394
  14328029.09449  11152409.08245  23424757.3574   23424752.2254
  11111921.23049   8665415.08946  22750541.4904   22750536.6504
  10826600.70348   8442951.49344  24723179.4044   24723175.7054
  13132593.42647  10236485.97543  24762951.9824   24762948.3774
 04  7 28  5 25  0.0060000  0 10G 7G 8G11G 4G 9G24G28G31G26G29
    481390.28149    382299.26747  22281911.6004   22281906.7874
  26368664.28547  20529169.66542  25223819.5064   25223814.6074
  15975004.17646  12444306.05541  26828356.6154   26828350.3074
  -8399832.43748  -6534148.21343  24412836.8424   24412832.7914
  -7408195.53548  -5760189.67843  24407369.0214   24407364.6314
   -545905.46546   -418933.96741  26623545.5534   26623540.9514
  14405645.52049  11212889.41545  23439527.3424   23439522.1154
  11219621.21149   8749337.15646  22771036.0684   22771031.2684
  10934672.29348   8527163.12044  24743744.5454   24743741.0574
  13242847.59047  10322398.29143  24783932.4364   24783928.7834
 04  7 28  5 25 30.0060000  0 10G 7G 8G11G 4G 9G24G28G31G26G29
    539716.66449    427748.39647  22293010.4044   22293006.1154
  26512210.20348  20641023.61542  25251135.5844   25251130.9824
  16093990.48046  12537022.67141  26850998.4284   26850992.2134
  -8455929.69148  -6577860.33244  24402162.3344   24402158.1934
  -7461511.45748  -5801734.49443  24397222.6704   24397219.1974
   -614915.08645   -472707.62241  26610413.4594   26610409.1354
  14483434.98448  11273504.59445  23454330.2324   23454324.8034
  11327640.94549   8833508.38246  22791591.8264   22791586.9674
  11043071.00048   8611629.65843  24764372.4364   24764368.5024
  13353366.38746  10408516.85343  24804963.8504   24804959.7714
 04  7 28  5 26  0.0060000  0 10G 7G 8G11G 4G 9G24G28G31G26G29
    598396.75849    473473.14447  22304176.9754   22304172.1354
  26655968.74248  20753043.25042  25278491.6074   25278486.9164
  16213286.32045  12629980.44541  26873700.0844   26873694.2684
  -8511771.52348  -6621373.42843  24391535.3034   24391531.2324
  -7514536.92248  -5843052.99343  24387132.5764   24387128.5924
   -684001.27345   -526540.98341  26597266.7404   26597262.7834
  14561397.48048  11334254.59545  23469166.1784   23469160.8144
  11435978.12549   8917926.96546  22812207.6154   22812202.8614
  11151793.73448   8696348.66743  24785061.9284   24785057.6434
  13464147.00048  10494839.38443  24826044.8964   24826040.6234
 04  7 28  5 26 30.0060000  0 10G 7G 8G11G 4G 9G24G28G31G26G29
    657430.35949    519473.35847  22315410.6864   22315406.2564
  26799939.50847  20865228.22242  25305888.3184   25305884.3934
  16332890.85546  12723178.76941  26896460.5294   26896454.2754
  -8567353.41048  -6664683.99743  24380958.7564   24380954.5184
  -7567267.91848  -5884142.04143  24377097.7954   24377093.6624
   -753159.61345   -580430.61241  26584106.2954   26584103.0024
  14639534.79348  11395140.80645  23484035.0064   23484029.8264
  11544631.67249   9002592.05746  22832883.6154   22832878.9754
  11260838.76648   8781318.82043  24805812.2564   24805807.9784
  13575187.91847  10581364.77343  24847174.7794   24847170.5884
 04  7 28  5 27  0.0060000  0 10G 7G 8G11G 4G 9G24G28G31G26G29
    716821.04349    565751.80846  22326712.5064   22326707.7484
  26944125.49647  20977580.95443  25333325.7714   25333322.2214
  16452806.31646  12816619.35841  26919279.5214   26919273.2524
  -8622666.63748  -6707785.17943  24370432.9594   24370428.7014
  -7619696.73448  -5924995.63943  24367121.6314   24367116.8694
   -822382.95345   -634370.77941  26570933.6394   26570929.9984
  14717852.16848  11456167.34345  23498938.5534   23498933.0334
  11653604.23049   9087505.73846  22853620.2714   22853615.8114
  11370208.27748   8866541.79644  24826624.4674   24826619.7914
  13686490.85947  10668094.33742  24868355.3344   24868350.4594
 04  7 28  5 27 30.0060000  0 10G 7G 8G11G 4G 9G24G28G31G26G29
    776566.00049    612306.33646  22338081.1464   22338077.0144
  27088522.95747  21090098.44142  25360803.9594   25360799.7914
  16573029.88745  12910299.95841  26942156.8654   26942150.5964
  -8677710.18448  -6750676.23944  24359958.5214   24359954.0764
  -7671822.05948  -5965612.74543  24357202.3264   24357197.8934
   -891670.06645   -688360.74941  26557749.6314   26557745.7874
  14796348.26648  11517333.13845  23513875.7324   23513870.2054
  11762891.94149   9172664.99346  22874417.4204   22874412.6194
  11479897.91447   8952014.24243  24847498.3114   24847493.7954
  13798051.79747  10755024.92343  24889584.7874   24889580.3734
 04  7 28  5 28  0.0060000  0 10G 7G 8G11G 4G 9G24G28G31G26G29
    836658.32849    659131.52147  22349516.5294   22349512.2914
  27233124.54347  21202774.99142  25388320.2404   25388316.0334
  16693553.73045  13004214.72741  26965091.9284   26965085.2994
  -8732485.67248  -6793358.42744  24349535.2484   24349530.6894
  -7723646.67248  -6005995.51043  24347340.1154   24347335.7834
   -961023.82445   -742402.63041  26544551.1234   26544547.2404
  14875018.07448  11578634.29445  23528846.0214   23528840.7054
  11872487.05949   9258063.78846  22895272.3034   22895267.5884
  11589898.98448   9037729.36443  24868430.1864   24868426.1274
  13909862.25847  10842149.95743  24910861.2484   24910857.1624
 04  7 28  5 28 30.0060000  0 10G 7G 8G11G 4G 9G24G28G31G26G29
    897099.29749    706228.39247  22361018.0214   22361013.6464
  27377931.22747  21315611.38342  25415876.3964   25415871.5184
  16814377.84445  13098363.40241  26988083.4434   26988077.3144
  -8786987.39848  -6835827.30244  24339163.3114   24339159.1434
  -7775165.30148  -6046139.87643  24337536.6004   24337532.0184
  -1030438.76645   -796492.19942  26531342.4514   26531338.3384
  14953864.43448  11640073.01845  23543850.0534   23543844.3034
  11982389.85248   9343702.32646  22916186.1864   22916181.4324
  11700211.60248   9123687.23243  24889422.0924   24889417.9714
  14021921.75047  10929469.02943  24932185.8184   24932181.3934
 04  7 28  5 29  0.0060000  0 10G 7G 8G11G 4G 9G24G28G31G26G29
    957884.62949    753593.58347  22372585.2484   22372580.8504
  27522938.47347  21428604.05542  25443470.7254   25443466.8814
  16935497.33245  13192742.18741  27011132.1234   27011126.1074
  -8841214.85248  -6878082.42643  24328844.2564   24328840.3574
  -7826378.08648  -6086045.88343  24327790.4514   24327786.6004
  -1099914.83245   -850629.33541  26518120.6234   26518117.1744
  15032884.73448  11701647.27645  23558887.2174   23558881.5334
  12092595.05948   9429576.51346  22937157.3814   22937152.7134
  11810829.74647   9209883.21043  24910471.9824   24910468.2014
  14134224.68546  11016977.82743  24953556.4514   24953552.4784
 04  7 28  5 29 30.0060000  0 10G 7G 8G11G 4G 9G24G28G31G26G29
   1019012.43849    801225.64847  22384217.3344   22384212.7604
  27668143.38347  21541750.71642  25471102.2404   25471098.4044
  17056909.60945  13287349.17641  27034235.9044   27034230.7324
  -8895164.94948  -6920121.45744  24318578.2644   24318573.7484
  -7877282.50048  -6125711.64243  24318103.9674   24318099.7684
  -1169449.82445   -904812.42142  26504888.6784   26504885.7834
  15112078.98048  11763357.09245  23573956.8574   23573951.9084
  12203100.02048   9515684.28046  22958185.8734   22958181.0964
  11921750.03548   9296314.60543  24931579.2094   24931575.5494
  14246767.59047  11104673.58143  24974972.5614   24974968.2444
 04  7 28  5 30  0.0060000  0 10G 7G 8G11G 4G 9G24G28G31G26G29
   1080486.19549    849127.27847  22395915.5764   22395910.6234
  27813549.61747  21655054.25842  25498771.7714   25498767.9204
  17178617.41045  13382186.36741  27057396.1314   27057390.7684
  -8948830.03148  -6961938.38144  24308366.1464   24308361.6974
  -7927870.95348  -6165131.18043  24308477.1784   24308473.4044
  -1239036.56645   -959035.80741  26491647.1704   26491643.6114
  15191452.40648  11825206.53445  23589061.4754   23589056.0844
  12313907.28148   9602027.58946  22979271.9514   22979267.1894
  12032974.50448   9382982.99343  24952744.7564   24952740.8114
  14359552.41047  11192557.85943  24996434.8184   24996430.6504
 04  7 28  5 30 30.0060000  0 10G 7G 8G11G 4G 9G24G28G31G26G29
   1142299.01649    897293.11547  22407678.3114   22407673.4754
  27959148.98447  21768508.29242  25526478.6314   25526474.6034
  17300612.63345  13477247.55941  27080611.3894   27080604.8424
  -9002211.88748  -7003534.61544  24298207.7404   24298203.9164
  -7978146.48048  -6204306.87444  24298910.6314   24298906.0924
  -1308677.58645  -1013301.53942  26478394.1394   26478390.8814
  15270999.75848  11887191.47645  23604199.0294   23604193.4244
  12425008.89548   9688600.27946  23000413.6784   23000409.4434
  12144494.52347   9469881.71243  24973966.4904   24973962.6114
  14472570.69946  11280624.03243  25017941.6004   25017937.2484
 04  7 28  5 31  0.0060000  0 10G 7G 8G11G 4G 9G24G28G31G26G29
   1204449.09449    945721.75247  22419504.8814   22419500.5334
  28104939.42247  21882111.26542  25554222.4594   25554217.8464
  17422892.89546  13572530.87941  27103880.2254   27103873.6314
  -9055307.84448  -7044908.07643  24288103.9364   24288098.9324
  -8028106.64148  -6243236.82843  24289403.0844   24289398.6624
  -1378370.35544  -1067607.59341  26465132.0454   26465128.6704
  15350720.85948  11949311.81845  23619369.0844   23619363.8814
  12536402.28548   9775400.32146  23021611.2874   23021606.7524
  12256306.93446   9557008.28443  24995243.8034   24995239.4364
  14585819.18446  11368869.60442  25039492.4824   25039487.4474
 04  7 28  5 31 30.0060000  0  9G 7G 8G 4G 9G24G28G31G26G29
   1266938.45349    994414.75346  22431396.3654   22431391.9044
  28250922.43447  21995864.18642  25582001.7954   25581996.9904
  -9108111.22748  -7086053.56744  24278055.7484   24278051.2484
  -8077745.00048  -6281916.05744  24279957.9364   24279953.2834
  -1448108.59445  -1121949.03142  26451861.6704   26451858.2684
  15430619.49648  12011570.50145  23634573.5534   23634568.0494
  12648088.64548   9862428.64746  23042864.5374   23042859.7054
  12368412.19946   9644363.01843  25016576.3424   25016572.0144
  14699298.43447  11457294.97942  25061086.2404   25061081.6234
 04  7 28  5 32  0.0060000  0  9G 7G 8G 4G 9G24G28G31G26G29
   1329772.64149   1043376.47347  22443353.1154   22443348.5884
  28397103.37147  22109771.43542  25609818.7954   25609814.4324
  -9160611.67248  -7126962.98044  24268064.9044   24268060.9244
  -8127052.01248  -6320337.08443  24270574.7484   24270571.0454
  -1517882.94945  -1176318.62541  26438584.0454   26438580.5184
  15510703.20748  12073973.39545  23649813.0064   23649807.7714
  12760072.48048   9949688.78946  23064174.0684   23064169.4714
  12480814.25047   9731949.02943  25037965.6624   25037961.4754
  14813012.14847  11545903.05742  25082725.0294   25082720.4204
 04  7 28  5 32 30.0060000  0  9G 7G 8G 4G 9G24G28G31G26G29
   1392949.73449   1092605.37547  22455375.1624   22455370.8504
  28543479.32847  22223830.65942  25637673.2954   25637668.4594
  -9212806.23048  -7167634.03444  24258132.9204   24258128.8854
  -8176025.41848  -6358498.14144  24261255.2874   24261251.2954
  -1587690.65246  -1230714.26642  26425300.1934   26425297.1744
  15590971.82448  12136520.38645  23665087.5534   23665082.1704
  12872351.17648  10037178.66746  23085540.1864   23085536.1544
  12593509.67247   9819763.62343  25059411.0684   25059407.0494
  14926957.41447  11634691.59542  25104408.4364   25104404.2364
 04  7 28  5 33  0.0060000  0  9G 7G 8G 4G 9G24G28G31G26G29
   1456468.00049   1142100.12147  22467462.3734   22467457.9864
  28690048.32047  22338040.26042  25665564.4364   25665560.4864
  -9264692.42248  -7208064.81944  24248259.2404   24248255.2094
  -8224662.94548  -6396397.47844  24251999.9824   24251996.0924
  -1657529.61746  -1285134.18742  26412010.3734   26412007.6234
  15671425.00049  12199211.16845  23680397.4124   23680391.9434
  12984921.83649  10124896.06245  23106961.5374   23106957.0964
  12706495.13747   9907804.24143  25080911.5144   25080906.9944
  15041130.41847  11723657.58342  25126134.8264   25126130.7524
 04  7 28  5 33 30.0060000  0  9G 7G 8G 4G 9G24G28G31G26G29
   1520321.70749   1191856.26647  22479613.6314   22479609.1784
  28836804.16047  22452395.41942  25693490.7254   25693487.2404
  -9316270.78148  -7248255.73944  24238444.4754   24238440.2874
  -8272965.93048  -6434036.12544  24242808.0684   24242803.7284
  -1727401.17246  -1339579.55642  26398713.9434   26398710.4904
  15752058.99249  12262042.85145  23695741.8504   23695736.1114
  13097778.18049  10212836.06745  23128437.3184   23128432.7134
  12819763.47747   9996065.27843  25102465.7954   25102461.6004
  15155524.16846  11812795.54942  25147902.9514   25147898.7794
 04  7 28  5 34  0.0060000  0  9G 7G 8G 4G 9G24G28G31G26G29
   1584504.21949   1241868.61847  22491827.0844   22491822.1704
  28983739.26647  22566890.32842  25721452.0534   25721447.9554
  -9367543.68448  -7288208.63144  24228687.2174   24228682.7874
  -8320936.80548  -6471416.01344  24233679.3814   24233675.4824
  -1797307.96946  -1394052.34942  26385411.6314   26385407.5494
  15832869.05549  12325011.73345  23711119.1934   23711113.6824
  13210912.49649  10300992.67345  23149966.3114   23149961.4824
  12933306.37548  10084540.26143  25124072.3814   25124068.0764
  15270130.59447  11902099.24542  25169711.5614   25169707.6704
 04  7 28  5 34 30.0060000  0  9G 7G 8G 4G 9G24G28G31G26G29
   1649017.50849   1292138.70747  22504103.4124   22504099.0254
  29130855.35247  22681526.21742  25749447.7404   25749443.0884
  -9418504.02348  -7327917.98844  24218990.0614   24218985.9084
  -8368569.60548  -6508532.44944  24224614.8424   24224611.0804
  -1867243.43046  -1448547.47542  26372103.1004   26372098.9944
  15913858.80949  12388120.63945  23726530.9674   23726525.6234
  13324326.06349  10389366.89545  23171548.0294   23171543.4244
  13047124.50448  10173229.69743  25145731.3654   25145727.3304
  15384949.91447  11991568.82242  25191561.7794   25191557.0884
 04  7 28  5 35  0.0060000  0  9G 7G 8G 4G 9G24G28G31G26G29
   1713857.35949   1342663.27747  22516441.9674   22516437.6434
  29278148.09047  22796299.76842  25777476.4754   25777471.9824
  -9469151.74648  -7367383.72544  24209351.9594   24209347.8504
  -8415864.39148  -6545385.49944  24215615.2324   24215610.7604
  -1937207.62546  -1503065.06442  26358789.3574   26358785.3504
  15995025.89149  12451367.72945  23741976.7174   23741971.4394
  13438013.75449  10477954.70345  23193181.9674   23193177.0724
  13161211.92248  10262128.98043  25167441.1234   25167437.4714
  15499976.68845  12081200.09142  25213449.8894   25213445.5024
 04  7 28  5 35 30.0070000  0  9G 7G 8G 4G 9G24G28G31G26G29
   1779023.18449   1393441.84247  22528842.4564   22528838.3274
  29425618.57047  22911211.82842  25805539.1284   25805534.4094
  -9519486.33248  -7406605.47044  24199773.4794   24199769.1444
  -8462821.33648  -6581975.28944  24206679.7454   24206675.7884
  -2007201.37146  -1557605.53342  26345470.1284   26345465.5074
  16076371.81349  12514754.14445  23757455.9874   23757450.6404
  13551975.89549  10566756.37745  23214868.6444   23214863.5264
  13275568.32048  10351237.85243  25189202.5814   25189198.2024
  15615210.50447  12170992.68742  25235378.5974   25235374.9054
 04  7 28  5 36  0.0070000  0  9G 7G 8G 4G 9G24G28G31G26G29
   1844511.23049   1444471.48847  22541304.4644   22541300.0614
  29573257.34047  23026255.01642  25833633.0734   25833629.4794
  -9569499.18748  -7445576.49244  24190256.4644   24190251.6444
  -8509432.60248  -6618295.73244  24197809.5424   24197805.3664
  -2077215.40647  -1612161.93942  26332146.7374   26332141.9334
  16157893.95749  12578277.91645  23772969.1984   23772963.7024
  13666204.43449  10655765.62145  23236605.3474   23236600.7374
  13390184.95747  10440549.51643  25211013.3864   25211009.4214
  15730642.47347  12260939.67042  25257344.3624   25257340.7724
 04  7 28  5 36 30.0070000  0  9G 7G 8G 4G 9G24G28G31G26G29
   1910319.09449   1495750.34347  22553827.2924   22553823.0974
  29721063.89147  23141428.97342  25861760.1124   25861755.8904
  -9619191.97749  -7484298.13844  24180800.1514   24180795.7414
  -8555700.01648  -6654348.23644  24189005.5504   24189000.9334
  -2147252.23046  -1666735.98742  26318819.4334   26318814.9254
  16239591.78949  12641938.56945  23788515.7144   23788510.3514
  13780697.93048  10744981.32745  23258392.6984   23258388.4294
  13505059.46547  10530062.12543  25232873.1594   25232869.1014
  15846270.35546  12351039.29742  25279348.1834   25279344.3474
 04  7 28  5 37  0.0070000  0  9G 7G 8G 4G 9G24G28G31G26G29
   1976446.81649   1547278.44147  22566411.0034   22566406.6364
  29869037.88347  23256733.38542  25889919.4334   25889914.5304
  -9668559.87149  -7522766.61844  24171405.5734   24171401.4524
  -8601619.31648  -6690129.47644  24180267.1834   24180262.9094
  -2217307.45346  -1721324.55542  26305488.0424   26305483.9014
  16321467.33649  12705737.68645  23804096.2374   23804090.7964
  13895455.50448  10834402.81445  23280230.5584   23280225.8394
  13620190.50847  10619774.61143  25254782.1364   25254777.3624
  15962092.88347  12441290.61642  25301388.1124   25301383.7224
 04  7 28  5 37 30.0070000  0  9G 7G 8G 4G 9G24G28G31G26G29
   2042893.71149   1599055.24147  22579055.7374   22579051.4484
  30017178.04747  23372167.22542  25918109.1674   25918104.6944
  -9717598.78949  -7560978.74844  24162073.6514   24162069.8514
  -8647187.01248  -6725636.74544  24171595.4794   24171591.5614
  -2287377.71947  -1775924.68042  26292154.6514   26292149.8864
  16403521.84849  12769676.29945  23819710.4724   23819705.0034
  14010475.79348  10924029.00845  23302118.0814   23302113.1324
  13735575.83247  10709685.24443  25276739.8154   25276734.6834
  16078107.87547  12531691.88742  25323465.6044   25323461.3434
 04  7 28  5 38  0.0070000  0  9G 7G 8G 4G 9G24G28G31G26G29
   2109658.01649   1651079.37947  22591760.3624   22591756.2414
  30165482.14846  23487728.83942  25946330.1594   25946325.6794
  -9766306.17248  -7598932.53444  24152805.1364   24152800.7064
  -8692400.46548  -6760867.98744  24162992.1984   24162987.4484
  -2357459.90246  -1830534.19142  26278817.9404   26278814.1204
  16485755.30149  12833754.30245  23835358.9334   23835353.5034
  14125756.23449  11013857.91445  23324055.7764   23324050.4764
  13851212.17647  10799791.49643  25298744.0974   25298739.5614
  16194312.07047  12622240.60242  25345577.9644   25345574.0974
 04  7 28  5 38 30.0070000  0  9G 7G 8G 4G 9G24G28G31G26G29
   2176736.24649   1703348.12247  22604524.8394   22604520.5264
  30313946.01246  23603414.97242  25974581.8704   25974577.8234
  -9814680.52048  -7636626.82444  24143599.8704   24143595.2414
  -8737259.31248  -6795822.91244  24154455.7454   24154451.2884
  -2427553.75847  -1885152.70442  26265479.4484   26265475.6864
  16568165.90249  12897970.35645  23851041.5114   23851035.8434
  14241292.48049  11103886.16445  23346041.2454   23346036.3664
  13967094.42647  10890089.32543  25320795.9564   25320791.9294
  16310700.33247  12712932.77242  25367725.9174   25367721.4954
 04  7 28  5 39  0.0070000  0  9G 7G 8G 4G 9G24G28G31G26G29
   2244131.25449   1755863.71747  22617349.9564   22617345.1014
  30462572.18446  23719227.56042  26002864.5584   26002860.1084
  -9862714.40249  -7674055.81644  24134459.2694   24134455.1284
  -8781756.30948  -6830495.87344  24145988.0894   24145983.9334
  -2497651.96147  -1939774.65742  26252139.8704   26252136.2374
  16650758.35949  12962328.12345  23866758.1514   23866752.3084
  14357086.59449  11194115.33845  23368076.1364   23368071.4174
  14083224.03548  10980579.94043  25342894.2844   25342890.6204
  16427274.05947  12803769.39442  25389909.4254   25389904.4794
 04  7 28  5 39 30.0070000  0  9G 7G 8G 4G 9G24G28G31G26G29
   2311839.43049   1808623.34646  22630234.1754   22630229.9524
  30611356.67646  23835163.49042  26031177.1284   26031172.4054
  -9910406.65249  -7711218.59344  24125383.6124   24125379.3824
  -8825890.97348  -6864886.48144  24137589.5654   24137585.2024
  -2567753.60246  -1994399.25242  26238800.4254   26238796.5424
  16733530.85249  13026826.16144  23882509.3704   23882504.4604
  14473134.20349  11284542.05845  23390158.9484   23390154.6514
  14199595.69148  11071259.16143  25365039.5194   25365035.2924
  16544028.10547  12894746.56542  25412126.4564   25412122.2264
 04  7 28  5 40  0.0070000  0  9G 7G 8G 4G 9G24G28G31G26G29
   2379856.52349   1861623.66447  22643177.4404   22643173.2334
  30760294.62947  23951219.04642  26059519.4014   26059514.6324
  -9957757.02349  -7748114.98044  24116373.5814   24116369.0344
  -8869663.28148  -6898994.76444  24129259.6904   24129255.6404
  -2637858.48047  -2049026.44742  26225459.3944   26225454.5194
  16816481.21949  13091462.81344  23898294.3544   23898288.7764
  14589430.35249  11375162.42945  23412289.6514   23412285.0344
  14316203.56648  11162122.42643  25387229.3944   25387224.8544
  16660956.84047  12985859.87742  25434377.9014   25434372.9254
 04  7 28  5 40 30.0070000  0  9G 7G 8G 4G 9G24G28G31G26G29
   2448183.70749   1914865.62847  22656179.8864   22656175.3514
  30909386.31346  24067394.41042  26087890.8084   26087886.3584
 -10004759.60549  -7784740.36344  24107429.2374   24107424.7844
  -8913068.02748  -6932816.59744  24121000.3864   24120995.9174
  -2707961.44547  -2103652.15042  26212119.7224   26212115.4444
  16899612.13749  13156240.16644  23914113.5114   23914107.8864
  14705975.27049  11465976.64945  23434467.3784   23434462.4404
  14433047.27748  11253169.46543  25409463.5814   25409459.4174
  16778059.73047  13077108.86042  25456661.5264   25456656.9214
 04  7 28  5 41  0.0070000  0  9G 7G 8G 4G 9G24G28G31G26G29
   2516819.00049   1968347.68247  22669240.3474   22669235.7654
  31058629.77746  24183687.97642  26116290.8474   26116286.5614
 -10051411.87149  -7821092.76844  24098551.3234   24098546.9174
  -8956102.80948  -6966350.16544  24112810.5814   24112806.8704
  -2778060.28947  -2158274.53242  26198780.5584   26198776.2724
  16982923.57449  13221158.16244  23929966.9794   23929961.7064
  14822766.45749  11556982.76045  23456692.1514   23456687.5034
  14550123.54348  11344397.70543  25431742.3234   25431738.2104
  16895333.52346  13168491.02342  25478977.7764   25478973.1514
 04  7 28  5 41 30.0070000  0  9G 7G 8G 4G 9G24G28G31G26G29
   2585763.36749   2022070.57047  22682360.2064   22682355.8514
  31208025.05146  24300099.85742  26144719.8394   26144715.5504
 -10097707.90249  -7857167.58644  24089741.6284   24089737.3354
  -8998762.69948  -6999591.62144  24104692.7294   24104688.9094
  -2848149.42247  -2212889.47542  26185442.5814   26185438.3084
  17066418.48849  13286219.13244  23945855.3544   23945850.2454
  14939804.06648  11648180.90945  23478963.5424   23478958.9134
  14667431.60248  11435806.57543  25454065.0974   25454061.2294
  17012777.51246  13260005.82442  25501326.7454   25501322.5344
 04  7 28  5 42  0.0070000  0  9G 7G 8G 4G 9G24G28G31G26G29
   2655010.73449   2076029.55747  22695537.5894   22695533.1984
  31357565.55146  24416624.90442  26173176.0974   26173171.6444
 -10143649.46949  -7892966.20344  24080999.0814   24080994.6594
  -9041049.46548  -7032542.34044  24096645.9334   24096641.9174
  -2918230.29346  -2267497.85042  26172106.5504   26172102.7024
  17150092.47749  13351419.65644  23961778.0504   23961772.7694
  15057081.29749  11739565.75545  23501280.4094   23501276.0074
  14784963.99647  11527390.26343  25476431.0194   25476426.5584
  17130384.40246  13351647.55842  25523706.9014   25523702.7264
 04  7 28  5 42 30.0070000  0  9G 7G 8G 4G 9G24G28G31G26G29
   2724565.19149   2130227.82547  22708773.3624   22708769.1284
  31507255.28546  24533266.22142  26201661.0584   26201656.5614
 -10189227.55549  -7928481.58844  24072326.0504   24072321.4054
  -9082954.92649  -7065195.89944  24088672.1904   24088667.4874
  -2988294.62146  -2322093.38342  26158773.3784   26158768.8664
  17233951.47749  13416764.33944  23977736.0814   23977730.6164
  15174601.56349  11831139.97945  23523643.8004   23523638.9294
  14902723.19948  11619150.66643  25498839.9954   25498835.5154
  17248156.64147  13443418.08142  25546117.9404   25546114.1364
 04  7 28  5 43  0.0070000  0  9G 7G 8G 4G 9G24G28G31G26G29
   2794422.37149   2184661.98747  22722066.7374   22722062.3664
  31657088.82046  24650019.63142  26230173.1204   26230169.8824
 -10234442.10249  -7963713.67744  24063721.5974   24063717.3864
  -9124479.44548  -7097552.65144  24080769.7144   24080765.3394
  -3058342.78146  -2376676.42742  26145444.1834   26145439.5464
  17317993.04749  13482251.26744  23993728.8154   23993723.1944
  15292359.68849  11922899.56145  23546052.5034   23546047.6674
  15020703.25048  11711083.16043  25521290.9794   25521286.6554
  17366088.31647  13535312.94642  25568559.6204   25568555.2494
 04  7 28  5 43 30.0070000  0  9G 7G 8G 4G 9G24G28G31G26G29
   2864577.77749   2239328.54147  22735416.8084   22735412.4174
  31807061.35546  24766881.34042  26258712.4254   26258708.5974
 -10279292.93049  -7998662.36744  24055186.9404   24055182.4954
  -9165623.00848  -7129612.55044  24072940.5034   24072935.9764
  -3128374.73047  -2431246.76442  26132117.9564   26132113.0154
  17402214.39849  13547878.29744  24009755.6514   24009750.1514
  15410350.43049  12014840.40645  23568505.5114   23568500.3904
  15138898.11348  11803183.05343  25543782.8004   25543777.9994
  17484173.39547  13627327.25642  25591030.5974   25591025.8584
 04  7 28  5 44  0.0070000  0  9G 7G 8G 4G 9G24G28G31G26G29
   2935030.36349   2294226.65746  22748823.5424   22748819.0654
  31957171.09846  24883849.98942  26287277.5974   26287273.1594
 -10323776.58649  -8033324.95244  24046721.6444   24046717.5614
  -9206382.62948  -7161373.27044  24065184.0504   24065179.7844
  -3198387.00446  -2485801.74942  26118794.8394   26118790.8354
  17486616.26249  13613645.98445  24025816.7454   24025811.1204
  15528572.04749  12106961.14945  23591001.4174   23590997.1084
  15257305.26648  11895448.36043  25566314.9564   25566310.1634
  17602409.37147  13719459.21342  25613530.9484   25613526.2104
 04  7 28  5 44 30.0070000  0  9G 7G 8G 4G 9G24G28G31G26G29
   3005783.71549   2349359.13847  22762287.4484   22762282.9254
  32107421.59446  25000928.22942  26315869.1834   26315864.4954
 -10367884.73449  -8067694.92544  24038328.2764   24038324.4954
  -9246750.62549  -7192828.82244  24057502.5814   24057498.3704
  -3268371.61746  -2540335.16942  26105477.1204   26105472.5694
  17571204.25849  13679558.71444  24041913.2294   24041907.4294
  15647027.43049  12199264.01745  23613543.4564   23613538.9994
  15375926.77348  11987880.69743  25588887.5424   25588882.8314
  17720798.52347  13811710.48042  25636058.3394   25636054.5224
 04  7 28  5 45  0.0070000  0 10G 7G 8G 5G 4G 9G24G28G31G26G29
   3076827.71949   2404718.10247  22775806.8394   22775802.2064
  32257801.87146  25118107.70342  26344484.9564   26344481.2844
    -96525.55155    -66363.21551  27125074.7144   27125070.5544
 -10411622.84449  -8101776.56044  24030005.2844   24030000.9604
  -9286732.85248  -7223983.78444  24049893.7924   24049889.9444
  -3338334.09846  -2594851.37442  26092163.6984   26092159.7534
  17655969.98449  13745609.91744  24058043.7614   24058037.8474
  15765705.77349  12291740.65745  23636127.2064   23636122.7804
  15494750.81347  12080470.84743  25611498.9334   25611494.6554
  17839329.02747  13904071.86042  25658614.8314   25658610.2334
 04  7 28  5 45 30.0070000  0 10G 7G 8G 5G 4G 9G24G28G31G26G29
   3148154.12149   2460297.11647  22789379.6834   22789375.1714
  32408303.18846  25235381.41042  26373124.9874   26373121.4834
   -146073.47345   -104972.02741  27115645.5654   27115641.7844
 -10454994.53149  -8135572.67844  24021752.2614   24021747.6674
  -9326333.36348  -7254841.30544  24042358.4174   24042354.0854
  -3408278.28146  -2649353.35242  26078853.3944   26078849.2024
  17740907.10949  13811794.70044  24074206.6514   24074200.6984
  15884598.23449  12384384.12945  23658751.8474   23658747.3974
  15613767.80548  12173211.36143  25634147.1904   25634142.9564
  17957991.21147  13996535.89442  25681194.8474   25681191.0464
 04  7 28  5 46  0.0070000  0 10G 7G 8G 5G 4G 9G24G28G31G26G29
   3219764.76649   2516097.61347  22803006.3004   22803002.0304
  32558926.50446  25352750.22842  26401787.9014   26401783.8824
   -195651.87945   -143604.46841  27106210.7374   27106206.8004
 -10497993.70349  -8169078.52644  24013569.4254   24013565.3234
  -9365546.31248  -7285396.81544  24034896.4954   24034892.2724
  -3478198.14546  -2703836.34142  26065548.2534   26065544.6594
  17826019.33649  13878115.91944  24090403.2144   24090397.4294
  16003705.89848  12477195.28345  23681417.3234   23681412.5224
  15732978.00848  12266102.40143  25656832.1044   25656828.2334
  18076785.58245  14089102.96242  25703800.5814   25703796.7184
 04  7 28  5 46 30.0070000  0 10G 7G 8G 5G 4G 9G24G28G31G26G29
   3291663.34849   2572122.49447  22816688.5894   22816684.3824
  32709675.32446  25470216.83142  26430474.3154   26430469.9484
   -245255.23045   -182256.45341  27096772.0584   27096767.8274
 -10540611.91049  -8202287.49744  24005459.6904   24005455.1554
  -9404363.66448  -7315644.08044  24027510.0264   24027505.7294
  -3548085.49246  -2758293.99742  26052249.4874   26052245.6044
  17911312.24649  13944577.93044  24106633.5264   24106627.9294
  16123031.80549  12570176.50645  23704124.2454   23704119.4524
  15852383.49647  12359145.62443  25679554.2454   25679550.0614
  18195714.16845  14181774.53842  25726432.5584   25726427.6284
 04  7 28  5 47  0.0070000  0 10G 7G 8G 5G 4G 9G24G28G31G26G29
   3363850.64549   2628372.32647  22830425.2064   22830421.2414
  32860550.03546  25587781.51842  26459185.1984   26459181.2724
   -294881.02345   -220925.96041  27087328.9724   27087324.7764
 -10582843.82049  -8235195.46944  23997423.2694   23997418.7654
  -9442780.59048  -7345579.34344  24020199.2064   24020194.4994
  -3617935.29346  -2812722.36442  26038956.7374   26038953.7654
  17996788.59449  14011182.87044  24122899.1904   24122893.6944
  16242575.88349  12663327.74245  23726873.0034   23726868.1554
  15971983.53547  12452340.45643  25702313.2694   25702309.4404
  18314776.35546  14274550.30542  25749088.7294   25749084.6044
 04  7 28  5 47 30.0070000  0 10G 7G 8G 5G 4G 9G24G28G31G26G29
   3436324.69549   2684845.61047  22844216.6204   22844212.2764
  33011547.72346  25705442.04642  26487918.8084   26487914.8584
   -344529.21945   -259612.77542  27077880.2614   27077877.2844
 -10624686.74249  -8267800.34944  23989460.9484   23989456.3154
  -9480794.85548  -7375200.83944  24012965.3544   24012960.6324
  -3687745.09446  -2867119.63942  26025672.0194   26025669.1944
  18082447.99249  14077930.44844  24139199.6124   24139194.3354
  16362335.84449  12756647.19545  23749662.0584   23749657.3434
  16091774.68448  12545684.20543  25725109.1124   25725105.0694
  18433968.69947  14367427.46542  25771770.9174   25771766.6944
 04  7 28  5 48  0.0070000  0 10G 7G 8G 5G 4G 9G24G28G31G26G29
   3509084.82449   2741541.81247  22858062.4094   22858057.9174
  33162667.48445  25823197.63942  26516675.8314   26516672.0934
   -394198.28546   -298315.99641  27068429.5814   27068425.7574
 -10666136.90649  -8300099.17044  23981573.0424   23981568.4214
  -9518402.94949  -7404505.81544  24005808.7694   24005804.4684
  -3757510.80546  -2921482.46942  26012396.5974   26012392.7064
  18168291.58649  14144821.56344  24155535.4254   24155529.6904
  16482310.12549  12850133.62845  23772492.6834   23772487.7844
  16211754.81647  12639175.20843  25747940.1594   25747936.3784
  18553289.16847  14460404.41742  25794476.8704   25794472.4334
 04  7 28  5 48 30.0070000  0 10G 7G 8G 5G 4G 9G24G28G31G26G29
   3582131.25449   2798461.10746  22871962.6984   22871958.1324
  33313908.70346  25941047.96642  26545455.8314   26545451.8114
   -443886.45745   -337034.02141  27058973.8784   27058970.7764
 -10707189.42249  -8332088.13544  23973760.8084   23973756.2374
  -9555600.67249  -7433491.03144  23998730.2924   23998725.7724
  -3827227.92646  -2975807.48642  25999129.2064   25999126.4174
  18254321.53149  14211857.89044  24171906.1514   24171900.5854
  16602498.36749  12943786.81845  23795363.9254   23795358.9014
  16331922.43847  12732812.32043  25770807.7614   25770803.2844
  18672736.39147  14553480.13242  25817206.7294   25817202.4134
 04  7 28  5 49  0.0070000  0 10G 7G 8G 5G 4G 9G24G28G31G26G29
   3655463.82049   2855603.36447  22885917.5264   22885913.2104
  33465271.00046  26058992.55042  26574259.6044   26574255.0424
   -493591.80145   -375765.49442  27049514.9254   27049512.2064
 -10747840.16449  -8363764.02344  23966025.0814   23966020.6364
  -9592383.93749  -7462153.29144  23991730.6044   23991725.9874
  -3896892.25446  -3030091.36142  25985872.6284   25985869.2184
  18340539.65249  14279040.84544  24188312.9334   24188307.5934
  16722899.85249  13037606.16345  23818275.3544   23818270.3084
  16452276.05947  12826594.35943  25793709.8864   25793705.9764
  18792308.81347  14646653.45742  25839960.4564   25839956.7694
 04  7 28  5 49 30.0070000  0 10G 7G 8G 5G 4G 9G24G28G31G26G29
   3729080.91449   2912967.33647  22899926.2374   22899921.6364
  33616752.00846  26177029.74642  26603085.4174   26603081.1474
   -543313.63346   -414509.70041  27040053.4724   27040050.0654
 -10788085.80549  -8395124.26044  23958366.6594   23958361.9954
  -9628750.38349  -7490490.77744  23984810.3474   23984805.5384
  -3966500.82046  -3084331.78342  25972627.3234   25972622.9524
  18426946.10249  14346370.55144  24204755.4724   24204749.5194
  16843512.31349  13131589.89345  23841227.0584   23841222.1864
  16572812.36748  12920518.70343  25816647.5424   25816643.7724
  18912003.29347  14739921.87742  25862737.8944   25862733.6754
 04  7 28  5 50  0.0070000  0 10G 7G 8G 5G 4G 9G24G28G31G26G29
   3802979.28549   2970550.47846  22913988.5974   22913984.2294
  33768348.36346  26295156.70442  26631932.9254   26631929.2294
   -593053.55946   -453268.13941  27030588.1984   27030584.6044
 -10827925.53149  -8426168.18544  23950785.4404   23950781.2844
  -9664699.17649  -7518502.80144  23977969.2374   23977965.4684
  -4036052.81246  -3138528.15242  25959391.6904   25959388.1164
  18513539.55149  14413845.96344  24221233.8084   24221227.9404
  16964331.76649  13225734.92044  23864218.1754   23864213.4054
  16693526.51247  13014581.66843  25839618.4014   25839614.6084
  19031814.96146  14833281.59642  25885537.0814   25885533.0264
 04  7 28  5 50 30.0070000  0 10G 7G 8G 5G 4G 9G24G28G31G26G29
   3877156.86349   3028351.18047  22928104.3314   22928099.8744
  33920056.64146  26413370.97742  26660802.7764   26660798.3044
   -642811.13346   -492040.25341  27021119.8704   27021115.3624
 -10867356.61349  -8456893.70744  23943282.1674   23943277.6474
  -9700227.88349  -7546187.49544  23971208.6514   23971204.3544
  -4105545.50446  -3192678.23142  25946166.9724   25946163.8084
  18600319.78548  14481466.91844  24237747.4874   24237741.9914
  17085355.64149  13320039.23745  23887248.4794   23887243.7574
  16814415.12147  13108780.59042  25862622.6834   25862618.7064
  19151740.68046  14926730.20642  25908357.8394   25908354.3274
 04  7 28  5 51  0.0070000  0 10G 7G 8G 5G 4G 9G24G28G31G26G29
   3951610.89849   3086367.31947  22942272.3474   22942267.5614
  34071874.12145  26531670.26542  26689691.9644   26689688.0734
   -692587.47746   -530826.93841  27011647.0734   27011643.1754
 -10906377.66049  -8487299.72344  23935856.7454   23935852.2884
  -9735335.48848  -7573544.04544  23964527.7764   23964523.4174
  -4174977.14846  -3246780.80242  25932955.4564   25932951.1514
  18687285.56648  14549232.47344  24254296.4794   24254290.6514
  17206580.49248  13414500.16845  23910316.7694   23910311.9444
  16935473.81347  13203112.02042  25885659.3944   25885655.0464
  19271775.87145  15020264.12042  25931199.8544   25931195.4294
 04  7 28  5 51 30.0070000  0 10G 7G 8G 5G 4G 9G24G28G31G26G29
   4026346.30949   3144602.70246  22956493.8864   22956489.2184
  34223804.97346  26650057.94042  26718603.4254   26718599.2294
   -742375.71946   -569623.00441  27002172.5974   27002168.8974
 -10944978.98449  -8517378.66545  23928511.2844   23928506.2574
  -9770013.04748  -7600565.51744  23957928.6904   23957924.2884
  -4244338.37947  -3300828.52742  25919757.0114   25919751.9404
  18774444.05948  14617148.16244  24270882.2144   24270876.9094
  17328010.64148  13509121.05144  23933423.7924   23933419.1164
  17056705.96947  13297578.63643  25908729.6834   25908724.8744
  19391924.25445  15113886.22042  25954062.9334   25954059.1324
 04  7 28  5 52  0.0070000  0 10G 7G 8G 5G 4G 9G24G28G31G26G29
   4101357.75049   3203053.17647  22970768.1594   22970763.6164
  34375842.98046  26768529.07942  26747535.8864   26747531.2454
   -792179.28546   -608430.92641  26992696.1834   26992692.0974
 -10983161.35249  -8547131.16345  23921245.1594   23921240.6754
  -9804261.75048  -7627252.81145  23951411.4724   23951406.7764
  -4313630.07447  -3354822.06942  25906570.8084   25906565.8664
  18861791.65248  14685211.23744  24287503.8394   24287498.3974
  17449640.31348  13603897.41845  23956569.1044   23956564.9914
  17178104.62547  13392175.02843  25931830.2844   25931826.3474
  19512178.96146  15207591.14642  25976947.2764   25976942.5154
 04  7 28  5 52 30.0070000  0 10G 7G 8G 5G 4G 9G24G28G31G26G29
   4176643.90649   3261717.70746  22985094.8474   22985090.0614
  34527986.69546  26887082.62942  26776487.7614   26776483.3744
   -841997.34446   -647250.14341  26983216.0264   26983212.0194
 -11020922.02749  -8576555.04745  23914059.5894   23914055.4444
  -9838078.84448  -7653603.78744  23944976.6594   23944971.9834
  -4382849.46146  -3408759.24642  25893398.8084   25893394.1164
  18949328.87148  14753422.05844  24304161.9174   24304156.3904
  17571467.37948  13698827.60745  23979752.3944   23979748.0654
  17299667.01247  13486898.93043  25954963.0504   25954958.6444
  19632537.14146  15301376.76742  25999850.5734   25999845.7844
 04  7 28  5 53  0.0070000  0 10G 7G 8G 5G 4G 9G24G28G31G26G29
   4252199.87149   3320592.49247  22999472.8004   22999468.0074
  34680230.66445  27005714.20442  26805458.5654   26805454.1514
   -891832.75846   -686082.90641  26973732.2224   26973728.7574
 -11058261.23049  -8605650.51745  23906954.0194   23906949.6594
  -9871465.03548  -7679618.98245  23938623.3154   23938618.5304
  -4451996.74246  -3462640.22042  25880240.3234   25880235.9994
  19037052.68048  14821778.26444  24320854.8944   24320849.0894
  17693486.50048  13793907.43445  24002971.8704   24002967.4604
  17421386.78547  13581745.48542  25978125.7614   25978121.5774
  19752992.40647  15395237.97042  26022772.4404   26022767.7374
 04  7 28  5 53 30.0070000  0 10G 7G 8G 5G 4G 9G24G28G31G26G29
   4328027.32849   3379678.81647  23013902.1594   23013897.6164
  34832576.26246  27124425.09142  26834449.1514   26834444.8194
   -941681.86746   -724926.34242  26964246.4724   26964242.4404
 -11095172.85249  -8634412.81244  23899929.8784   23899925.4874
  -9904414.62948  -7705293.96244  23932352.4174   23932348.7614
  -4521065.69947  -3516460.16242  25867097.1364   25867092.8084
  19124966.65248  14890282.66644  24337584.4954   24337579.0194
  17815698.78148  13889137.78844  24026227.8704   24026223.8114
  17543263.98047  13676714.71542  26001318.2294   26001314.2494
  19873545.10246  15489175.15042  26045712.8544   26045708.3004
 04  7 28  5 54  0.0070000  0 10G 7G 8G 5G 4G 9G24G28G31G26G29
   4404121.81349   3438973.21247  23028382.1834   23028377.5504
  34985017.55146  27243210.47742  26863458.0264   26863453.7264
   -991547.22346   -763782.41641  26954757.6044   26954753.2844
 -11131657.19949  -8662842.15745  23892987.2534   23892983.4294
  -9936928.00049  -7730629.05244  23926165.6904   23926161.7534
  -4590056.43047  -3570219.15542  25853968.3474   25853964.6474
  19213068.02048  14958933.07744  24354349.8154   24354344.1864
  17938099.10548  13984514.64144  24049519.8624   24049515.8784
  17665292.67247  13771801.98642  26024540.0034   26024536.0194
  19994189.23445  15583183.56942  26068670.9254   26068665.6324
 04  7 28  5 54 30.0070000  0 10G 7G 8G 5G 4G 9G24G28G31G26G29
   4480482.40249   3498474.96747  23042913.2764   23042908.8624
  35137553.45346  27362069.61342  26892484.7534   26892479.7614
  -1041427.31246   -802650.02741  26945265.1444   26945261.0974
 -11167710.37549  -8690935.54945  23886126.8944   23886122.3904
  -9969002.21149  -7755621.93244  23920062.0584   23920057.9524
  -4658965.09447  -3623914.18542  25840855.3154   25840852.0614
  19301357.90248  15027730.38744  24371150.4014   24371144.9364
  18060686.02748  14080036.92144  24072847.8394   24072842.7264
  17787470.24247  13867005.28743  26047789.1594   26047785.4054
  20114922.53146  15677261.44642  26091645.8234   26091641.4174
 04  7 28  5 55  0.0070000  0 10G 7G 8G 5G 4G 9G24G28G31G26G29
   4557106.66049   3558182.17846  23057494.5034   23057489.8084
  35290181.47746  27481000.50042  26921528.8944   26921524.4014
  -1091322.72346   -841529.50541  26935770.5264   26935766.3434
 -11203330.90249  -8718691.80245  23879348.3234   23879343.8474
 -10000635.52049  -7780271.24244  23914042.8394   23914038.4564
  -4727790.06247  -3677544.04742  25827758.7534   25827754.7374
  19389835.62148  15096674.05144  24387987.4014   24387981.9364
  18183456.53949  14175702.26044  24096209.9014   24096205.4484
  17909792.91047  13962321.65642  26071066.8154   26071062.3824
  20235741.04746  15771405.73742  26114636.2534   26114632.4834
 04  7 28  5 55 30.0070000  0 10G 7G 8G 5G 4G 9G24G28G31G26G29
   4633996.68049   3618096.47946  23072125.9954   23072121.3514
  35442902.62946  27600003.96642  26950590.4954   26950586.0734
  -1141229.74646   -880418.12242  26926274.4484   26926269.4724
 -11238511.88749  -8746105.54945  23872653.4794   23872649.5544
 -10031821.82049  -7804572.23945  23908107.9794   23908103.7764
  -4796524.64847  -3731103.40242  25814678.5654   25814674.3584
  19478505.08248  15165767.14244  24404860.5344   24404854.6124
  18306412.21548  14271511.87144  24119608.1044   24119603.1634
  18032261.25047  14057751.52243  26094371.2374   26094366.6674
  20356645.36746  15865616.88442  26137643.8784   26137640.1164
 04  7 28  5 56  0.0070000  0 10G 7G 8G 5G 4G 9G24G28G31G26G29
   4711149.94949   3678215.91047  23086807.8234   23086803.3084
  35595714.13346  27719077.80342  26979669.5194   26979665.0584
  -1191148.44546   -919315.78142  26916774.2694   26916770.0934
 -11273251.74649  -8773175.56645  23866042.6674   23866038.3354
 -10062559.59849  -7828523.74545  23902258.9794   23902254.3114
  -4865166.60947  -3784590.67642  25801616.7844   25801612.5814
  19567365.65648  15235009.14944  24421769.8314   24421764.5734
  18429549.98048  14367463.36844  24143039.9644   24143035.5384
  18154871.19546  14153291.75242  26117703.4254   26117698.7924
  20477631.65245  15959891.89342  26160666.4794   26160662.7764
 04  7 28  5 56 30.0070000  0 10G 7G 8G 5G 4G 9G24G28G31G26G29
   4788562.61749   3738537.46647  23101538.8474   23101534.1594
  35748611.25846  27838218.49642  27008765.7764   27008760.9644
  -1241080.65247   -958223.94342  26907272.5344   26907268.6514
 -11307549.83649  -8799901.33645  23859515.8864   23859511.4404
 -10092848.68748  -7852125.61445  23896495.1284   23896490.6124
  -4933715.41447  -3838005.29042  25788572.1364   25788568.4014
  19656415.25048  15304398.43644  24438715.7844   24438710.3514
  18552865.56348  14463553.42844  24166506.0814   24166501.6044
  18277617.40246  14248938.09842  26141061.6594   26141056.5424
  20598694.60945  16054226.71742  26183704.3624   26183700.2024
 04  7 28  5 57  0.0080000  0 10G 7G 8G 5G 4G 9G24G28G31G26G29
   4866238.66449   3799064.25146  23116319.9774   23116315.7504
  35901600.50846  27957430.80742  27037878.2034   27037873.2774
  -1291024.87947   -997141.48342  26897768.8364   26897765.0744
 -11341401.47749  -8826279.23845  23853074.2274   23853069.8524
 -10122684.60248  -7875374.37444  23890817.4064   23890812.7974
  -5002167.70348  -3891344.73842  25775546.2974   25775542.5554
  19745660.25448  15373940.02144  24455698.4374   24455692.8244
  18676363.82448  14559785.85244  24190007.0624   24190002.4064
  18400503.78147  14344693.72642  26164445.8594   26164441.0624
  20719838.34846  16148624.39842  26206757.0084   26206752.8244
 04  7 28  5 57 30.0080000  0 10G 7G 8G 5G 4G 9G24G28G31G26G29
   4944169.60549   3859789.66347  23131150.0554   23131145.3754
  36054666.96146  28076703.32042  27067005.1484   27067000.8094
  -1340978.81247  -1036066.59742  26888263.0004   26888259.6414
 -11374803.49249  -8852306.76545  23846718.2894   23846713.7894
 -10152064.68748  -7898267.92545  23885226.4774   23885222.6024
  -5070517.52747  -3944604.32042  25762539.5004   25762535.5824
  19835093.10548  15443627.95844  24472717.2504   24472711.3484
  18800032.76248  14656151.24344  24213540.8914   24213536.2034
  18523517.27747  14440548.38542  26187854.7734   26187849.6374
  20841049.68845  16243074.76742  26229823.5624   26229817.8834
 04  7 28  5 58  0.0080000  0 10G 7G 8G 5G 4G 9G24G28G31G26G29
   5022356.50849   3920714.51946  23146028.5704   23146024.0474
  36207814.15246  28196038.79642  27096148.4144   27096143.9574
  -1390943.50047  -1075000.10542  26878754.4454   26878751.4964
 -11407754.45349  -8877982.83145  23840447.8984   23840443.1414
 -10180987.45748  -7920805.14245  23879723.0084   23879718.4304
  -5138764.28947  -3997783.57942  25749552.5394   25749548.8364
  19924717.10548  15513464.82944  24489771.7344   24489766.3404
  18923874.35249  14752651.18744  24237106.9774   24237102.5164
  18646659.08647  14536503.01742  26211287.8054   26211283.2344
  20962330.11746  16337578.94742  26252901.9374   26252897.0314
 04  7 28  5 58 30.0080000  0 10G 7G 8G 5G 4G 9G24G28G31G26G29
   5100798.04349   3981837.79247  23160955.2034   23160951.0474
  36361040.16446  28315435.68342  27125306.6954   27125302.2274
  -1440918.00447  -1113941.17442  26869245.0864   26869240.9694
 -11440251.23849  -8903305.00145  23834263.8364   23834259.7154
 -10209450.38748  -7942984.02545  23874306.6724   23874301.9844
  -5206904.85547  -4050880.13342  25736586.0944   25736581.6524
  20014532.89848  15583451.16944  24506863.4144   24506857.8944
  19047886.91848  14849284.35244  24260705.8204   24260700.9414
  18769926.21947  14632555.32642  26234744.7274   26234740.7304
  21083676.60945  16432134.60742  26275993.2584   26275988.9144
 04  7 28  5 59  0.0080000  0 10G 7G 8G 5G 4G 9G24G28G31G26G29
   5179491.45349   4043157.32247  23175930.1724   23175925.5984
  36514341.41846  28434891.13842  27154478.5624   27154473.9924
  -1490903.33246  -1152890.77042  26859732.4064   26859729.1564
 -11472292.48449  -8928272.19245  23828166.3834   23828162.1484
 -10237452.35248  -7964803.73045  23868977.7344   23868973.2734
  -5274937.75847  -4103892.78542  25723639.5624   25723635.9454
  20104539.25848  15653585.96544  24523991.0314   24523984.9654
  19172067.07048  14946048.09944  24284336.5944   24284332.2194
  18893314.40247  14728701.94843  26258224.5784   26258221.0554
  21205084.87545  16526738.45842  26299096.8594   26299092.1874
 04  7 28  5 59 30.0080000  0 10G 7G 8G 5G 4G 9G24G28G31G26G29
   5258435.12549   4104671.86946  23190952.8594   23190948.2384
  36667715.55146  28554403.54942  27183665.0234   27183660.8794
  -1540898.96546  -1191848.31942  26850219.3834   26850215.3324
 -11503875.54749  -8952882.35845  23822156.4304   23822152.1294
 -10264991.12148  -7986262.50345  23863736.8754   23863732.7194
  -5342859.97747  -4156819.17542  25710714.0474   25710710.6214
  20194736.59848  15723869.60944  24541155.2194   24541149.0314
  19296412.66848  15042940.77344  24307998.6724   24307993.7974
  19016820.61746  14824940.55342  26281726.6334   26281723.2774
  21326552.25045  16621388.38442  26322211.4534   26322207.2234
 04  7 28  6  0  0.0080000  0 10G 7G 8G 5G 4G 9G24G28G31G26G29
   5337627.27349   4166380.04746  23206022.5084   23206017.9414
  36821160.59846  28673971.01442  27212864.4844   27212861.1644
  -1590904.44547  -1230813.62542  26840703.3674   26840699.1874
 -11534997.75449  -8977133.41445  23816234.2344   23816229.7274
 -10292064.39848  -8007358.55345  23858585.3674   23858581.0164
  -5410668.51247  -4209656.95442  25697811.2274   25697807.8984
  20285124.98048  15794302.10444  24558355.2344   24558349.3014
  19420921.61348  15139960.73544  24331692.0164   24331687.2814
  19140441.35546  14921268.39042  26305250.6174   26305246.8284
  21448075.32045  16716081.63242  26345336.1414   26345332.5234
 04  7 28  6  0 30.0080000  0 10G 7G 8G 5G 4G 9G24G28G31G26G29
   5417072.10949   4228285.10846  23221140.2114   23221135.7854
  36974680.43446  28793596.86742  27242078.1644   27242074.8014
  -1640913.32446  -1269781.51342  26831186.3754   26831182.9144
 -11565650.62149  -9001018.75745  23810401.0944   23810396.4064
 -10318663.93748  -8028085.45245  23853523.6804   23853519.3484
  -5478354.61347  -4262399.35342  25684930.8524   25684927.2464
  20375710.41848  15864888.16744  24575592.9844   24575587.4694
  19545597.66848  15237110.90544  24355416.4374   24355412.2544
  19264179.60247  15017687.78942  26328797.7274   26328793.4884
  21569657.01645  16810820.65042  26368471.9374   26368468.4734
 04  7 28  6  1  0.0080000  0 10G 7G 8G 5G 4G 9G24G28G31G26G29
   5496761.19949   4290380.50046  23236304.4534   23236300.0904
  37128265.43846  28913273.49742  27271304.4224   27271300.7854
  -1690932.53147  -1308757.48642  26821668.5624   26821664.4264
 -11595838.53949  -9024541.79345  23804656.6724   23804651.8794
 -10344794.51248  -8048446.91645  23848551.0704   23848546.5624
  -5545922.48047  -4315049.63342  25672072.7974   25672069.2544
  20466486.13348  15935622.47344  24592867.2114   24592862.0084
  19670431.73048  15334384.19744  24379172.2504   24379167.1874
  19388025.15246  15114190.82742  26352364.8594   26352360.7814
  21691287.28945  16905597.41842  26391617.7114   26391613.5354
 04  7 28  6  1 30.0080000  0 10G 7G 8G 5G 4G 9G24G28G31G26G29
   5576695.55949   4352667.01346  23251515.5234   23251510.9774
  37281916.32446  29033001.43441  27300543.5624   27300538.8444
  -1740958.67646  -1347738.89342  26812148.7894   26812145.5124
 -11625556.44949  -9047698.60245  23799001.5084   23798996.8674
 -10370451.17648  -8068439.09445  23843668.8444   23843664.3484
  -5613366.75447  -4367603.59342  25659238.8674   25659235.0944
  20557455.05148  16006507.36144  24610177.8754   24610172.5164
  19795424.46548  15431781.13344  24402957.0864   24402952.5124
  19511977.65646  15210777.15542  26375952.6094   26375947.8674
  21812965.74645  17000411.80342  26414771.9614   26414768.7074
 04  7 28  6  2  0.0080000  0 10G 7G 8G 5G 4G 9G24G28G31G26G29
   5656875.00449   4415144.49446  23266773.1094   23266769.0594
  37435632.27746  29152780.15041  27329794.8674   27329789.8444
  -1790989.95346  -1386724.28742  26802628.6174   26802624.2894
 -11654800.39849  -9070486.10145  23793436.4694   23793431.8944
 -10395630.21949  -8088059.12645  23838877.5234   23838873.1524
  -5680683.00447  -4420057.79542  25646428.2734   25646425.3404
  20648618.64848  16077543.92844  24627525.6874   24627520.4144
  19920575.07848  15529301.08944  24426772.6334   24426767.8284
  19636035.44547  15307445.54042  26399559.7584   26399555.6724
  21934690.81345  17095262.46542  26437936.0624   26437931.8674
 04  7 28  6  2 30.0080000  0 10G 7G 8G 5G 4G 9G24G28G31G26G29
   5737296.48449   4477810.58446  23282076.9304   23282072.9454
  37589409.59845  29272606.62741  27359057.3754   27359052.9614
  -1841026.93447  -1425714.09542  26793106.7664   26793103.0354
 -11683568.98449  -9092903.16545  23787961.6804   23787957.4104
 -10420330.87549  -8107306.37245  23834177.2424   23834173.0354
  -5747869.82847  -4472411.14842  25633643.5084   25633639.8834
  20739975.93448  16148731.42044  24644910.1874   24644905.2424
  20045880.18848  15626941.43744  24450617.6414   24450612.3324
  19760193.80147  15404192.30442  26423186.4774   26423181.9374
  22056458.05145  17190146.01042  26461107.7584   26461103.2584
 04  7 28  6  3  0.0080000  0 10G 7G 8G 5G 4G 9G24G28G31G26G29
   5817958.07049   4540663.75946  23297426.3754   23297421.9144
  37743245.60545  29392478.92641  27388331.5234   27388327.3204
  -1891069.36346  -1464708.14942  26783583.7114   26783580.5234
 -11711860.09049  -9114948.18545  23782578.2504   23782573.9064
 -10444550.87949  -8126179.09845  23829568.2814   23829563.7974
  -5814924.60247  -4524661.60642  25620883.3284   25620880.2934
  20831526.71948  16220069.69144  24662332.1804   24662326.6094
  20171337.48048  15724700.37244  24474490.8364   24474486.4224
  19884449.42647  15501014.83742  26446830.8444   26446827.6484
  22178264.10545  17285059.83142  26484286.8834   26484281.8364
 04  7 28  6  3 30.0080000  0 10G 7G 8G 5G 4G 9G24G28G31G26G29
   5898857.79349   4603702.50846  23312821.1804   23312816.4264
  37897137.93845  29512395.04741  27417616.1414   27417611.7154
  -1941117.48447  -1503706.60942  26774059.3364   26774056.5784
 -11739671.80149  -9136619.62945  23777285.7344   23777281.3204
 -10468288.37149  -8144675.81945  23825050.7734   23825046.3554
  -5881844.72347  -4576807.12842  25608148.6564   25608145.8914
  20923270.87548  16291558.63944  24679790.1414   24679784.7814
  20296944.41448  15822575.87644  24498393.6024   24498388.6094
  20008798.89147  15597910.51542  26470494.1254   26470490.1954
  22300105.82845  17380001.35842  26507472.8524   26507468.0904
 04  7 28  6  4  0.0080000  0 10G 7G 8G 5G 4G 9G24G28G31G26G29
   5979994.20749   4666925.68246  23328260.8674   23328256.3914
  38051084.59045  29632353.50641  27446910.6334   27446907.2274
  -1991170.64846  -1542709.04442  26764534.7584   26764531.1844
 -11767001.16449  -9157915.23245  23772085.2504   23772080.6954
 -10491541.40649  -8162795.05045  23820625.8524   23820621.8054
  -5948627.21947  -4628845.43242  25595440.8754   25595437.2814
  21015208.71548  16363198.52544  24697285.5624   24697279.8094
  20422699.03148  15920566.50344  24522323.9064   24522318.5514
  20133238.98446  15694876.81042  26494174.5554   26494170.1874
  22421980.01645  17474968.20442  26530663.4374   26530659.2694
 04  7 28  6  4 30.0080000  0 10G 7G 8G 5G 4G 9G24G28G31G26G29
   6061364.30549   4730330.95646  23343744.9924   23343740.7074
  38205081.95345  29752351.46541  27476216.0864   27476211.4454
  -2041229.46146  -1581715.80542  26755008.6804   26755004.8944
 -11793847.39549  -9178834.37645  23766976.3284   23766971.9224
 -10514309.05949  -8180536.07645  23816293.5944   23816289.0664
  -6015270.70347  -4680775.38242  25582759.0704   25582755.2694
  21107338.87147  16434988.26444  24714817.3204   24714811.4414
  20548598.06648  16018669.65244  24546281.7894   24546276.3444
  20257765.41047  15791910.37742  26517871.0624   26517866.4924
  22543882.39846  17569957.13942  26553862.0394   26553856.5944
 04  7 28  6  5  0.0080000  0 10G 7G 8G 5G 4G 9G24G28G31G26G29
   6142970.61749   4793920.28846  23359274.1334   23359269.4844
  38359132.13345  29872390.62941  27505530.4304   27505526.2894
  -2091289.11746  -1620723.30342  26745482.1254   26745478.8674
 -11820203.46149  -9199371.56745  23761961.3674   23761956.9694
 -10536584.89849  -8197893.85345  23812054.8984   23812050.5164
  -6081768.25047  -4732591.67842  25570104.7424   25570101.3014
  21199665.69148  16506931.24444  24732386.4614   24732380.9264
  20674643.63748  16116886.98144  24570267.1484   24570262.4184
  20382379.11346  15889011.94442  26541584.3594   26541579.8914
  22665814.19546  17664968.84642  26577064.3594   26577060.1134
 04  7 28  6  5 30.0080000  0 10G 7G 8G 5G 4G 9G24G28G31G26G29
   6224809.30549   4857690.68646  23374847.7034   23374843.2344
  38513230.15645  29992467.02341  27534854.0944   27534850.2194
  -2141351.47346  -1659732.88242  26735956.4374   26735951.9454
 -11846069.63749  -9219527.00746  23757038.8284   23757034.6604
 -10558369.09049  -8214868.52845  23807909.4374   23807904.9454
  -6148119.12547  -4784293.62342  25557478.3594   25557474.5234
  21292187.12147  16579025.84843  24749992.8124   24749987.1954
  20800831.33248  16215215.05844  24594280.2194   24594275.3244
  20507074.85246  15986177.44042  26565313.0624   26565308.1914
  22787770.09046  17759999.42542  26600272.5314   26600267.4374
 04  7 28  6  6  0.0080000  0  9G 7G 5G 4G 9G24G28G31G26G29
   6306880.72349   4921642.45346  23390465.0234   23390460.4694
  -2191414.03946  -1698742.67842  26726429.3364   26726425.7194
 -11871441.41849  -9239297.22645  23752211.1094   23752206.6444
 -10579657.39849  -8231456.82245  23803858.3124   23803853.6804
  -6214318.28547  -4835877.36643  25544881.5394   25544877.4344
  21384905.60948  16651274.01944  24767636.3594   24767631.0474
  20927161.27048  16313653.96644  24618320.0554   24618315.0314
  20631851.45346  16083405.95342  26589057.1414   26589052.7934
  22909749.03946  17855047.97242  26623484.4534   26623479.3204
 04  7 28  6  6 30.0080000  0  9G 7G 5G 4G 9G24G28G31G26G29
   6389183.89849   4985774.79346  23406127.1334   23406122.0234
  -2241475.91046  -1737751.89242  26716902.8444   26716899.7504
 -11896315.80948  -9258679.86245  23747477.5864   23747473.0944
 -10600447.32449  -8247656.74545  23799902.2734   23799897.5704
  -6280362.74247  -4887340.56242  25532313.6644   25532309.3714
  21477821.59048  16723676.07344  24785317.9144   24785312.3284
  21053631.89847  16412202.51444  24642386.5314   24642381.8014
  20756706.27346  16180695.43942  26612815.7734   26612812.8984
  23031748.71146  17950112.58742  26646698.9694   26646695.1484
 04  7 28  6  7  0.0080000  0  9G 7G 5G 4G 9G24G28G31G26G29
   6471720.96149   5050089.38446  23421833.3124   23421829.2584
  -2291532.65246  -1776757.14042  26707378.2034   26707374.4184
 -11920686.67249  -9277670.14445  23742839.8284   23742835.1254
 -10620732.80949  -8263463.61045  23796041.6334   23796037.4064
  -6346245.67647  -4938677.88443  25519776.4924   25519772.9104
  21570938.94948  16796235.07144  24803037.4694   24803032.0664
  21180244.97348  16510862.04244  24666480.1644   24666475.1644
  20881640.13346  16278046.47042  26636590.4224   26636587.0554
  23153769.70746  18045193.91641  26669919.7034   26669915.0004
 04  7 28  6  7 30.0080000  0  9G 7G 5G 4G 9G24G28G31G26G29
   6554496.02049   5114589.42946  23437584.9694   23437580.4774
  -2341577.97346  -1815753.41442  26697854.7584   26697850.8404
 -11944545.91449  -9296261.75345  23738299.6564   23738294.7424
 -10640505.88749  -8278871.18545  23792278.8754   23792274.7074
  -6411958.42247  -4989882.62242  25507271.1724   25507267.9494
  21664263.83648  16868955.75244  24820796.4534   24820791.2664
  21307004.50047  16609635.68944  24690601.3594   24690596.7384
  21006655.47745  16375461.02742  26660380.0554   26660376.1214
  23275815.07846  18140294.19842  26693144.2584   26693139.4844
 04  7 28  6  8  0.0080000  0  9G 7G 5G 4G 9G24G28G31G26G29
   6637500.35249   5179268.13046  23453380.2894   23453375.7584
  -2391618.55546  -1854746.04242  26688332.4774   26688328.1054
 -11967898.24249  -9314458.36345  23733855.6024   23733851.0624
 -10659771.73449  -8293883.51745  23788613.0944   23788608.4734
  -6477505.32847  -5040958.10642  25494798.4454   25494795.1414
  21757789.04748  16941832.55544  24838593.6564   24838588.5594
  21433901.12948  16708516.18244  24714748.9374   24714744.5984
  21131742.28146  16472931.27642  26684183.2274   26684179.0474
  23397874.57046  18235405.39742  26716371.1954   26716366.3524
 04  7 28  6  8 30.0080000  0  9G 7G 5G 4G 9G24G28G31G26G29
   6720729.04749   5244121.65446  23469217.8914   23469213.6914
  -2441657.06646  -1893737.02842  26678810.1334   26678805.5864
 -11990744.81649  -9332260.88845  23729508.1334   23729503.8164
 -10678531.75849  -8308501.71745  23785042.8914   23785038.7544
  -6542886.69948  -5091904.61742  25482356.8054   25482353.1914
  21851511.46148  17014863.01543  24856428.6024   24856423.1374
  21560929.44948  16807499.28644  24738921.8124   24738917.0044
  21256893.97746  16570452.04942  26707998.5704   26707994.9804
  23519941.62146  18330522.61742  26739600.0784   26739595.0514
 04  7 28  6  9  0.0080000  0  9G 7G 5G 4G 9G24G28G31G26G29
   6804180.96149   5309149.12646  23485098.3204   23485093.9734
  -2491692.09446  -1932725.26242  26669288.1484   26669284.0274
 -12013082.84049  -9349667.12345  23725257.5234   23725252.8714
 -10696783.29349  -8322723.66845  23781569.8524   23781565.1484
  -6608099.22748  -5142719.57143  25469947.6414   25469943.5434
  21945431.64148  17088047.55743  24874300.7194   24874295.4184
  21688088.13348  16906583.96744  24763119.1874   24763114.4144
  21382108.08247  16668021.44442  26731826.1874   26731821.9534
  23642013.88346  18425643.79042  26762828.9224   26762824.7694
 04  7 28  6  9 30.0080000  0  9G 7G 5G 4G 9G24G28G31G26G29
   6887851.95349   5374347.30446  23501020.4694   23501015.7734
  -2541725.69146  -1971712.46242  26659767.1874   26659763.0864
 -12034912.41449  -9366677.18845  23721103.3364   23721098.5434
 -10714526.60249  -8336549.61645  23778193.4774   23778189.1644
  -6673142.48447  -5193402.61242  25457569.7424   25457566.2814
  22039547.32448  17161384.44943  24892210.8594   24892205.3594
  21815372.66848  17005766.71644  24787340.2194   24787336.2624
  21507378.78147  16765634.98442  26755664.7114   26755660.1604
  23764086.01645  18520764.92641  26786059.0394   26786054.9304
 04  7 28  6 10  0.0080000  0  9G 7G 5G 4G 9G24G28G31G26G29
   6971741.73449   5439715.96446  23516984.1724   23516979.6174
  -2591756.30945  -2010697.35642  26650246.6024   26650242.3204
 -12056230.12149  -9383288.36846  23717046.6644   23717042.7664
 -10731758.48449  -8349977.04145  23774914.2664   23774910.2734
  -6738012.73047  -5243950.86142  25445225.4224   25445221.7114
  22133859.67248  17234874.59943  24910157.6564   24910152.5044
  21942782.28947  17105046.92244  24811586.4454   24811581.1024
  21632704.36346  16863291.26442  26779513.2034   26779509.0194
  23886156.12146  18615884.52342  26809288.1954   26809283.7694
 04  7 28  6 10 30.0080000  0  9G 7G 5G 4G 9G24G28G31G26G29
   7055849.14849   5505254.20846  23532989.3984   23532985.0234
  -2641782.91846  -2049679.07742  26640727.1564   26640722.9264
 -12077033.59849  -9399498.87445  23713088.0944   23713083.4264
 -10748476.54349  -8363004.09345  23771732.8834   23771728.1054
  -6802706.20747  -5294361.31842  25432914.8054   25432910.7274
  22228369.61348  17308518.70443  24928142.2344   24928136.6414
  22070315.53948  17204423.49844  24835854.4844   24835850.2584
  21758082.16447  16960988.27942  26803372.0004   26803367.9574
  24008221.73846  18711000.52642  26832516.4844   26832512.3874
 04  7 28  6 11  0.0080000  0  9G 7G 5G 4G 9G24G28G31G26G29
   7140171.22749   5570959.71546  23549035.4374   23549030.9304
  -2691806.10245  -2088658.09942  26631207.5944   26631204.0164
 -12097321.68448  -9415307.76445  23709226.9844   23709222.8674
 -10764680.28549  -8375630.38345  23768649.2974   23768644.7074
  -6867221.93747  -5344633.32343  25420637.7424   25420633.9144
  22323075.57448  17382315.56643  24946164.5164   24946158.6334
  22197969.01648  17303893.75544  24860146.1954   24860141.8284
  21883507.65247  17058722.42842  26827240.0394   26827235.5044
  24130278.43846  18806109.63341  26855742.8284   26855738.9304
 04  7 28  6 11 30.0080000  0  9G 7G 5G 4G 9G24G28G31G26G29
   7224707.54749   5636832.17646  23565121.9064   23565117.3014
  -2741824.45347  -2127633.41542  26621689.8914   26621685.3094
 -12117091.03149  -9430712.44845  23705465.0234   23705460.8484
 -10780366.48049  -8387853.38545  23765664.3834   23765659.9304
  -6931555.89147  -5394763.65143  25408395.7664   25408391.7624
  22417978.87148  17456266.19543  24964223.6804   24964218.6294
  22325741.95748  17403457.07444  24884460.7734   24884456.8054
  22008978.92646  17156492.17142  26851115.9614   26851111.5594
  24252324.34445  18901210.41441  26878967.0944   26878962.6844
 04  7 28  6 12  0.0080000  0  9G 7G 5G 4G 9G24G28G31G26G29
   7309455.29749   5702869.38746  23581248.8674   23581244.1644
  -2791838.56246  -2166605.40142  26612172.2664   26612167.9654
 -12136340.78549  -9445712.24445  23701802.0554   23701797.7304
 -10795534.37549  -8399672.50345  23762778.1954   23762773.9024
  -6995705.89547  -5444750.66243  25396187.7664   25396184.3634
  22513078.60948  17530369.87843  24982320.9454   24982314.8364
  22453631.41048  17503111.20344  24908797.3754   24908792.8244
  22134491.84046  17254294.41842  26875000.4844   26874996.5274
  24374355.41846  18996299.51542  26902188.8054   26902184.5744
 04  7 28  6 12 30.0080000  0  9G 7G 5G 4G 9G24G28G31G26G29
   7394412.44549   5769069.75146  23597415.6094   23597411.1724
  -2841848.04746  -2205573.81842  26602656.0554   26602651.5474
 -12155069.01249  -9460305.66145  23698238.1724   23698233.7464
 -10810182.51649  -8411086.62845  23759990.7894   23759986.2464
  -7059669.91847  -5494592.74543  25384016.4534   25384012.6414
  22608374.40648  17604626.33543  25000454.8914   25000449.2894
  22581634.82448  17602854.10244  24933155.5004   24933150.9374
  22260042.80946  17352126.32042  26898891.7424   26898887.8594
  24496368.36746  19091374.51141  26925407.0164   26925403.0984
 04  7 28  6 13  0.0080000  0  9G 7G 5G 4G 9G24G28G31G26G29
   7479578.37949   5835432.81446  23613622.4454   23613618.0314
  -2891851.20346  -2244537.27442  26593140.4374   26593136.2424
 -12173272.93449  -9474490.52746  23694774.2734   23694769.6334
 -10824307.96549  -8422093.45645  23757302.5624   23757298.0354
  -7123444.17647  -5544286.95442  25371880.2814   25371876.5274
  22703867.20748  17679036.33043  25018626.3754   25018621.2464
  22709751.28148  17702685.12043  24957535.2114   24957530.7034
  22385629.75046  17449986.30442  26922790.4844   26922786.5434
  24618361.06346  19186433.67141  26948621.8984   26948617.4024
 04  7 28  6 13 30.0080000  0  9G 7G 5G 4G 9G24G28G31G26G29
   7564949.65649   5901955.88346  23629867.9224   23629863.4374
  -2941849.27746  -2283496.70142  26583626.1564   26583621.6684
 -12190952.13349  -9488266.51246  23691410.0554   23691405.5944
 -10837910.51649  -8432692.84245  23754714.0314   23754709.6604
  -7187027.66848  -5593832.51842  25359780.4454   25359777.2774
  22799555.43448  17753598.60243  25036835.4694   25036829.9654
  22837977.11748  17802601.35943  24981935.8444   24981931.2974
  22511247.81646  17547870.53742  26946694.3204   26946690.9494
  24740328.82846  19281473.50241  26971830.6804   26971826.7464
 04  7 28  6 14  0.0080000  0  9G 7G 5G 4G 9G24G28G31G26G29
   7650526.06649   5968638.79546  23646152.3204   23646147.9494
  -2991840.60247  -2322450.97342  26574112.8914   26574108.3834
 -12208103.12149  -9501630.92045  23688146.0944   23688142.0004
 -10850987.23449  -8442882.47345  23752225.5394   23752221.0004
  -7250416.43047  -5643226.36043  25347718.1174   25347714.1444
  22895440.50048  17828314.23143  25055081.2114   25055076.5084
  22966311.57048  17902602.22243  25006357.1414   25006352.4104
  22636895.13346  17645777.47942  26970604.5084   26970600.4924
  24862270.05146  19376492.61341  26995036.3524   26995031.3524
 04  7 28  6 14 30.0080000  0  9G 7G 5G 4G 9G24G28G31G26G29
   7736310.21949   6035483.57946  23662476.7974   23662472.9924
  -3041819.92647  -2361395.81142  26564601.9224   26564598.3484
 -12224719.91449  -9514579.06845  23684984.1094   23684979.8594
 -10863531.89849  -8452657.52945  23749838.4304   23749833.5194
  -7313603.15647  -5692462.73442  25335694.2974   25335690.0824
  22991526.56648  17903186.48343  25073365.8364   25073360.8094
  23094757.10248  18002689.63643  25030799.5784   25030795.0004
  22762572.88747  17743708.16242  26994520.4064   26994515.7734
  24984185.91846  19471491.99141  27018236.1094   27018231.8984
 04  7 28  6 15  0.0080000  0  9G 7G 5G 4G 9G24G28G31G26G29
   7822294.41849   6102484.25946  23678839.1874   23678834.7424
  -3091793.10247  -2400335.89742  26555093.0004   26555088.6914
 -12240806.22349  -9527113.84346  23681922.9534   23681918.7894
 -10875548.78949  -8462021.32245  23747551.7034   23747546.9494
  -7376591.38347  -5741544.44743  25323707.6254   25323703.8404
  23087807.78548  17978210.81943  25091688.2274   25091682.3984
  23223305.68848  18102857.38743  25055261.2504   25055256.9374
  22888271.79746  17841655.33942  27018440.0164   27018435.2974
  25106067.36745  19566464.49341  27041428.8054   27041424.7154
 04  7 28  6 15 30.0080000  0  9G 7G 5G 4G 9G24G28G31G26G29
   7908481.40249   6169642.94646  23695239.7344   23695235.5594
  -3141755.17646  -2439267.34342  26545585.0474   26545580.6094
 -12256355.98849  -9539230.54045  23678963.7974   23678959.5194
 -10887031.68749  -8470969.03045  23745366.7344   23745362.2194
  -7439373.51647  -5790465.58242  25311760.6174   25311756.6524
  23184288.43048  18053390.55543  25110047.3054   25110041.9804
  23351959.76248  18203107.30443  25079743.6564   25079739.4774
  23013993.41046  17939620.22742  27042363.6414   27042360.0044
  25227915.98846  19661411.51841  27064616.0394   27064611.2384
 04  7 28  6 16  0.0080000  0  9G 7G 5G 4G 9G24G28G31G26G29
   7994867.86749   6236957.06646  23711678.4304   23711674.3204
  -3191707.29747  -2478191.04442  26536079.5004   26536074.9924
 -12271368.87949  -9550928.88446  23676107.4774   23676102.6914
 -10897980.65249  -8479500.67845  23743283.1724   23743279.0084
  -7501948.73847  -5839225.50343  25299852.9774   25299849.0434
  23280966.73048  18128724.27843  25128444.5784   25128439.4304
  23480715.68048  18303436.59043  25104245.0704   25104240.6174
  23139732.62947  18037598.84642  27066291.2974   27066287.1484
  25349726.76645  19756329.02741  27087795.2034   27087790.8594
 04  7 28  6 16 30.0080000  0  9G 7G 5G 4G 9G24G28G31G26G29
   8081455.36349   6304427.84746  23728155.6094   23728150.8984
  -3241645.58647  -2517103.94042  26526576.3754   26526572.3244
 -12285839.90249  -9562205.00746  23673353.3124   23673349.0514
 -10908390.82449  -8487612.48945  23741302.1334   23741297.7894
  -7564311.08647  -5887819.52343  25287986.2194   25287981.4654
  23377845.96548  18204214.58243  25146879.9534   25146875.0434
  23609574.72748  18403846.23343  25128766.2034   25128761.0474
  23265489.74246  18135591.44642  27090222.6094   27090218.1524
  25471500.25446  19851217.42641  27110968.7274   27110964.5984
 04  7 28  6 17  0.0080000  0  9G 7G 5G 4G 9G24G28G31G26G29
   8168237.98849   6372050.67446  23744669.7734   23744665.1644
  -3291573.53547  -2556008.77642  26517075.2974   26517070.9224
 -12299771.48049  -9573060.77246  23670702.1484   23670697.5784
 -10918264.56249  -8495306.29345  23739423.1414   23739418.8164
  -7626462.24647  -5936248.99843  25276159.1644   25276154.9924
  23474921.96548  18279858.22343  25165353.4374   25165347.6844
  23738530.75048  18504331.44443  25153305.5394   25153300.9734
  23391257.16446  18233591.95942  27114154.6334   27114150.9734
  25593229.00046  19946070.96541  27134133.7894   27134128.8404
 04  7 28  6 17 30.0080000  0  9G 7G 5G 4G 9G24G28G31G26G29
   8255217.15249   6439826.64146  23761221.2734   23761216.8244
  -3341487.80547  -2594903.00142  26507576.4924   26507572.5354
 -12313158.58249  -9583492.27846  23668154.4844   23668150.4774
 -10927596.98849  -8502578.31345  23737647.0704   23737642.6054
  -7688396.46948  -5984509.41243  25264373.1174   25264368.7344
  23572197.64848  18355657.45443  25183864.4694   25183858.8874
  23867584.81348  18604893.05843  25177863.5864   25177859.5434
  23517034.97746  18331600.66942  27138089.8984   27138085.9654
  25714913.16446  20040889.90741  27157289.0314   27157284.3594
 04  7 28  6 18  0.0080000  0  9G 7G 5G 4G 9G24G28G31G26G29
   8342391.87949   6507754.99446  23777810.2894   23777805.8874
  -3391386.86747  -2633785.34042  26498081.3674   26498077.2934
 -12325998.65649  -9593497.52646  23665711.5164   23665707.6214
 -10936385.85549  -8509426.76745  23735975.1334   23735970.0824
  -7750110.20347  -6032598.03743  25252629.9614   25252626.0044
  23669673.68848  18431612.81343  25202413.6874   25202407.7694
  23996735.68848  18705530.10443  25202440.2344   25202435.3984
  23642820.71547  18429615.46242  27162024.9064   27162021.6484
  25836550.24246  20135671.90241  27180436.0234   27180431.4344
 04  7 28  6 18 30.0090000  0  9G 7G 5G 4G 9G24G28G31G26G29
   8429760.00449   6575834.04846  23794435.6454   23794431.6344
  -3441275.18747  -2672659.29942  26488588.2784   26488584.1534
 -12338293.69149  -9603078.05846  23663371.5284   23663367.2784
 -10944633.18749  -8515853.25745  23734405.4354   23734400.5714
  -7811606.19948  -6080516.96743  25240927.2474   25240924.0054
  23767350.01648  18507724.23943  25221000.8884   25220994.9234
  24125982.35548  18806241.79343  25227034.9424   25227030.4704
  23768612.13746  18527634.72942  27185962.7394   27185959.7164
  25958138.10946  20230415.70041  27203573.1144   27203569.2314
 04  7 28  6 19  0.0090000  0  9G 7G 5G 4G 9G24G28G31G26G29
   8517315.25449   6644058.91246  23811097.1694   23811092.7354
  -3491148.23847  -2711521.41542  26479097.8564   26479093.2824
 -12350040.23849  -9612231.20346  23661136.5284   23661132.3024
 -10952335.81249  -8521855.28445  23732939.8254   23732935.1734
  -7872876.60547  -6128260.12443  25229268.0444   25229264.2084
  23865221.14848  18583987.46343  25239624.9194   25239619.4504
  24255315.45747  18907020.83143  25251646.1534   25251641.6384
  23894398.75446  18625650.30142  27209899.8414   27209895.2474
  26079666.75046  20325113.35341  27226699.7164   27226694.5244
 04  7 28  6 19 30.0090000  0  9G 7G 5G 4G 9G24G28G31G26G29
   8605059.72349   6712431.21146  23827794.1854   23827789.9314
  -3541005.60247  -2750371.24042  26469610.0444   26469606.1614
 -12361235.87149  -9620955.06946  23659006.0134   23659001.8684
 -10959491.65649  -8527431.25946  23731577.8024   23731573.4354
  -7933919.81247  -6175826.25743  25217651.6694   25217647.9744
  23963291.03147  18660405.54943  25258286.9034   25258281.2474
  24384738.18447  19007869.71143  25276274.7864   25276269.8454
  24020182.55946  18723663.63642  27233834.9584   27233831.0674
  26201138.07445  20419766.36341  27249813.5364   27249809.9704
 04  7 28  6 20  0.0090000  0  9G 7G 5G 4G 9G24G28G31G26G29
   8692994.01249   6780951.44246  23844527.4894   23844523.2904
  -3590844.80546  -2789206.88242  26460126.2394   26460121.5324
 -12371876.80949  -9629246.70846  23656980.9504   23656976.8954
 -10966096.87549  -8532578.16046  23730320.9814   23730316.7634
  -7994731.02347  -6223211.61843  25206079.6144   25206075.5094
  24061562.08647  18736980.40243  25276987.1924   25276981.5244
  24514250.90247  19108788.70943  25300920.0674   25300915.2984
  24145962.59047  18821673.99742  27257770.7634   27257766.7274
  26322551.32846  20514374.02941  27272919.1454   27272914.4544
 04  7 28  6 20 30.0090000  0  9G 7G 5G 4G 9G24G28G31G26G29
   8781118.75449   6849620.06946  23861297.3414   23861293.0014
  -3640662.89847  -2828026.16642  26450645.8104   26450641.3334
 -12381958.80949  -9637102.81546  23655062.4584   23655058.0364
 -10972147.60949  -8537293.01245  23729169.4194   23729165.0794
  -8055304.92647  -6270412.03743  25194552.5994   25194548.7864
  24160036.33647  18813713.55943  25295726.3024   25295720.8104
  24643854.03947  19209778.15643  25325582.9034   25325578.1654
  24271738.18846  18919681.00442  27281704.7864   27281700.5094
  26443905.97345  20608936.08941  27296011.9974   27296007.8564
 04  7 28  6 21  0.0090000  0  9G 7G 5G 4G 9G24G28G31G26G29
   8869430.62149   6918434.50046  23878102.0674   23878097.9774
  -3690460.84847  -2866829.69742  26441169.5284   26441164.9034
 -12391482.28949  -9644523.69246  23653250.2784   23653245.8494
 -10977643.97749  -8541575.88846  23728123.5134   23728118.9934
  -8115640.90647  -6317427.07443  25183071.6064   25183067.4234
  24258712.12548  18890603.80043  25314503.4034   25314498.4354
  24773543.98447  19310835.28643  25350261.8724   25350257.3924
  24397504.39846  19017680.58242  27305637.1454   27305633.3994
  26565197.01245  20703448.62541  27319092.5994   27319088.1454
 04  7 28  6 21 30.0090000  0  9G 7G 5G 4G 9G24G28G31G26G29
   8957926.55949   6987392.37546  23894942.6144   23894937.9934
  -3740239.52747  -2905618.28242  26431696.5994   26431692.4544
 -12400446.86749  -9651509.07046  23651544.3724   23651539.7984
 -10982585.97749  -8545426.77946  23727183.1614   23727178.5634
  -8175737.66847  -6364255.72143  25171635.2864   25171631.3644
  24357587.91448  18967649.88743  25333318.8564   25333314.0834
  24903317.39847  19411957.40743  25374957.2164   25374952.6454
  24523256.78546  19115669.43842  27329567.3804   27329563.0604
  26686420.32045  20797908.31641  27342161.0674   27342156.2434
 04  7 28  6 22  0.0090000  0  9G 7G 5G 4G 9G24G28G31G26G29
   9046606.77749   7056493.83546  23911817.7944   23911813.8564
  -3789996.53147  -2944389.89842  26422227.7244   26422224.0014
 -12408848.98049  -9658056.17346  23649945.5674   23649941.0604
 -10986970.20749  -8548843.05646  23726348.8174   23726344.2744
  -8235590.64847  -6410894.37543  25160245.7244   25160241.3764
  24456665.39148  19044853.09143  25352172.8804   25352167.8294
  25033174.34047  19513144.65043  25399667.9034   25399663.6264
  24648994.18847  19213646.60442  27353494.8104   27353489.9544
  26807574.74645  20892314.34941  27365215.0994   27365211.5174
 04  7 28  6 22 30.0090000  0 10G 7G17G 5G 4G 9G24G28G31G26G29
   9135461.98849   7125731.66046  23928726.3174   23928722.3524
   -125159.93055    -86072.39051  28004040.0834   28004035.5244
  -3839738.75846  -2983150.02042  26412762.2084   26412758.2704
 -12416694.83249  -9664169.81746  23648452.6694   23648448.1144
 -10990802.85249  -8551829.52046  23725619.5914   23725614.9464
  -8295204.89847  -6457347.01143  25148901.5604   25148897.3724
  24555936.82048  19122207.45843  25371063.7244   25371057.8104
  25163105.24647  19614389.49543  25424393.6854   25424388.4354
  24774705.61746  19311603.57342  27377416.4894   27377412.4154
  26928649.82845  20986658.54441  27388255.5364   27388251.0134
 04  7 28  6 23  0.0090000  0 10G 7G17G 5G 4G 9G24G28G31G26G29
   9224487.88349   7195102.47546  23945667.5524   23945663.3374
   -189451.19145   -136169.61141  27991805.7004   27991801.2864
  -3889468.23447  -3021900.23242  26403299.1774   26403295.1854
 -12423985.55549  -9669850.89046  23647065.1224   23647060.9034
 -10994085.07049  -8554387.08246  23724994.9974   23724990.2354
  -8354580.30948  -6503613.56643  25137602.7554   25137598.5914
  24655399.57048  19199710.88543  25389990.8884   25389985.5204
  25293105.52048  19715688.42043  25449131.1854   25449127.0054
  24900385.42246  19409535.90542  27401332.6774   27401328.5954
  27049639.71945  21080936.40941  27411278.6854   27411275.0714
 04  7 28  6 23 30.0090000  0 10G 7G17G 5G 4G 9G24G28G31G26G29
   9313685.53549   7264607.14546  23962641.5284   23962637.1614
   -253825.94144   -186331.74441  27979554.9034   27979550.8844
  -3939181.95347  -3060638.14442  26393839.2554   26393835.2744
 -12430717.03949  -9675096.19446  23645784.3414   23645779.6884
 -10996812.75849  -8556512.54246  23724475.7704   23724471.4384
  -8413711.77347  -6549689.99543  25126349.7944   25126346.3644
  24755056.18448  19277365.36143  25408954.5754   25408949.1104
  25423175.98848  19817042.03543  25473883.0754   25473878.1534
  25026033.10946  19507443.18342  27425242.8414   27425238.7864
  27170544.09845  21175147.62441  27434286.3254   27434281.4504
 04  7 28  6 24  0.0090000  0 10G 7G17G 5G 4G 9G24G28G31G26G29
   9403052.82848   7334244.00446  23979647.3804   23979642.7004
   -318282.66445   -236557.67441  27967288.6774   27967285.3924
  -3988879.62547  -3099363.55242  26384381.7634   26384377.4584
 -12436887.97749  -9679904.72146  23644609.9814   23644605.6064
 -10998985.16049  -8558205.30946  23724062.9974   23724058.0674
  -8472597.11347  -6595574.67343  25115144.5994   25115141.1384
  24854905.93048  19355170.34643  25427955.5834   25427949.8954
  25553314.40248  19918448.59743  25498647.3254   25498642.2984
  25151645.40647  19605322.81342  27449146.2944   27449142.1734
  27291359.80544  21269289.65441  27457276.8104   27457272.6734
 04  7 28  6 24 30.0090000  0 10G 7G17G 5G 4G 9G24G28G31G26G29
   9492594.93848   7404017.06946  23996686.0754   23996682.2044
   -382812.81245   -286840.84441  27955009.6694   27955005.8294
  -4038553.79747  -3138070.66142  26374929.2164   26374925.1884
 -12442490.06249  -9684269.97046  23643543.8804   23643539.6494
 -11000594.03948  -8559458.97346  23723756.3254   23723751.7674
  -8531226.80147  -6641260.15643  25103988.2634   25103984.1424
  24954955.57048  19433131.10043  25446994.6924   25446988.4504
  25683525.75048  20019912.00043  25523425.6224   25523421.2514
  25277225.72746  19703177.61942  27473042.5054   27473038.7474
  27412090.60945  21363365.65441  27480250.7314   27480246.0244
 04  7 28  6 25  0.0090000  0 10G 7G17G 5G 4G 9G24G28G31G26G29
   9582311.46148   7473926.03446  24013759.1224   24013754.6774
   -447412.91545   -337178.55541  27942717.1454   27942712.4234
  -4088202.52047  -3176757.92042  26365481.0674   26365477.1854
 -12447521.08649  -9688190.24346  23642586.2784   23642581.8564
 -11001636.90649  -8560271.59246  23723557.7784   23723553.3374
  -8589596.85547  -6686743.29243  25092880.3644   25092876.6224
  25055206.21948  19511248.50143  25466071.3564   25466065.9194
  25813809.22348  20121431.56843  25548218.1534   25548213.2824
  25402772.34446  19801006.11942  27496933.5674   27496929.1694
  27532734.68844  21457374.01241  27503209.2394   27503205.0204
 04  7 28  6 25 30.0090000  0 10G 7G17G 5G 4G 9G24G28G31G26G29
   9672201.03549   7543969.86746  24030864.7084   24030860.2824
   -512080.88345   -387569.23941  27930410.6924   27930406.1814
  -4137824.83247  -3215424.64142  26356038.2244   26356034.6694
 -12451978.81649  -9691663.78546  23641738.1774   23641734.0014
 -11002112.04749  -8560641.82146  23723467.3564   23723462.5134
  -8647704.77747  -6732022.18243  25081822.8804   25081819.2004
  25155658.08248  19589522.65343  25485186.7864   25485181.5634
  25944163.44548  20223006.29543  25573023.7634   25573018.8604
  25528282.48846  19898806.22742  27520818.3884   27520813.2594
  27653289.57844  21551312.87541  27526149.0914   27526146.0054
 04  7 28  6 26  0.0090000  0 10G 7G17G 5G 4G 9G24G28G31G26G29
   9762264.74249   7614149.36846  24048002.9584   24047998.5244
   -576811.91445   -438008.92741  27918093.2474   27918088.1264
  -4187417.59447  -3254068.30742  26346601.3174   26346597.0564
 -12455859.39549  -9694687.61246  23640999.4274   23640995.3884
 -11002015.53149  -8560566.60346  23723485.7314   23723481.2434
  -8705544.89847  -6777092.38343  25070815.9744   25070812.1104
  25256313.55548  19667955.48143  25504341.0054   25504335.9074
  26074589.23048  20324636.76543  25597842.8254   25597838.3564
  25653755.68446  19996577.55242  27544693.7474   27544690.3024
  27773754.86744  21645181.95041  27549074.0134   27549069.8924
 04  7 28  6 26 30.0090000  0 10G 7G17G 5G 4G 9G24G28G31G26G29
   9852497.54748   7684460.65346  24065173.9274   24065169.2824
   -641607.75045   -488499.18741  27905762.6614   27905758.6224
  -4236983.43047  -3292691.00542  26337169.2864   26337165.0094
 -12459165.16849  -9697263.53346  23640370.6694   23640366.2634
 -11001349.41448  -8560047.54246  23723612.5054   23723608.0524
  -8763118.14848  -6821954.66643  25059860.8024   25059856.9354
  25357169.00848  19746544.14543  25523533.5754   25523527.8884
  26205081.34448  20426318.93943  25622674.5444   25622669.6734
  25779185.50046  20094315.03342  27568562.5054   27568558.4314
  27894124.24244  21738976.26441  27571979.9114   27571974.6424
 04  7 28  6 27  0.0090000  0 10G 7G17G 5G 4G 9G24G28G31G26G29
   9942899.68048   7754903.87746  24082376.9114   24082372.2784
   -706464.20745   -539036.63041  27893421.8804   27893416.3024
  -4286519.70747  -3331290.62742  26327742.4584   26327737.8064
 -12461892.35249  -9699388.61146  23639851.5054   23639847.1024
 -11000110.49248  -8559082.15146  23723848.2634   23723843.2784
  -8820420.21547  -6866605.60644  25048956.4744   25048952.5564
  25458226.49248  19825290.24143  25542763.7314   25542758.2704
  26335639.91448  20528052.89243  25647519.0134   25647514.2744
  25904570.83246  20192017.87742  27592421.9664   27592418.5134
  28014396.84444  21832695.16241  27594866.0754   27594862.2594
 04  7 28  6 27 30.0090000  0 10G 7G17G 5G 4G 9G24G28G31G26G29
  10033470.25048   7825478.34746  24099611.7864   24099607.6384
   -771378.92246   -589619.47241  27881067.7244   27881063.6734
  -4336025.48847  -3369866.53242  26318322.1924   26318317.3494
 -12464039.30949  -9701061.55746  23639443.2634   23639438.6854
 -10998297.09848  -8557669.11146  23724193.3494   23724188.9504
  -8877447.89148  -6911042.73543  25038104.2244   25038100.2594
  25559486.10947  19904193.84243  25562032.3104   25562026.8764
  26466263.53947  20629837.53343  25672376.0364   25672370.9774
  26029909.03946  20289683.98342  27616273.8334   27616270.2244
  28134570.23044  21926336.80641  27617734.9584   27617729.6454
 04  7 28  6 28  0.0090000  0 10G 7G17G 5G 4G 9G24G28G31G26G29
  10124208.77049   7896183.68446  24116878.7864   24116874.3954
   -836348.59045   -640245.17241  27868703.8954   27868699.8254
  -4385498.40247  -3408416.80542  26308907.6224   26308902.9154
 -12465603.64149  -9702280.51446  23639145.4744   23639141.2824
 -10995906.61749  -8555806.38646  23724648.2394   23724643.4194
  -8934197.18448  -6955262.94643  25027305.4744   25027300.9974
  25660949.02047  19983255.84242  25581340.2314   25581335.0284
  26596951.93047  20731672.63043  25697245.2784   25697240.0524
  26155198.49646  20387312.11942  27640115.1774   27640111.8174
  28254642.68844  22019899.65241  27640583.2394   27640578.7434
 04  7 28  6 28 30.0090000  0 10G 7G17G 5G 4G 9G24G28G31G26G29
  10215112.27748   7967017.58346  24134176.9814   24134172.9584
   -901372.55146   -690913.24541  27856331.1774   27856325.7354
  -4434939.46947  -3446942.26242  26299499.5284   26299494.5994
 -12466585.24249  -9703045.39646  23638958.5524   23638954.0484
 -10992939.42649  -8553494.29046  23725212.9974   23725208.1814
  -8990666.84848  -6999265.28043  25016559.1614   25016555.4584
  25762613.75847  20062475.09943  25600686.4584   25600681.1144
  26727701.75847  20833555.61243  25722125.5364   25722121.0324
  26280434.63345  20484898.73341  27663947.1224   27663943.5794
  28374610.06644  22113380.73841  27663412.6774   27663408.0014
 04  7 28  6 29  0.0090000  0 10G 7G17G 5G 4G 9G24G28G31G26G29
  10306180.82448   8037980.08346  24151506.9974   24151502.6814
   -966447.30546   -741620.81341  27843947.4664   27843942.6814
  -4484346.19147  -3485440.95642  26290097.7944   26290093.1774
 -12466981.36349  -9703354.04446  23638883.4894   23638878.6494
 -10989392.62149  -8550730.53346  23725887.5914   23725883.1734
  -9046852.93048  -7043046.61844  25005867.5204   25005863.5714
  25864481.99247  20141852.93543  25620071.3254   25620065.7164
  26858513.02747  20935486.43743  25747018.7704   25747013.7244
  26405616.27045  20582442.84742  27687769.0674   27687764.8954
  28494471.22744  22206779.03541  27686221.3494   27686216.0674
 04  7 28  6 29 30.0090000  0 10G 7G17G 5G 4G 9G24G28G31G26G29
  10397414.61348   8109071.34746  24168868.2394   24168863.9744
  -1031569.09846   -792365.04242  27831555.0994   27831550.5404
  -4533716.48047  -3523911.28842  26280702.9034   26280698.5134
 -12466789.02348  -9703204.16846  23638919.4194   23638915.5954
 -10985263.28949  -8547512.87246  23726673.7244   23726668.8954
  -9102750.91848  -7086603.48444  24995230.5204   24995226.3454
  25966554.93848  20221390.29243  25639495.2864   25639489.9354
  26989385.53548  21037465.02943  25771923.0444   25771917.9854
  26530741.77345  20679943.24342  27711578.2944   27711575.2594
  28614224.75044  22300093.47341  27709008.8804   27709005.0794
 04  7 28  6 30  0.0090000  0 10G 7G17G 5G 4G 9G24G28G31G26G29
  10488810.37949   8180288.82146  24186260.3804   24186255.4624
  -1096737.48846   -843145.60641  27819154.2634   27819149.3454
  -4583051.22747  -3562353.85342  26271314.4424   26271309.9384
 -12466008.59449  -9702596.03646  23639068.2554   23639063.9034
 -10980552.20349  -8543841.88446  23727570.0204   23727565.2594
  -9158360.23048  -7129935.38844  24984648.4504   24984644.5404
  26068830.86747  20301085.82343  25658957.9114   25658952.3294
  27120315.87548  21139488.68743  25796837.9584   25796832.9704
  26655806.58745  20777396.30442  27735378.3564   27735374.6494
  28733866.24244  22393320.58241  27731777.1534   27731772.8494
 04  7 28  6 30 30.0090000  0 10G 7G17G 5G 4G 9G24G28G31G26G29
  10580365.57849   8251630.54446  24203682.7244   24203678.0364
  -1161951.53546   -893961.68741  27806744.4424   27806739.6774
  -4632350.38347  -3600768.77142  26261933.5604   26261929.2204
 -12464640.17249  -9701529.73746  23639328.9974   23639324.4624
 -10975258.97749  -8539717.29846  23728577.3804   23728572.6494
  -9213679.06248  -7173040.97844  24974121.6144   24974117.7904
  26171308.60547  20380938.59043  25678459.3024   25678453.4814
  27251301.53548  21241555.44343  25821763.7784   25821759.1494
  26780806.90645  20874799.10442  27759164.8884   27759161.8844
  28853391.93844  22486457.46541  27754521.5994   27754517.3494
 04  7 28  6 31  0.0090000  0  9G 7G17G 5G 4G 9G24G28G31G26
  10672082.85949   8323098.55246  24221136.0524   24221131.3994
  -1227204.99246   -944808.46041  27794326.4664   27794322.3064
  -4681608.97347  -3639152.03942  26252559.6454   26252554.9974
 -12462677.98849  -9700000.74546  23639702.3494   23639697.5284
 -10969378.32848  -8535134.95746  23729696.2474   23729691.9814
  -9268700.73847  -7215915.00844  24963651.2784   24963647.3764
  26273992.20747  20460951.75643  25697998.4584   25697993.4154
  27382345.02348  21343667.22543  25846700.8644   25846695.8334
  26905744.00845  20972152.69341  27782939.9274   27782935.6534
 04  7 28  6 31 30.0090000  0  9G 7G17G 5G 4G 9G24G28G31G26
  10763959.23048   8394690.51846  24238619.6614   24238614.9234
  -1292497.26246   -995685.65341  27781902.0524   27781898.2984
  -4730827.81647  -3677504.33142  26243193.7944   26243189.0994
 -12460122.50449  -9698009.45046  23640188.6064   23640184.0634
 -10962910.85249  -8530095.36346  23730927.0054   23730922.3334
  -9323423.93747  -7258556.44744  24953237.8954   24953234.0674
  26376880.06648  20541124.14743  25717577.8804   25717572.1384
  27513442.98848  21445821.48543  25871647.4584   25871642.7554
  27030613.17645  21069453.36841  27806701.1304   27806697.7594
 04  7 28  6 32  0.0090000  0  9G 7G17G 5G 4G 9G24G28G31G26
  10856001.31649   8466411.63546  24256134.3414   24256129.7164
  -1357818.20746  -1046585.06441  27769472.5674   27769467.7704
  -4779997.98047  -3715818.73542  26233836.8254   26233832.5094
 -12456964.68449  -9695548.79746  23640789.2244   23640784.6104
 -10955847.12949  -8524591.16346  23732271.4114   23732266.6494
  -9377837.91448  -7300956.91944  24942882.7944   24942879.0244
  26479980.15248  20621461.89043  25737197.2704   25737191.5524
  27644601.97348  21548023.29043  25896606.1694   25896601.5204
  27155419.74244  21166705.19342  27830451.7474   27830448.1574
 04  7 28  6 32 30.0090000  0  9G 7G17G 5G 4G 9G24G28G31G26
  10948205.61349   8538259.14346  24273680.3174   24273675.7314
  -1423167.67646  -1097506.71541  27757036.4114   27757032.5014
  -4829120.61347  -3754096.05942  26224489.2004   26224484.7124
 -12453205.16849  -9692619.31146  23641504.6774   23641500.0634
 -10948188.16849  -8518623.13446  23733728.8174   23733724.2434
  -9431942.19948  -7343116.10744  24932587.5834   24932583.7434
  26583290.14847  20701963.15643  25756856.5444   25756850.6654
  27775818.37148  21650269.79643  25921576.1304   25921571.5914
  27280158.73445  21263904.37141  27854189.2784   27854184.3644
 04  7 28  6 33  0.0090000  0  9G 7G17G 5G 4G 9G24G28G31G26
  11040568.07049   8610229.88746  24291256.1224   24291251.7244
  -1488546.22746  -1148450.97641  27744595.0134   27744591.0794
  -4878197.73047  -3792337.94643  26215150.5364   26215145.8764
 -12448845.59849  -9689222.23546  23642334.5444   23642329.8844
 -10939935.44949  -8512192.45046  23735299.2634   23735294.7434
  -9485736.81647  -7385033.96644  24922350.6064   24922346.9584
  26686807.58247  20782626.04742  25776555.1534   25776549.3064
  27907087.85948  21752557.72243  25946555.5524   25946550.6494
  27404824.73045  21361046.71442  27877911.5364   27877908.1424
 04  7 28  6 33 30.0090000  0  9G 7G17G 5G 4G 9G24G28G31G26
  11133085.97349   8682321.74346  24308862.0204   24308856.9624
  -1553953.16046  -1199417.42642  27732148.2244   27732144.4854
  -4927229.62547  -3830544.56142  26205819.6304   26205815.3644
 -12443885.93049  -9685357.55946  23643278.1614   23643273.3804
 -10931089.20749  -8505299.26746  23736982.5754   23736977.9744
  -9539220.68748  -7426709.68744  24912173.0754   24912168.9894
  26790530.82047  20863449.38242  25796292.4034   25796286.9464
  28038407.62947  21854884.83743  25971545.3494   25971540.0174
  27529413.40245  21458128.81741  27901620.7084   27901616.4854
 04  7 28  6 34  0.0090000  0  9G 7G17G 5G 4G 9G24G28G31G26
  11225758.79749   8754534.33346  24326496.9424   24326492.2274
  -1619385.22346  -1250403.40741  27719697.5444   27719693.7394
  -4976214.33247  -3868714.41143  26196498.0914   26196493.7784
 -12438324.36749  -9681023.86246  23644336.4114   23644331.7864
 -10921647.32849  -8497941.94446  23738779.1854   23738775.0244
  -9592390.02748  -7468140.34044  24902055.2554   24902051.2984
  26894460.86347  20944433.78743  25816069.5834   25816064.7634
  28169777.11347  21957250.67243  25996543.6454   25996539.2784
  27653923.06645  21555149.26842  27925313.6064   27925309.9424
 04  7 28  6 34 30.0090000  0  9G 7G17G 5G 4G 9G24G28G31G26
  11318582.55949   8826864.54346  24344160.7864   24344156.2274
  -1684842.96146  -1301409.37741  27707240.9744   27707237.0994
  -5025153.75447  -3906848.98743  26187184.5364   26187180.8884
 -12432162.30949  -9676222.24946  23645509.0364   23645504.7394
 -10911611.61349  -8490121.90846  23740688.8414   23740684.6304
  -9645244.71148  -7509325.80644  24891997.1774   24891993.0914
  26998594.78548  21025577.13043  25835886.2164   25835880.4584
  28301191.99647  22059651.83743  26021551.2944   26021546.7084
  27778347.98844  21652103.73942  27948990.0914   27948987.1424
 04  7 28  6 35  0.0090000  0  9G 7G17G 5G 4G 9G24G28G31G26
  11411556.30549   8899311.60745  24361852.8414   24361848.3414
  -1750323.70746  -1352433.40442  27694780.5284   27694775.8494
  -5074046.16846  -3944946.96742  26177880.6144   26177876.8334
 -12425398.14849  -9670951.47746  23646796.5134   23646792.0794
 -10900980.51249  -8481837.92746  23742712.1694   23742707.4114
  -9697781.64148  -7550263.65844  24881999.8884   24881995.9154
  27102933.27748  21106879.84742  25855741.0604   25855735.6344
  28432651.39547  22162087.71743  26046567.5834   26046562.7164
  27902686.12946  21748990.65042  27972652.2394   27972648.2084
 04  7 28  6 35 30.0090000  0  9G 7G17G 5G 4G 9G24G28G31G26
  11504672.39149   8971869.59546  24379572.3414   24379567.7944
  -1815831.58646  -1403478.41641  27682314.5054   27682310.2204
  -5122897.30947  -3983012.74642  26168584.9424   26168580.7824
 -12418037.29749  -9665215.74846  23648197.1854   23648192.4074
 -10889759.15649  -8473094.00146  23744847.2244   23744842.5834
  -9750004.71548  -7590956.95844  24872062.0444   24872058.2554
  27207469.82048  21188336.87542  25875633.5914   25875628.5134
  28564147.44947  22264552.16343  26071590.4664   26071585.1494
  28026928.26645  21845802.67842  27996293.9354   27996290.7084
 04  7 28  6 36  0.0090000  0  9G 7G17G 5G 4G 9G24G28G31G26
  11597934.52349   9044541.38945  24397319.3884   24397314.7394
  -1881359.38346  -1454539.00342  27669845.3024   27669840.6924
  -5171701.03546  -4021041.57443  26159297.7394   26159293.7514
 -12410073.57849  -9659010.23146  23649712.4034   23649707.7514
 -10877941.53949  -8463885.47746  23747096.1774   23747091.4424
  -9801906.29348  -7631399.74744  24862185.4664   24862182.0054
  27312209.37948  21269952.10642  25895564.9504   25895559.1224
  28695683.68447  22367047.92743  26096620.5134   26096615.8104
  28151076.73046  21942541.71041  28019918.7944   28019915.8454
 04  7 28  6 36 30.0090000  0  9G 7G17G 5G 4G 9G24G28G31G26
  11691342.69549   9117326.98046  24415094.5754   24415089.7824
  -1946903.37146  -1505612.22541  27657372.4664   27657368.4314
  -5220455.01647  -4059031.66142  26150020.2704   26150015.8134
 -12401504.67649  -9652333.16946  23651343.0524   23651338.3334
 -10865525.48049  -8454210.62046  23749458.8024   23749454.6184
  -9853482.43048  -7671588.91644  24852371.0444   24852366.9854
  27417152.89847  21351726.27442  25915535.1224   25915528.9154
  28827260.05147  22469574.95043  26121658.9424   26121654.1494
  28275130.14546  22039206.73241  28043525.7244   28043522.3104
 04  7 28  6 37  0.0090000  0  9G 7G17G 5G 4G 9G24G28G31G26
  11784892.95749   9190223.28046  24432896.7634   24432892.2244
  -2012464.12946  -1556698.50541  27644897.1144   27644892.8254
  -5269160.94147  -4096984.28843  26140751.3644   26140747.4774
 -12392332.07049  -9645185.67546  23653088.2864   23653084.0524
 -10852512.43449  -8444070.57246  23751935.1694   23751930.7354
  -9904732.78148  -7711524.24844  24842618.1224   24842614.5284
  27522298.07447  21433657.57642  25935543.7474   25935537.6774
  28958872.52347  22572130.12843  26146703.5134   26146699.1814
  28399083.07844  22135793.41642  28067112.1774   28067109.5834
 04  7 28  6 37 30.0090000  0  9G 7G17G 5G 4G 9G24G28G31G26
  11878584.25849   9263229.49245  24450725.1614   24450720.7004
  -2078039.14546  -1607795.93441  27632418.7314   27632413.7314
  -5317817.40647  -4134898.38942  26131492.8494   26131488.1344
 -12382554.70749  -9637566.95146  23654948.6774   23654945.0244
 -10838901.22349  -8433464.43446  23754525.2634   23754520.8254
  -9955654.63748  -7751203.60944  24832928.1534   24832923.7904
  27627644.98047  21515746.06042  25955590.4034   25955585.2394
  29090519.94547  22674712.51543  26171755.6224   26171751.0324
  28522933.01645  22232299.84442  28090681.3644   28090677.6344
 04  7 28  6 38  0.0090000  0  9G 7G17G 5G 4G 9G24G28G31G26
  11972416.77749   9336345.73045  24468580.9504   24468576.4584
  -2143624.96146  -1658901.77042  27619937.7164   27619933.1424
  -5366422.03147  -4172772.08243  26122243.6384   26122239.3684
 -12372170.05149  -9629475.01146  23656925.3174   23656920.7824
 -10824689.35249  -8422390.24046  23757229.7394   23757225.0014
 -10006243.73848  -7790623.67844  24823301.5834   24823297.5204
  27733194.91447  21597992.77642  25975675.7394   25975670.6454
  29222202.19547  22777322.03843  26196813.9424   26196808.7004
  28646678.54345  22328724.94841  28114229.2864   28114225.7164
 04  7 28  6 38 30.0090000  0  9G 7G17G 5G 4G 9G24G28G31G26
  12066389.27749   9409571.06145  24486463.5054   24486458.7394
  -2209218.94546  -1710013.91842  27607456.2244   27607450.8954
  -5414973.77046  -4210604.58842  26113004.6384   26112999.9934
 -12361177.18449  -9620909.13946  23659017.0204   23659012.5604
 -10809875.68449  -8410847.11946  23760048.5204   23760044.1024
 -10056497.78148  -7829782.64344  24813738.0604   24813734.1574
  27838947.90247  21680397.67042  25995800.0834   25995794.6924
  29353918.11746  22879957.82043  26221878.4504   26221873.6654
  28770317.50045  22425066.94442  28137757.0134   28137752.9234
 04  7 28  6 39  0.0090000  0  9G 7G17G 5G 4G 9G24G28G31G26
  12160497.72749   9482902.32046  24504371.7164   24504367.4584
  -2274821.75846  -1761132.91142  27594972.1064   27594967.4314
  -5463474.40246  -4248397.26843  26103774.9354   26103771.3134
 -12349577.96549  -9611870.77746  23661224.4424   23661219.7394
 -10794462.42249  -8398836.77746  23762981.5834   23762977.0284
 -10106416.71948  -7868680.51244  24804239.0914   24804234.8374
  27944901.14146  21762958.64542  26015962.2864   26015956.3844
  29485663.51247  22982616.58043  26246948.8494   26246944.4854
  28893844.10545  22521321.47842  28161263.0674   28161259.1454
 04  7 28  6 39 30.0090000  0  9G 7G17G 5G 4G 9G24G28G31G26
  12254743.80149   9556340.80845  24522305.9584   24522301.6694
  -2340428.18446  -1812254.86342  27582488.0284   27582482.8724
  -5511919.90647  -4286146.95142  26094555.8174   26094551.9584
 -12337368.45749  -9602356.87046  23663547.6694   23663543.2904
 -10778445.76249  -8386356.26146  23766029.7164   23766025.0244
 -10155994.85548  -7907312.83644  24794804.5364   24794801.0244
  28051057.47347  21845677.84842  26036163.4034   26036157.7164
  29617439.89847  23085299.44742  26272025.4354   26272020.9584
  29017258.65246  22617488.61941  28184748.1614   28184744.3454
 04  7 28  6 40  0.0100000  0  9G 7G17G 5G 4G 9G24G28G31G26
  12349129.02749   9629887.73045  24540266.8614   24540262.9124
  -2406038.46946  -1863379.69842  27570002.4004   27569997.6434
  -5560310.85246  -4323854.17343  26085347.6584   26085343.1624
 -12324547.64549  -9592366.62246  23665987.1434   23665983.1464
 -10761824.69549  -8373404.77546  23769192.5414   23769188.0104
 -10205231.62548  -7945679.12444  24785435.0574   24785431.6974
  28157420.02347  21928557.73042  26056403.2364   26056397.6894
  29749250.07047  23188008.64543  26297107.8774   26297103.2404
  29140562.25446  22713569.36441  28208211.6584   28208207.6624
 04  7 28  6 40 30.0100000  0  9G 7G17G 5G 4G 9G24G28G31G26
  12443644.07049   9703535.81945  24558252.5644   24558248.2444
  -2471647.98446  -1914503.98241  27557516.7284   27557512.6934
  -5608644.86347  -4361517.01843  26076149.9634   26076145.5454
 -12311117.60949  -9581901.65346  23668543.0644   23668538.8144
 -10744601.09049  -8359983.78646  23772470.0884   23772465.4164
 -10254123.14548  -7983776.40644  24776131.3614   24776127.4904
  28263979.60247  22011591.18142  26076681.6584   26076674.8694
  29881081.87147  23290734.74842  26322194.5644   26322189.5534
  29263742.18045  22809553.70242  28231651.6664   28231648.3184
 04  7 28  6 41  0.0100000  0  9G 7G17G 5G 4G 9G24G28G31G26
  12538291.91849   9777287.38345  24576263.6434   24576259.0604
  -2537255.18446  -1965626.45442  27545032.2914   27545027.9084
  -5656921.41447  -4399135.10543  26066963.0104   26066958.7684
 -12297075.89549  -9570960.05846  23671215.3464   23671211.0184
 -10726772.42649  -8346091.32246  23775862.5184   23775858.1314
 -10302667.33648  -8021603.05144  24766893.3224   24766889.9904
  28370741.13347  22094781.99042  26096996.8224   26096991.7324
  30012939.75847  23393481.13442  26347286.0184   26347281.0604
  29386801.18046  22905443.79342  28255069.6664   28255065.6434
 04  7 28  6 41 30.0100000  0  9G 7G17G 5G 4G 9G24G28G31G26
  12633069.57849   9851140.09345  24594299.2444   24594294.7604
  -2602859.90646  -2016747.00242  27532548.5724   27532543.4944
  -5705141.12147  -4436708.84243  26057787.7364   26057782.8224
 -12282423.35549  -9559542.48846  23674003.3774   23673998.8934
 -10708339.80949  -8331728.23946  23779370.2684   23779366.0414
 -10350863.19548  -8059158.26044  24757722.6114   24757718.8814
  28477702.51647  22178128.48142  26117351.1584   26117345.6314
  30144820.50048  23496245.34442  26372382.2054   26372377.1784
  29509734.69546  23001236.18541  28278462.5644   28278458.4124
 04  7 28  6 42  0.0100000  0  9G 7G17G 5G 4G 9G24G28G31G26
  12727978.18849   9925094.87245  24612359.7914   24612355.4084
  -2668457.44946  -2067861.97242  27520065.9164   27520061.2214
  -5753301.12147  -4474236.09043  26048622.9324   26048618.1464
 -12267157.18449  -9547646.76146  23676908.3774   23676904.3224
 -10689300.05949  -8316892.05646  23782993.3384   23782988.6154
 -10398705.86348  -8096438.23045  24748618.3614   24748614.8074
  28584865.97347  22261632.49742  26137743.7284   26137738.1504
  30276725.09447  23599028.17942  26397483.3224   26397478.0214
  29632542.47346  23096930.49641  28301832.6974   28301828.0844
 04  7 28  6 42 30.0100000  0  9G 7G17G 5G 4G 9G24G28G31G26
  12823018.00849   9999151.86645  24630445.2364   24630440.6854
  -2734043.95746  -2118968.26841  27507584.6274   27507580.5574
  -5801398.11747  -4511714.24142  26039470.0104   26039465.6464
 -12251274.54349  -9535270.68046  23679930.7754   23679926.4594
 -10669650.88349  -8301581.00946  23786732.6744   23786728.1034
 -10446191.14548  -8133439.74144  24739581.7914   24739578.2914
  28692233.13747  22345295.19242  26158175.1274   26158169.2254
  30408653.83247  23701829.76142  26422587.8224   26422582.6974
  29755223.38746  23192525.98341  28325178.4084   28325173.6934
 04  7 28  6 43  0.0100000  0  9G 7G17G 5G 4G 9G24G28G31G26
  12918187.86749  10073310.19045  24648555.8224   24648550.9044
  -2799617.16446  -2170064.24641  27495106.3384   27495102.1394
  -5849431.19948  -4549142.59143  26030329.8774   26030325.1584
 -12234775.28549  -9522414.11146  23683070.5104   23683065.7174
 -10649391.59849  -8285794.56046  23790587.9324   23790583.1234
 -10493316.51249  -8170160.81144  24730614.3614   24730610.4944
  28799803.59047  22429116.32842  26178645.0024   26178638.6394
  30540605.44547  23804649.23142  26447697.0574   26447692.3504
  29877774.90646  23288020.69041  28348498.6894   28348494.9944
 04  7 28  6 43 30.0100000  0  9G 7G17G 5G 4G 9G24G28G31G26
  13013483.84849  10147566.80045  24666689.6744   24666685.0494
  -2865177.68746  -2221150.38042  27482630.0334   27482626.6664
  -5897401.85547  -4586522.26943  26021201.5724   26021196.5374
 -12217661.18449  -9509078.43146  23686327.4394   23686322.3534
 -10628524.27049  -8269534.30046  23794558.6114   23794554.0254
 -10540082.47348  -8206601.79844  24721715.0104   24721711.7214
  28907574.64847  22513093.77142  26199153.6194   26199147.2794
  30672575.74247  23907483.22342  26472810.7364   26472805.9324
  30000191.68046  23383410.40841  28371793.5334   28371790.0494
 04  7 28  6 44  0.0100000  0  9G 7G17G 5G 4G 9G24G28G31G26
  13108907.04349  10221922.54345  24684847.8304   24684843.5064
  -2930720.82846  -2272222.91042  27470157.9784   27470153.8074
  -5945306.83648  -4623850.81043  26012085.3694   26012080.6704
 -12199929.46149  -9495261.50846  23689701.7684   23689696.8734
 -10607046.04749  -8252798.01646  23798645.7444   23798641.6854
 -10586483.96548  -8242758.80544  24712885.4004   24712881.4864
  29015548.67246  22597229.36442  26219699.5184   26219694.1894
  30804565.89847  24010332.66442  26497927.8694   26497923.1034
  30122473.34446  23478694.79341  28395062.5804   28395059.5104
 04  7 28  6 44 30.0100000  0  9G 7G17G 5G 4G 9G24G28G31G26
  13204457.67249  10296377.56445  24703030.6034   24703025.9784
  -2996242.94546  -2323279.07542  27457689.8304   27457685.5334
  -5993143.55148  -4661126.14343  26002981.8464   26002977.3304
 -12181578.07049  -9480961.72946  23693193.4944   23693188.9674
 -10584954.90649  -8235584.14346  23802849.8384   23802845.5724
 -10632516.99648  -8278628.69044  24704125.2214   24704121.6624
  29123726.66047  22681523.88743  26240285.6664   26240280.1314
  30936575.98447  24113197.67142  26523048.4394   26523043.6744
  30244618.80545  23573873.04441  28418307.1584   28418302.9124
 04  7 28  6 45  0.0100000  0  9G 7G17G 5G 4G 9G24G28G31G26
  13300132.37949  10370929.28845  24721237.2214   24721232.2564
  -3061743.86345  -2374318.71242  27445225.8074   27445221.2564
  -6040912.96148  -4698349.01843  25993891.2524   25993887.7054
 -12162608.47749  -9466180.21546  23696803.3774   23696798.9284
 -10562252.30549  -8217893.80746  23807169.8074   23807165.1854
 -10678181.31249  -8314211.25644  24695435.7364   24695431.8224
  29232106.37947  22765975.59843  26260909.2834   26260904.0604
  31068602.64547  24216075.58142  26548172.0024   26548167.3184
  30366623.30946  23668941.48641  28441523.9864   28441520.0144
 04  7 28  6 45 30.0100000  0  9G 7G17G 5G 4G 9G24G28G31G26
  13395929.14149  10445576.11745  24739466.6744   24739462.1314
  -3127222.12946  -2425340.77442  27432765.3144   27432761.0144
  -6088614.48448  -4735519.04143  25984814.1584   25984810.1974
 -12143020.97749  -9450917.23346  23700530.8144   23700526.4084
 -10538938.25849  -8199727.01346  23811606.5644   23811601.9164
 -10723475.20749  -8349505.20744  24686816.5574   24686812.6234
  29340686.96546  22850583.82042  26281571.2214   26281566.0534
  31200643.82447  24318964.78942  26573298.7214   26573294.1074
  30488483.46145  23763897.42741  28464712.8224   28464709.6544
 04  7 28  6 46  0.0100000  0  9G 7G17G 5G 4G 9G24G28G31G26
  13491848.57049  10520318.52745  24757719.6274   24757714.8814
  -3192673.59045  -2476341.88342  27420310.0574   27420306.2094
  -6136245.18748  -4772633.85143  25975750.5024   25975746.5144
 -12122813.30149  -9435170.98246  23704376.1664   23704371.8034
 -10515010.45349  -8181081.96846  23816159.5644   23816154.9354
 -10768394.28149  -8384507.06745  24678268.7604   24678264.9634
  29449469.89147  22935349.73042  26302272.5254   26302266.2484
  31332700.07447  24421865.78542  26598428.1194   26598423.8734
  30610198.56345  23858740.32041  28487873.8384   28487870.6114
 04  7 28  6 46 30.0100000  0  9G 7G17G 5G 4G 9G24G28G31G26
  13587888.15649  10595154.57245  24775995.4634   24775990.7094
  -3258097.64545  -2527321.61542  27407860.8074   27407856.8854
  -6183805.71148  -4809693.96543  25966700.2834   25966696.0414
 -12101986.26249  -9418942.10846  23708339.2754   23708334.6034
 -10490469.91849  -8161959.47246  23820829.3854   23820824.8464
 -10812937.38349  -8419215.96844  24669792.4714   24669788.4004
  29558453.60247  23020272.08842  26323011.0644   26323005.5454
  31464768.63747  24524776.36642  26623559.7914   26623555.2014
  30731764.49245  23953467.02841  28511007.2444   28511003.2324
 04  7 28  6 47  0.0100000  0  9G 7G17G 5G 4G 9G24G28G31G26
  13684048.83249  10670084.96345  24794293.8384   24794289.1704
  -3323489.68046  -2578276.50242  27395416.8774   27395412.2714
  -6231292.49648  -4846696.61743  25957663.9164   25957659.1584
 -12080537.32449  -9402228.65446  23712420.8144   23712416.2214
 -10465314.08249  -8142357.52346  23825616.5254   23825612.1274
 -10857100.15249  -8453628.51845  24661388.8074   24661384.4634
  29667639.96947  23105352.35542  26343788.7524   26343783.1154
  31596850.47347  24627697.27142  26648693.9164   26648690.0604
  30853180.93845  24048077.22641  28534112.0494   28534107.9634
 04  7 28  6 47 30.0100000  0  9G 7G17G 5G 4G 9G24G28G31G26
  13780328.24249  10745107.89045  24812615.6584   24812610.6784
  -3388848.49245  -2629205.38242  27382979.1194   27382975.5684
  -6278705.51648  -4883641.81643  25948641.6434   25948636.6354
 -12058467.02749  -9385031.00946  23716620.7994   23716616.3184
 -10439543.59849  -8122276.63046  23830520.5104   23830515.9594
 -10900881.10549  -8487743.52045  24653057.1744   24653054.2054
  29777027.86748  23190589.67542  26364604.4714   26364599.0454
  31728943.29747  24730626.72342  26673830.4004   26673826.0334
  30974444.24245  24142568.13341  28557187.8224   28557184.1854
 04  7 28  6 48  0.0100000  0  8G 7G17G 5G 4G 9G24G28G31
  13876724.27049  10820221.67945  24830958.9944   24830954.2444
  -3454173.09846  -2680107.68142  27370548.8464   27370544.2874
  -6326044.70748  -4920529.45743  25939632.6434   25939628.3464
 -12035776.15249  -9367349.82146  23720938.8074   23720933.9904
 -10413159.09449  -8101717.27346  23835541.3074   23835536.5024
 -10944279.02749  -8521560.07745  24644799.3614   24644795.2874
  29886616.05947  23275983.04642  26385458.7834   26385453.0334
  31861044.81347  24833562.98342  26698968.8694   26698964.2364
 04  7 28  6 48 30.0100000  0  8G 7G17G 5G 4G 9G24G28G31
  13973237.78549  10895427.02045  24849324.8224   24849319.9514
  -3519458.95346  -2730979.72042  27358125.0964   27358121.3964
  -6373306.43748  -4957356.74443  25930639.2364   25930634.6624
 -12012461.98049  -9349182.92146  23725375.2524   23725370.6234
 -10386157.76249  -8080677.27546  23840679.5964   23840674.9204
 -10987289.12949  -8555074.43045  24636614.5644   24636610.7284
  29996406.50047  23361534.01542  26406350.8694   26406345.6114
  31993155.96547  24936506.76042  26724108.2444   26724103.7054
 04  7 28  6 49  0.0100000  0  8G 7G17G 5G 4G 9G24G28G31
  14069874.50449  10970728.35945  24867713.9324   24867709.5184
  -3584696.98846  -2781814.47842  27345710.2134   27345706.5884
  -6420482.80948  -4994117.52843  25921661.7444   25921657.0804
 -11988517.71149  -9330525.04646  23729931.6894   23729927.2714
 -10358532.52049  -8059151.11346  23845936.2834   23845931.4594
 -11029902.05149  -8588279.30145  24628505.7364   24628501.7174
  30106405.73447  23447247.71642  26427283.1974   26427276.8424
  32125282.28147  25039462.34342  26749250.9164   26749245.9984
 04  7 28  6 49 30.0100000  0  8G 7G17G 5G 4G 9G24G28G31
  14166634.96949  11046126.12045  24886127.0644   24886122.2914
  -3649883.38346  -2832609.09642  27333306.0104   27333302.0064
  -6467571.21948  -5030809.78943  25912701.3464   25912696.5254
 -11963941.06649  -9311374.41846  23734608.5884   23734604.1004
 -10330281.48049  -8037137.32346  23851312.4084   23851307.9824
 -11072114.05949  -8621171.77645  24620472.9714   24620468.5724
  30216615.24647  23533125.24342  26448255.5644   26448249.4324
  32257424.31347  25142430.15942  26774397.2754   26774392.5334
 04  7 28  6 50  0.0100000  0  8G 7G17G 5G 4G 9G24G28G31
  14263516.84449  11121618.49745  24904562.7684   24904558.4084
  -3715016.98846  -2883362.52242  27320911.9474   27320907.5334
  -6514571.44948  -5067433.31843  25903757.3854   25903752.7054
 -11938733.01649  -9291731.78346  23739405.3854   23739401.0494
 -10301405.27749  -8014636.38546  23856807.3534   23856803.1854
 -11113924.02749  -8653750.96545  24612516.3304   24612512.2754
  30327033.68047  23619165.57142  26469266.6974   26469262.0334
  32389579.64847  25245408.37242  26799545.1194   26799540.6464
 04  7 28  6 50 30.0100000  0  8G 7G17G 5G 4G 9G24G28G31
  14360513.45349  11197200.27345  24923020.9784   24923016.3964
  -3780100.98846  -2934077.33942  27308526.3694   27308521.8184
  -6561488.01248  -5103991.67543  25894829.0724   25894824.7684
 -11912898.85549  -9271601.26046  23744321.5574   23744317.1274
 -10271909.24649  -7991652.45946  23862420.2914   23862415.5924
 -11155334.84049  -8686019.13045  24604636.4784   24604632.7564
  30437655.14546  23705364.07742  26490317.7834   26490313.1004
  32521741.64147  25348391.72042  26824694.8934   26824690.6354
 04  7 28  6 51  0.0100000  0  8G 7G17G 5G 4G 9G24G28G31
  14457622.72349  11272869.84845  24941499.8934   24941495.3104
  -3845134.14546  -2984752.52042  27296150.9714   27296146.4044
  -6608320.56248  -5140484.53943  25885917.3384   25885912.9634
 -11886439.27749  -9250983.39846  23749356.9394   23749352.0254
 -10241794.07449  -7968186.08346  23868150.8074   23868145.9634
 -11196345.28949  -8717975.30345  24596832.2604   24596828.5804
  30548478.49646  23791719.95342  26511406.4164   26511401.6894
  32653908.11347  25451378.62342  26849845.5414   26849841.3104
 04  7 28  6 51 30.0100000  0  8G 7G17G 5G 4G 9G24G28G31
  14554842.78149  11348625.75345  24960000.4004   24959995.8184
  -3910114.98046  -3035386.93042  27283785.1034   27283781.1114
  -6655068.54748  -5176911.50543  25877022.0884   25877017.2364
 -11859354.82449  -9229878.63246  23754510.5644   23754506.0534
 -10211060.24249  -7944237.63546  23873999.1974   23873994.6114
 -11236953.82449  -8749618.31645  24589104.9084   24589101.0254
  30659502.72747  23878232.33542  26532533.9004   26532528.9124
  32786077.13747  25554367.45042  26874996.1194   26874991.6934
 04  7 28  6 52  0.0100000  0  8G 7G17G 5G 4G 9G24G28G31
  14652172.21149  11424466.85445  24978521.4554   24978516.7404
  -3975041.62147  -3085979.12042  27271430.9554   27271426.0454
  -6701730.75048  -5213271.65543  25868141.9634   25868137.6234
 -11831645.63749  -9208287.05846  23759783.5644   23759779.0294
 -10179707.80549  -7919807.17346  23879965.7214   23879961.0844
 -11277158.30949  -8780946.47345  24581454.1354   24581450.1354
  30770727.29747  23964900.81942  26553699.0334   26553693.5764
  32918247.28547  25657357.20042  26900148.0254   26900142.4514
 04  7 28  6 52 30.0100000  0  8G 7G17G 5G 4G 9G24G28G31
  14749607.98049  11500390.84145  24997063.1114   24997058.4084
  -4039913.39147  -3136528.50242  27259086.0574   27259081.5684
  -6748308.33248  -5249565.83043  25859278.8384   25859273.8654
 -11803313.50049  -9186210.06746  23765174.8854   23765170.4594
 -10147738.30149  -7894895.87546  23886049.3934   23886044.2714
 -11316958.56249  -8811959.65745  24573880.5184   24573876.7564
  30882150.18447  24051723.85542  26574902.7524   26574896.6314
  33050415.54747  25760345.48342  26925298.0334   26925293.8534
 04  7 28  6 53  0.0100000  0  8G 7G17G 5G 4G 9G24G28G31
  14847153.11749  11576400.04245  25015625.3074   25015620.6394
  -4104724.23447  -3187030.44842  27246752.7134   27246748.3774
  -6794795.77348  -5285789.79943  25850432.0254   25850427.6394
 -11774354.38749  -9163644.52346  23770685.7134   23770681.4244
 -10115147.77349  -7869500.64946  23892251.0414   23892246.5294
 -11356348.12549  -8842652.81845  24566384.5884   24566380.8184
  30993774.91046  24138704.08242  26596143.7754   26596138.4434
  33182584.72747  25863334.46942  26950448.9324   26950444.4944
 04  7 28  6 53 30.0100000  0  8G 7G17G 5G 4G 9G24G28G31
  14944803.31649  11652491.11845  25034207.5184   25034203.6544
  -4169474.84847  -3237485.42542  27234431.0334   27234427.3614
  -6841195.00448  -5321945.04043  25841603.1194   25841598.8534
 -11744770.84449  -9140592.40246  23776315.4244   23776310.8264
 -10081939.05549  -7843623.72246  23898570.1664   23898566.0534
 -11395327.57849  -8873026.41345  24558967.2364   24558963.1074
  31105598.31646  24225839.24242  26617423.0024   26617417.7954
  33314750.79747  25966321.01242  26975599.5574   26975594.6464
 04  7 28  6 54  0.0100000  0  8G 7G17G 5G 4G 9G24G28G31
  15042558.05949  11728663.64545  25052809.5104   25052805.1314
  -4234162.72747  -3287891.56142  27222121.5254   27222116.7174
  -6887504.38748  -5358030.23943  25832791.2604   25832785.7794
 -11714562.82449  -9117053.68946  23782063.6354   23782058.9984
 -10048111.58649  -7817264.66646  23905007.6034   23905002.8144
 -11433894.19549  -8903078.32045  24551628.4164   24551624.3614
  31217620.60247  24313129.29842  26638740.0104   26638735.2094
  33446912.93047  26069304.56642  27000749.2604   27000743.8964
 04  7 28  6 54 30.0100000  0  8G 7G17G 5G 4G 9G24G28G31
  15140414.61749  11804915.51345  25071430.8614   25071426.5884
  -4298786.83647  -3338247.96642  27209823.8694   27209819.1114
  -6933723.75448  -5394045.28643  25823995.3074   25823990.1974
 -11683731.46549  -9093029.25446  23787930.5644   23787925.7564
 -10013666.84849  -7790424.60246  23911561.9324   23911557.6314
 -11472047.20749  -8932807.92545  24544368.1034   24544364.2134
  31329839.68446  24400572.72142  26660095.0494   26660089.0414
  33579068.53547  26172282.95942  27025897.4634   27025892.7794
 04  7 28  6 55  0.0100000  0  8G 7G17G 5G 4G 9G24G28G31
  15238374.69948  11881248.03545  25090072.0254   25090067.8734
  -4363342.46947  -3388551.05342  27197539.7134   27197534.5374
  -6979849.23448  -5429987.19443  25815217.6114   25815212.9754
 -11652274.17649  -9068517.07746  23793916.6824   23793911.9124
  -9978602.01649  -7763101.35646  23918234.9784   23918230.2364
 -11509781.85949  -8962211.54645  24537187.1824   24537183.7254
  31442258.28946  24488171.62842  26681487.0724   26681482.4164
  33711219.28547  26275257.57742  27051045.3304   27051040.0024
 04  7 28  6 55 30.0100000  0  8G 7G17G 5G 4G 9G24G28G31
  15336437.36348  11957660.50545  25108732.8534   25108728.6704
  -4427827.05947  -3438798.76942  27185268.5334   27185262.9044
  -7025879.36348  -5465854.81543  25806458.5104   25806453.7134
 -11620190.89849  -9043517.10446  23800022.0184   23800017.4324
  -9942917.11349  -7735294.94046  23925025.4784   23925020.9284
 -11547095.87149  -8991287.39445  24530086.6744   24530082.9394
  31554876.15247  24575925.77142  26702918.5724   26702912.9554
  33843364.10947  26378227.59042  27076191.5254   27076186.7134
 04  7 28  6 56  0.0100000  0  8G 7G17G 5G 4G 9G24G28G31
  15434599.45748  12034150.44845  25127412.4714   25127408.4324
  -4492240.30547  -3488990.88542  27173011.0024   27173005.8224
  -7071815.10548  -5501648.87943  25797716.8224   25797712.6934
 -11587483.59849  -9018030.89946  23806246.0024   23806241.7444
  -9906614.01649  -7707006.79746  23931933.5414   23931929.2444
 -11583988.86349  -9020035.18345  24523066.2284   24523061.9594
  31667690.95347  24663833.38242  26724385.6584   26724380.6504
  33975499.98447  26481190.61142  27101336.1894   27101332.0214
 04  7 28  6 56 30.0100000  0  8G 7G17G 5G 4G 9G24G28G31
  15532865.50848  12110721.40745  25146111.8934   25146107.2794
  -4556574.67647  -3539121.55642  27160768.5964   27160763.2404
  -7117649.44148  -5537363.92643  25788995.1114   25788990.2254
 -11554147.12549  -8992054.42646  23812589.5964   23812585.3224
  -9869687.20349  -7678232.66446  23938960.5964   23938956.2524
 -11620453.09449  -9048448.85545  24516127.3464   24516122.9754
  31780707.78546  24751898.46342  26745892.5414   26745886.8344
  34107631.30947  26584150.14642  27126479.8774   27126475.1234
 04  7 28  6 57  0.0100000  0  8G 7G17G 5G 4G 9G24G28G31
  15631232.58248  12187371.07045  25164830.4164   25164826.6114
  -4620829.73447  -3589190.39142  27148540.9714   27148536.2684
  -7163382.90248  -5573000.38743  25780292.2754   25780287.5534
 -11520183.27049  -8965589.07946  23819052.8534   23819048.1314
  -9832138.82449  -7648974.18246  23946105.8464   23946101.3464
 -11656488.42249  -9076528.32245  24509270.2914   24509265.6624
  31893924.46946  24840119.23542  26767436.5724   26767431.2564
  34239755.14847  26687103.80142  27151621.9714   27151616.1784
 04  7 28  6 57 30.0100000  0  8G 7G17G 5G 4G 9G24G28G31
  15729694.94549  12264094.98745  25183567.2134   25183562.9784
  -4685007.64847  -3639199.19042  27136328.4084   27136324.1354
  -7209019.32848  -5608561.19643  25771608.1034   25771603.4984
 -11485596.82849  -8938638.60446  23825634.4004   23825629.7994
  -9793973.34849  -7619234.85046  23953368.7604   23953363.8224
 -11692097.28149  -9104275.46745  24502493.8614   24502489.6704
  32007336.13747  24928491.97642  26789018.5494   26789013.0294
  34371865.80147  26790047.12942  27176761.8384   27176756.8694
 04  7 28  6 58  0.0100000  0  8G 7G17G 5G 4G 9G24G28G31
  15828251.34448  12340892.18445  25202321.6744   25202317.5374
  -4749106.64147  -3689146.39642  27124130.5724   27124126.3104
  -7254557.43448  -5644045.39843  25762942.4864   25762937.6854
 -11450388.14549  -8911203.25946  23832334.4474   23832329.6504
  -9755191.06249  -7589014.88846  23960748.5494   23960744.1744
 -11727277.77349  -9131688.83245  24495799.1824   24495795.2364
  32120941.97347  25017016.00242  26810637.3304   26810631.4244
  34503961.93847  26892979.19342  27201898.9324   27201893.9674
 04  7 28  6 58 30.0100000  0  8G 7G17G 5G 4G 9G24G28G31
  15926905.30548  12417765.40844  25221094.9554   25221090.7644
  -4813119.91846  -3739026.84942  27111949.4784   27111944.6034
  -7299991.03148  -5679448.18543  25754296.7364   25754291.7364
 -11414552.94949  -8883279.72446  23839153.5334   23839148.8964
  -9715787.62549  -7558310.90746  23968246.7754   23968241.9904
 -11762023.37149  -9158763.32245  24489187.3224   24489183.5454
  32234746.31647  25105694.68142  26832293.0804   26832288.0414
  34636047.02047  26995902.65542  27227034.1274   27227028.8734
